[[{"header":{"parameterUnit":"m.s-1","parameterCategory":1,"la1":30.6,"la2":29.2853,"lo1":-89.7004,"lo2":-87.6739,"dy":0.0162,"dx":0.0183,"nx":112,"ny":82,"refTime":"2023-09-07T18:00:00:Z","depth":0,"parameterNumber":2,"parameterNumberName":"U-component_of_WINDS"},"data":[0.0,0.0,0.0,0.0,0.0,0.0,0.0,0.0,0.0,0.0,0.0,0.0,0.0,0.0,0.0,0.0,0.0,0.0,0.0,0.0,0.0,0.0,0.0,0.0,0.0,0.0,0.0,0.0,0.0,0.0,0.0,0.0,0.0,0.0,0.0,0.0,0.0,0.0,0.0,0.0,0.0,0.0,0.0,0.0,0.0,0.0,0.0,0.0,0.0,0.0,0.0,0.0,0.0,0.0,0.0,0.0,0.0,0.0,0.0,0.0,0.0,0.0,0.0,0.0,0.0,0.0,0.0,0.0,0.0,0.0,0.0,0.0,0.0,0.0,0.0,0.0,0.0,0.0,0.0,0.0,0.0,0.0,0.0,0.0,0.0,0.0,0.0,0.0,0.0,0.0,-1.4785,-1.8165,-1.9736,-2.0566,-2.0566,-2.0566,-1.9303,-1.6352,0.0,0.0,0.0,0.0,0.0,0.0,0.0,0.0,0.0,0.0,0.0,0.0,0.0,0.0,0.0,0.0,0.0,0.0,0.0,0.0,0.0,0.0,0.0,0.0,0.0,0.0,0.0,0.0,0.0,0.0,0.0,0.0,0.0,0.0,0.0,0.0,0.0,0.0,0.0,0.0,0.0,0.0,0.0,0.0,0.0,0.0,0.0,0.0,0.0,0.0,0.0,0.0,0.0,0.0,0.0,0.0,0.0,0.0,0.0,0.0,0.0,0.0,0.0,0.0,0.0,0.0,0.0,0.0,0.0,0.0,0.0,0.0,0.0,0.0,0.0,0.0,0.0,0.0,0.0,0.0,0.0,0.0,0.0,0.0,0.0,0.0,0.0,0.0,0.0,0.0,0.0,0.0,0.0,0.0,0.0,0.0,0.0,0.0,0.0,0.0,0.0,0.0,0.0,0.0,-1.6209,-1.9822,-2.0488,-2.0566,-2.0566,-2.0566,-1.9492,-1.678,0.0,0.0,0.0,0.0,0.0,0.0,0.0,0.0,0.0,0.0,0.0,0.0,0.0,0.0,0.0,0.0,0.0,0.0,0.0,0.0,0.0,0.0,0.0,0.0,0.0,0.0,0.0,0.0,0.0,0.0,0.0,0.0,0.0,0.0,0.0,0.0,0.0,0.0,0.0,0.0,0.0,0.0,0.0,0.0,0.0,0.0,0.0,0.0,0.0,0.0,0.0,0.0,0.0,0.0,0.0,0.0,0.0,0.0,0.0,0.0,0.0,0.0,0.0,0.0,0.0,0.0,0.0,0.0,0.0,0.0,0.0,0.0,0.0,0.0,0.0,0.0,0.0,0.0,0.0,0.0,0.0,0.0,0.0,0.0,0.0,0.0,0.0,0.0,0.0,0.0,0.0,0.0,0.0,0.0,0.0,0.0,0.0,0.0,0.0,0.0,0.0,0.0,0.0,-1.5297,-1.8088,-2.0372,-2.0566,-2.0566,-2.0566,-2.0566,-1.9463,-1.6894,-1.6665,0.0,0.0,0.0,0.0,0.0,0.0,0.0,0.0,0.0,0.0,0.0,0.0,0.0,0.0,0.0,0.0,0.0,0.0,0.0,0.0,0.0,0.0,0.0,0.0,0.0,0.0,0.0,0.0,0.0,0.0,0.0,0.0,0.0,0.0,0.0,0.0,0.0,0.0,0.0,0.0,0.0,0.0,0.0,0.0,0.0,0.0,0.0,0.0,0.0,0.0,0.0,0.0,0.0,0.0,0.0,0.0,0.0,0.0,0.0,0.0,0.0,0.0,0.0,0.0,0.0,0.0,0.0,0.0,0.0,0.0,0.0,0.0,0.0,0.0,0.0,0.0,0.0,0.0,0.0,0.0,0.0,0.0,0.0,0.0,0.0,0.0,0.0,0.0,0.0,0.0,0.0,0.0,0.0,0.0,0.0,0.0,0.0,0.0,0.0,0.0,0.0,0.0,-1.6791,-1.8875,-2.045,-2.0566,-2.0566,-2.0566,-2.0566,-1.9389,-1.6619,-1.6329,0.0,0.0,0.0,0.0,0.0,0.0,0.0,0.0,0.0,0.0,0.0,0.0,0.0,0.0,0.0,0.0,0.0,0.0,0.0,0.0,0.0,0.0,0.0,0.0,0.0,0.0,0.0,0.0,0.0,0.0,0.0,0.0,0.0,0.0,0.0,0.0,0.0,0.0,0.0,0.0,0.0,0.0,0.0,0.0,0.0,0.0,0.0,0.0,0.0,0.0,0.0,0.0,0.0,0.0,0.0,0.0,0.0,0.0,0.0,0.0,0.0,0.0,0.0,0.0,0.0,0.0,0.0,0.0,0.0,0.0,0.0,0.0,0.0,0.0,0.0,0.0,0.0,0.0,0.0,0.0,0.0,0.0,0.0,0.0,0.0,0.0,0.0,0.0,0.0,0.0,0.0,0.0,0.0,0.0,0.0,0.0,0.0,0.0,0.0,0.0,0.0,0.0,-1.5581,-1.7331,-2.0275,-2.0566,-2.0566,-2.0566,-2.0566,-1.9232,-1.6002,-1.5192,0.0,0.0,0.0,0.0,0.0,0.0,0.0,0.0,0.0,0.0,0.0,0.0,0.0,0.0,0.0,0.0,0.0,0.0,0.0,0.0,0.0,0.0,0.0,0.0,0.0,0.0,0.0,0.0,0.0,0.0,0.0,0.0,0.0,0.0,0.0,0.0,0.0,0.0,0.0,0.0,0.0,0.0,0.0,0.0,0.0,0.0,0.0,0.0,0.0,0.0,0.0,0.0,0.0,0.0,0.0,0.0,0.0,0.0,0.0,0.0,0.0,0.0,0.0,0.0,0.0,0.0,0.0,0.0,0.0,0.0,0.0,0.0,0.0,0.0,0.0,0.0,0.0,0.0,0.0,0.0,0.0,0.0,0.0,0.0,0.0,0.0,0.0,0.0,0.0,0.0,0.0,0.0,0.0,0.0,0.0,0.0,0.0,0.0,0.0,0.0,0.0,0.0,-1.6578,-1.8606,0.0,-2.0566,-2.0566,-2.0566,-2.0566,-1.9389,-1.6481,0.0,0.0,0.0,0.0,0.0,0.0,0.0,0.0,0.0,0.0,0.0,0.0,0.0,0.0,0.0,0.0,0.0,0.0,0.0,0.0,0.0,0.0,0.0,0.0,0.0,0.0,0.0,0.0,0.0,0.0,0.0,0.0,0.0,0.0,0.0,0.0,0.0,0.0,0.0,0.0,0.0,0.0,0.0,0.0,0.0,0.0,0.0,0.0,0.0,0.0,0.0,0.0,0.0,0.0,0.0,0.0,0.0,0.0,0.0,0.0,0.0,0.0,0.0,0.0,0.0,0.0,0.0,0.0,0.0,0.0,0.0,0.0,0.0,0.0,0.0,0.0,0.0,0.0,0.0,0.0,0.0,0.0,0.0,0.0,0.0,0.0,0.0,0.0,0.0,0.0,0.0,0.0,0.0,0.0,0.0,0.0,0.0,0.0,0.0,0.0,0.0,0.0,-1.4575,-1.7258,-1.9441,0.0,-2.0566,-2.0566,-2.0566,-2.0566,-1.9389,-1.6555,0.0,0.0,0.0,0.0,0.0,0.0,0.0,0.0,0.0,0.0,0.0,0.0,0.0,0.0,0.0,0.0,0.0,0.0,0.0,0.0,0.0,0.0,0.0,0.0,0.0,0.0,0.0,0.0,0.0,0.0,0.0,0.0,0.0,0.0,0.0,0.0,0.0,0.0,0.0,0.0,0.0,0.0,0.0,0.0,0.0,0.0,0.0,0.0,0.0,0.0,0.0,0.0,0.0,0.0,0.0,0.0,0.0,0.0,0.0,0.0,0.0,0.0,0.0,0.0,0.0,0.0,0.0,0.0,0.0,0.0,0.0,0.0,0.0,0.0,0.0,0.0,0.0,0.0,0.0,0.0,0.0,0.0,0.0,0.0,0.0,0.0,0.0,0.0,0.0,0.0,0.0,0.0,0.0,0.0,0.0,0.0,0.0,0.0,0.0,0.0,0.0,0.0,-1.4541,-1.7249,-1.9441,-2.0489,-2.0566,-2.0566,-2.0566,-2.0566,-1.9222,0.0,0.0,0.0,0.0,0.0,0.0,0.0,0.0,0.0,0.0,0.0,0.0,0.0,0.0,0.0,0.0,0.0,0.0,0.0,0.0,0.0,0.0,0.0,0.0,0.0,0.0,0.0,0.0,0.0,0.0,0.0,0.0,0.0,0.0,0.0,0.0,0.0,0.0,0.0,0.0,0.0,0.0,0.0,0.0,0.0,0.0,0.0,0.0,0.0,0.0,0.0,0.0,0.0,0.0,0.0,0.0,0.0,0.0,0.0,0.0,0.0,0.0,0.0,0.0,0.0,0.0,0.0,0.0,0.0,0.0,0.0,0.0,0.0,0.0,0.0,0.0,0.0,0.0,0.0,0.0,0.0,0.0,0.0,0.0,0.0,0.0,0.0,0.0,0.0,0.0,0.0,0.0,0.0,0.0,0.0,0.0,0.0,0.0,0.0,0.0,0.0,0.0,0.0,-1.4366,-1.774,-2.0245,-2.0566,-2.0566,-2.0566,-2.0566,-2.0566,-1.9253,-1.6177,0.0,0.0,0.0,0.0,0.0,0.0,0.0,0.0,0.0,0.0,0.0,0.0,0.0,0.0,0.0,0.0,0.0,0.0,0.0,0.0,0.0,0.0,0.0,0.0,0.0,0.0,0.0,0.0,0.0,0.0,0.0,0.0,0.0,0.0,0.0,0.0,0.0,0.0,0.0,0.0,0.0,0.0,0.0,0.0,0.0,0.0,0.0,0.0,0.0,0.0,0.0,0.0,0.0,0.0,0.0,0.0,0.0,0.0,0.0,0.0,0.0,0.0,0.0,0.0,0.0,0.0,0.0,0.0,0.0,0.0,0.0,0.0,0.0,0.0,0.0,0.0,0.0,0.0,0.0,0.0,0.0,0.0,0.0,0.0,0.0,0.0,0.0,0.0,0.0,0.0,0.0,0.0,0.0,0.0,0.0,0.0,0.0,0.0,0.0,0.0,0.0,0.0,-1.4256,-1.7962,-2.0566,-2.0566,-2.0566,-2.0566,-2.0566,-2.0566,-1.957,-1.7236,0.0,0.0,0.0,0.0,0.0,0.0,0.0,0.0,0.0,0.0,0.0,0.0,0.0,0.0,0.0,0.0,0.0,0.0,0.0,0.0,0.0,0.0,0.0,0.0,0.0,0.0,0.0,0.0,0.0,0.0,0.0,0.0,0.0,0.0,0.0,0.0,0.0,0.0,0.0,0.0,0.0,0.0,0.0,0.0,0.0,0.0,0.0,0.0,0.0,0.0,0.0,0.0,0.0,0.0,0.0,0.0,0.0,0.0,0.0,0.0,0.0,0.0,0.0,0.0,0.0,0.0,0.0,0.0,0.0,0.0,0.0,0.0,0.0,0.0,0.0,0.0,0.0,0.0,0.0,0.0,0.0,0.0,0.0,0.0,0.0,0.0,0.0,0.0,0.0,0.0,0.0,0.0,0.0,0.0,0.0,0.0,0.0,0.0,0.0,0.0,0.0,0.0,-1.4178,-1.7934,-2.0566,-2.0566,-2.0566,-2.0566,-2.0566,-2.0566,-2.0,-1.8662,0.0,0.0,0.0,0.0,0.0,0.0,0.0,0.0,0.0,0.0,0.0,0.0,0.0,0.0,0.0,0.0,0.0,0.0,0.0,0.0,0.0,0.0,0.0,0.0,0.0,0.0,0.0,0.0,0.0,0.0,0.0,0.0,0.0,0.0,0.0,0.0,0.0,0.0,0.0,0.0,0.0,0.0,0.0,0.0,0.0,0.0,0.0,0.0,0.0,0.0,0.0,0.0,0.0,0.0,0.0,0.0,0.0,0.0,0.0,0.0,-1.4139,0.0,0.0,0.0,0.0,0.0,0.0,0.0,0.0,0.0,0.0,0.0,0.0,0.0,0.0,0.0,0.0,0.0,0.0,0.0,0.0,0.0,0.0,0.0,0.0,0.0,0.0,0.0,0.0,0.0,0.0,0.0,0.0,0.0,0.0,0.0,0.0,0.0,0.0,0.0,0.0,0.0,-1.3883,-1.7835,-2.0566,-2.0566,-2.0566,-2.0566,-2.0566,-2.0566,-1.9873,-1.8242,-1.7793,0.0,0.0,0.0,0.0,0.0,0.0,0.0,0.0,0.0,0.0,0.0,0.0,0.0,0.0,0.0,0.0,0.0,0.0,0.0,0.0,0.0,0.0,0.0,0.0,0.0,0.0,0.0,0.0,0.0,0.0,0.0,0.0,0.0,0.0,0.0,0.0,0.0,0.0,0.0,0.0,0.0,0.0,0.0,0.0,0.0,0.0,0.0,0.0,0.0,0.0,0.0,0.0,0.0,0.0,0.0,0.0,0.0,0.0,0.0,0.0,-1.4125,0.0,0.0,0.0,0.0,0.0,0.0,0.0,0.0,0.0,0.0,0.0,0.0,0.0,0.0,0.0,0.0,0.0,0.0,0.0,0.0,0.0,0.0,0.0,0.0,0.0,0.0,0.0,0.0,0.0,0.0,0.0,0.0,0.0,0.0,0.0,0.0,0.0,0.0,0.0,0.0,-1.4172,-1.7919,-2.0566,-2.0566,-2.0566,-2.0566,-2.0566,-2.0566,-2.0185,-1.9297,-1.8467,0.0,0.0,0.0,0.0,0.0,0.0,0.0,0.0,0.0,0.0,0.0,0.0,0.0,0.0,0.0,0.0,0.0,0.0,0.0,0.0,0.0,0.0,0.0,0.0,0.0,0.0,0.0,0.0,0.0,0.0,0.0,0.0,0.0,0.0,0.0,0.0,0.0,0.0,0.0,0.0,0.0,0.0,0.0,0.0,0.0,0.0,0.0,0.0,0.0,0.0,0.0,0.0,0.0,-1.5641,-1.5739,-1.5739,-1.5739,-1.6008,-1.6531,-1.6111,-1.6512,-1.7251,-1.4519,0.0,0.0,0.0,0.0,0.0,0.0,0.0,0.0,0.0,0.0,0.0,0.0,0.0,0.0,0.0,0.0,0.0,0.0,0.0,0.0,0.0,0.0,0.0,0.0,-1.5987,-1.6094,-1.5829,0.0,0.0,0.0,0.0,0.0,0.0,0.0,0.0,0.0,0.0,0.0,-1.451,-1.8139,-2.0566,-2.0566,-2.0566,-2.0566,-2.0566,-2.0566,-2.0566,-2.0566,-1.9238,-1.832,0.0,0.0,0.0,0.0,0.0,0.0,0.0,0.0,0.0,0.0,0.0,0.0,0.0,0.0,0.0,0.0,0.0,0.0,0.0,0.0,0.0,0.0,0.0,0.0,0.0,0.0,0.0,0.0,0.0,0.0,0.0,0.0,-1.3834,-1.5032,0.0,0.0,0.0,0.0,0.0,0.0,0.0,0.0,0.0,0.0,0.0,0.0,0.0,-1.4641,-1.5278,-1.6556,-1.7521,-1.811,-1.929,-1.9821,-1.9821,-1.9821,-1.9897,-1.9924,-1.8672,0.0,-1.7099,-1.6938,0.0,0.0,0.0,0.0,0.0,0.0,0.0,0.0,0.0,0.0,0.0,0.0,0.0,0.0,0.0,0.0,0.0,0.0,0.0,0.0,0.0,0.0,-1.9609,-1.9782,-1.8971,-1.854,0.0,-1.6172,-1.3152,-1.4072,-1.3135,0.0,0.0,0.0,0.0,0.0,0.0,0.0,-1.451,-1.8139,-2.0566,-2.0566,-2.0566,-2.0566,-2.0566,-2.0566,-2.0566,-2.0566,-2.0352,-1.9561,-1.8076,-1.9434,0.0,0.0,0.0,0.0,0.0,0.0,0.0,0.0,0.0,0.0,0.0,0.0,0.0,0.0,0.0,0.0,0.0,0.0,0.0,0.0,0.0,0.0,0.0,0.0,0.0,0.0,0.0,0.0,0.0,-1.355,-1.4201,-1.6079,-1.4947,-1.4014,0.0,0.0,0.0,0.0,0.0,0.0,0.0,0.0,0.0,-1.6237,-1.6321,-1.667,-1.7292,-1.8619,-1.9408,-1.9727,-2.0293,-2.0566,-2.0566,-2.0566,-2.0566,-2.0537,-1.9971,-1.9493,-1.8901,-1.7752,-1.7197,-1.6948,0.0,0.0,0.0,0.0,-1.336,-1.3649,-1.4232,-1.5265,0.0,-1.6051,0.0,0.0,0.0,0.0,0.0,0.0,0.0,0.0,0.0,0.0,-1.9201,-2.0313,-2.0137,-1.9873,-2.0439,-1.8228,-1.6048,0.0,-1.4962,-1.3438,-1.1731,0.0,0.0,0.0,0.0,-1.5882,-1.6408,-1.8879,-2.0566,-2.0566,-2.0566,-2.0566,-2.0566,-2.0566,-2.0566,-2.0566,-2.0566,-2.0225,-1.9482,-2.0166,-1.9409,0.0,0.0,0.0,0.0,0.0,0.0,0.0,0.0,0.0,0.0,0.0,0.0,0.0,0.0,0.0,0.0,0.0,0.0,0.0,0.0,0.0,0.0,0.0,0.0,0.0,0.0,0.0,0.0,-1.472,-1.5078,-1.718,-1.5781,-1.4806,0.0,0.0,0.0,0.0,0.0,0.0,-1.6167,-1.5846,-1.6333,-1.7628,-1.8128,-1.8613,-1.9131,-2.0088,-2.0566,-2.0566,-2.0566,-2.0566,-2.0566,-2.0684,-2.0732,-2.0742,-2.0859,-2.0898,-2.081,-1.8779,-1.8206,-1.8553,-1.7418,-1.6409,-1.5604,-1.5542,-1.5404,-1.544,-1.6206,-1.7263,-1.8311,-1.8009,-1.7733,-1.7266,-1.6149,0.0,0.0,0.0,0.0,-1.5783,-1.745,-1.814,-1.8767,-2.0255,-2.0566,-2.0596,-2.0713,-1.9717,-1.8627,0.0,-1.7063,-1.5514,-1.3447,0.0,0.0,0.0,0.0,-1.7694,-1.8261,-1.9834,-2.0898,-2.0898,-2.0898,-2.0898,-2.0898,-2.0801,-2.0732,-2.0732,-2.0625,-2.0566,-2.0566,-2.0566,-1.9971,-1.8691,0.0,0.0,0.0,0.0,0.0,0.0,0.0,0.0,0.0,0.0,0.0,0.0,0.0,0.0,0.0,0.0,0.0,0.0,0.0,0.0,0.0,0.0,0.0,0.0,0.0,0.0,0.0,0.0,0.0,-1.8951,-1.8889,0.0,0.0,0.0,0.0,-1.5643,-1.6227,-1.6854,-1.7463,-1.8104,-1.9029,-2.0332,-2.043,-2.0469,-2.0469,-2.0527,-2.0566,-2.0566,-2.0566,-2.0566,-2.0576,-2.1006,-2.1201,-2.1221,-2.1641,-2.1816,-2.1748,-2.084,-2.0459,-2.0312,-1.901,-1.8475,-1.8261,-1.7074,-1.7395,-1.8366,-1.8465,-1.9311,-2.0469,-2.0469,-1.8989,-1.6971,-1.5724,-1.4809,0.0,0.0,-1.6326,-1.7608,-1.8331,-1.9467,-2.0478,-2.0547,-2.0566,-2.0684,-2.1103,-2.0176,-1.9492,0.0,-1.9321,-1.8397,-1.822,0.0,-1.7332,-1.6602,-1.7577,-1.8625,-1.9146,-2.0742,-2.1816,-2.1816,-2.1816,-2.1816,-2.1816,-2.1435,-2.1201,-2.1201,-2.0801,-2.0566,-2.0566,-2.0566,-2.0527,-2.0439,-1.8857,0.0,0.0,0.0,0.0,0.0,0.0,0.0,0.0,0.0,0.0,0.0,0.0,0.0,0.0,0.0,0.0,0.0,0.0,0.0,0.0,0.0,0.0,0.0,0.0,0.0,0.0,0.0,0.0,-1.901,-1.8554,0.0,-1.854,-1.7834,-1.7435,-1.756,-1.8579,-1.9448,-1.988,-2.0149,-2.0644,-2.1387,-2.1416,-2.1416,-2.1416,-2.1416,-2.1416,-2.1416,-2.1416,-2.1416,-2.1416,-2.1582,-2.165,-2.166,-2.1816,-2.1885,-2.1865,-2.1543,-2.1416,-2.1367,-2.0908,-2.0723,-2.0674,-2.0215,-2.0342,-2.0723,-2.0723,-2.1035,-2.1416,-2.1416,-2.0917,-2.0178,-1.9715,-1.9344,-1.9184,-1.9495,-1.9937,-2.0399,-2.0644,-2.1074,-2.1416,-2.1416,-2.1416,-2.1465,-2.1621,-2.1289,-2.1055,-2.1357,-2.0352,-1.9375,-1.9102,-1.9829,-1.9956,-1.8613,-1.9694,-2.0789,-2.0957,-2.1504,-2.1885,-2.1885,-2.1885,-2.1885,-2.1885,-2.1748,-2.1533,-2.125,-2.1084,-2.0869,-2.0576,-2.0566,-2.0566,-2.0566,-1.9971,-1.8492,0.0,0.0,0.0,0.0,0.0,0.0,0.0,0.0,0.0,0.0,0.0,0.0,0.0,0.0,0.0,0.0,0.0,0.0,0.0,0.0,0.0,0.0,0.0,0.0,0.0,0.0,-1.7339,-1.9058,-1.8912,-1.8813,-1.9418,-1.9058,-1.9041,-1.9652,-2.0527,-2.1143,-2.1435,-2.1455,-2.1592,-2.1875,-2.1885,-2.1885,-2.1885,-2.1885,-2.1885,-2.1885,-2.1885,-2.1885,-2.1894,-2.2031,-2.1855,-2.1475,-2.206,-2.206,-2.1699,-2.2129,-2.2305,-2.2275,-2.1992,-2.1885,-2.1885,-2.1885,-2.1885,-2.1885,-2.1885,-2.1885,-2.1885,-2.1885,-2.1885,-2.1885,-2.1885,-2.1885,-2.1885,-2.1885,-2.1885,-2.1885,-2.1885,-2.1885,-2.1885,-2.1885,-2.1885,-2.1924,-2.207,-2.1631,-2.1435,-2.2168,-2.1377,-2.0352,-1.9629,-2.0459,-2.0684,-1.9092,-1.9834,-2.0576,-2.0576,-2.1084,-2.1435,-2.1435,-2.1963,-2.2305,-2.2305,-2.1514,-2.1191,-2.1641,-2.0713,-2.0342,-2.0771,-2.0088,-1.9707,-1.9707,-1.9131,-1.7988,-1.6289,0.0,0.0,0.0,0.0,0.0,0.0,0.0,0.0,0.0,0.0,0.0,0.0,0.0,0.0,0.0,0.0,0.0,0.0,0.0,0.0,0.0,0.0,0.0,-1.5478,-1.7334,-1.8828,-1.9307,-2.0098,-2.0781,-2.1211,-2.125,-2.1426,-2.1855,-2.1885,-2.1894,-2.1904,-2.1865,-2.1855,-2.1865,-2.1865,-2.1865,-2.1865,-2.1904,-2.1924,-2.1924,-2.1924,-2.1924,-2.1934,-2.2344,-2.1846,-2.0742,-2.2412,-2.2432,-2.1396,-2.2627,-2.3135,-2.3057,-2.2246,-2.1924,-2.1924,-2.1924,-2.1924,-2.1924,-2.1875,-2.1894,-2.1924,-2.1924,-2.1924,-2.1924,-2.1924,-2.1924,-2.1924,-2.1924,-2.1924,-2.1924,-2.1924,-2.1924,-2.1924,-2.1924,-2.1924,-2.2031,-2.2441,-2.1211,-2.0635,-2.2734,-2.248,-2.1514,-2.0234,-2.001,-1.96,-1.8359,-1.8174,0.0,-1.8174,-1.9619,-2.0644,-2.0644,-2.209,-2.3076,-2.3135,-2.0791,-2.0234,-2.2383,-1.9775,-1.9072,-2.1152,-1.9228,-1.8105,-1.8086,-1.6377,-1.6318,-1.8008,0.0,0.0,0.0,0.0,0.0,0.0,0.0,0.0,0.0,0.0,0.0,0.0,0.0,0.0,0.0,0.0,0.0,0.0,0.0,0.0,0.0,0.0,-1.8437,-1.8242,-1.874,-1.9619,-2.1006,-2.1377,-2.1572,-2.1699,-2.1709,-2.1758,-2.1875,-2.1885,-2.2021,-2.2324,-2.1445,-2.1074,-2.1396,-2.1416,-2.1416,-2.1416,-2.2334,-2.2793,-2.2793,-2.2793,-2.2793,-2.2793,-2.291,-2.2773,-2.2461,-2.293,-2.2939,-2.2637,-2.2998,-2.3135,-2.3115,-2.2881,-2.2793,-2.2793,-2.2793,-2.2793,-2.2666,-2.1738,-2.2021,-2.2793,-2.2793,-2.2793,-2.2793,-2.2793,-2.2793,-2.2793,-2.2793,-2.2793,-2.2793,-2.2793,-2.2793,-2.2793,-2.2793,-2.2793,-2.2822,-2.2939,-2.2588,-2.2432,-2.3027,-2.2949,-2.2676,-2.2314,-2.2256,-2.2129,-2.1777,-2.1728,0.0,-2.1728,-2.2139,-2.2432,-2.2432,-2.1738,-2.1777,-2.3027,-2.1338,-2.0869,-2.2412,-2.1728,-2.126,-2.123,-2.0664,-2.0195,-1.9863,-1.8174,-1.7529,0.0,0.0,0.0,0.0,0.0,0.0,0.0,0.0,0.0,0.0,0.0,0.0,0.0,0.0,0.0,0.0,0.0,0.0,0.0,0.0,0.0,0.0,-1.8584,-2.0078,-2.0566,-2.0488,-2.0752,-2.1768,-2.1885,-2.1953,-2.2129,-2.2148,-2.2217,-2.2402,-2.2412,-2.2519,-2.2764,-2.2051,-2.1514,-2.124,-2.1758,-2.1865,-2.1514,-2.2773,-2.3506,-2.3672,-2.3672,-2.3672,-2.3672,-2.3672,-2.3379,-2.291,-2.3437,-2.3369,-2.292,-2.3457,-2.3672,0.0,0.0,0.0,0.0,0.0,-2.3135,-2.3037,-2.2285,-2.2519,-2.3135,-2.3135,-2.3135,-2.3135,-2.3135,-2.2637,-2.206,-2.206,-2.1543,-2.1152,-2.1875,-2.206,-2.2246,-2.2969,-2.3135,-2.3135,-2.3135,-2.2568,-2.2275,-2.2998,-2.2559,0.0,-2.3018,-2.2539,-2.1816,-2.1094,-2.0986,-2.0986,-2.0986,-2.1621,-2.206,-2.206,-2.1816,-2.2051,-2.3057,-2.1387,0.0,0.0,0.0,-2.0859,-2.0176,-2.0146,0.0,0.0,0.0,-1.7285,-1.8008,0.0,0.0,0.0,-1.6103,-1.512,0.0,0.0,0.0,0.0,0.0,0.0,0.0,0.0,0.0,0.0,0.0,0.0,0.0,0.0,0.0,0.0,-1.9443,-2.082,-2.2363,-2.2266,-2.2031,-2.2031,-2.2031,-2.2178,-2.2549,-2.2578,-2.2744,-2.3105,-2.3135,-2.3164,-2.3213,0.0,0.0,0.0,0.0,-2.2715,-2.1963,-2.3223,-2.4043,-2.4414,-2.4414,-2.4414,-2.4414,-2.4414,-2.3799,-2.2793,-2.3926,-2.3779,-2.2812,-2.3945,-2.4414,-2.4336,-2.3525,-2.3184,-2.3125,-2.2978,-2.3018,-2.3115,-2.2969,0.0,0.0,-2.3135,-2.3135,-2.3135,-2.3135,-2.207,-2.0859,-2.0859,-1.9756,-1.8936,-2.0459,-2.0859,-2.124,-2.2773,-2.3135,-2.3135,-2.3135,-2.1934,-2.1309,-2.2842,-2.1904,-2.1338,-2.2871,-2.1865,-2.0342,-1.8818,-1.8584,-1.8584,-1.8584,-1.9922,-2.0859,-2.0859,0.0,0.0,-2.3125,-2.1201,-2.0889,-2.3008,-2.0947,-1.9473,-1.9092,-1.8984,-1.8027,-1.6103,-1.6016,-1.6758,-1.8301,-1.8301,-1.9082,-2.0488,-1.7422,-1.6562,0.0,0.0,0.0,0.0,0.0,0.0,0.0,0.0,0.0,0.0,0.0,0.0,0.0,0.0,0.0,-2.0576,-2.168,-2.2637,-2.2969,-2.2949,-2.2891,-2.2891,-2.2891,-2.293,-2.3008,-2.3018,-2.3057,-2.3135,-2.3135,-2.3291,-2.3643,-2.2685,-2.2168,-2.2266,-2.251,-2.2559,-2.2393,-2.3662,-2.4336,-2.4414,0.0,0.0,-2.4414,-2.4414,-2.4287,-2.4062,-2.4307,-2.4277,-2.4062,-2.4316,-2.4414,-2.4365,-2.3857,-2.3447,-2.3018,-2.1982,-2.2256,-2.2988,-2.1963,-2.2275,-2.3135,-2.3135,-2.3135,-2.3135,-2.3135,-2.29,0.0,-2.2646,-2.2402,-2.2227,-2.2559,-2.2646,-2.2725,-2.3057,-2.3135,-2.3135,-2.3135,-2.2881,-2.2734,-2.3076,-2.2871,-2.2754,-2.3076,-2.2861,-2.2529,-2.2197,-2.2148,-2.2148,-2.2148,-2.2441,-2.2646,-2.2646,-2.1689,-2.1631,-2.3018,-2.1475,-2.1211,-2.3027,-2.2353,-2.1846,-2.1768,-2.1094,-2.0537,-2.0117,-1.9756,-1.9736,-2.0068,-2.0068,-2.0244,-2.0547,-1.9883,-1.9746,0.0,0.0,0.0,0.0,0.0,0.0,0.0,0.0,0.0,0.0,0.0,-1.9287,0.0,0.0,-2.0478,-2.1123,-2.1768,-2.2412,-2.3047,-2.3135,-2.3135,-2.3135,-2.3135,-2.3135,-2.3135,-2.333,-2.3467,-2.3467,-2.3662,-2.3867,-2.4092,-2.3496,-2.2949,-2.2519,-2.3135,-2.3262,-2.2842,-2.4102,-2.4853,-2.5078,-2.5078,-2.5078,-2.5078,-2.5078,-2.5078,-2.5078,-2.5078,-2.5078,-2.5078,-2.5078,-2.4941,-2.4717,-2.4512,-2.416,-2.3701,-2.3066,-2.3232,-2.3652,-2.2803,-2.293,-2.3428,-2.3213,-2.3135,-2.3135,-2.3135,-2.2539,-2.1855,-2.1855,-2.123,-2.0771,-2.1621,-2.1855,-2.207,-2.293,-2.3135,-2.3135,-2.3135,-2.3135,-2.3135,-2.3135,-2.3135,-2.3135,-2.3135,-2.3135,-2.3135,-2.3135,-2.3135,-2.3135,-2.3135,-2.3135,-2.3135,-2.3135,-2.2363,-2.2197,-2.3066,-2.2353,-2.2227,-2.3086,-2.2939,-2.2734,-2.2519,-2.21,-2.167,-2.124,-2.1016,-2.0791,-2.0566,-2.0566,-2.0566,-2.0566,-2.0566,-2.0566,0.0,0.0,0.0,0.0,0.0,0.0,0.0,0.0,-1.9971,-1.9717,-1.9863,-2.0039,-2.0039,-2.0039,-2.0381,-2.1435,-2.168,-2.209,-2.3115,-2.334,-2.3389,-2.3389,-2.331,-2.3301,-2.3379,-2.3701,-2.3906,-2.3906,-2.4228,-2.4453,-2.4541,-2.4541,-2.4111,-2.3164,-2.4141,-2.4346,-2.3672,-2.4678,-2.5381,-2.5742,-2.5742,-2.5742,-2.5742,-2.5742,-2.5742,-2.5742,-2.5742,-2.5742,-2.5742,-2.5742,-2.5527,-2.5195,-2.5195,-2.498,-2.4648,-2.4482,-2.4414,-2.4365,-2.4033,-2.3906,-2.3857,-2.3506,-2.3389,-2.3389,-2.3389,-2.2412,-2.1299,-2.1211,-2.0195,-1.9434,-2.0723,-2.1064,-2.1416,-2.2812,-2.3135,-2.3135,-2.3135,-2.3135,-2.3135,-2.3135,-2.3135,-2.3135,-2.3135,-2.3135,-2.3135,-2.3135,-2.3135,-2.3135,-2.3135,-2.3135,-2.3135,-2.3135,-2.3135,-2.3135,-2.3135,-2.3135,-2.3135,-2.3135,-2.3135,-2.2988,-2.2646,-2.2559,-2.2148,-2.1377,-2.1279,-2.1016,-2.0566,-2.0566,-2.0566,-2.0566,-2.0566,-2.0566,-1.8956,-1.8408,0.0,-1.773,-1.9263,-2.0606,0.0,0.0,-2.2383,-2.125,-2.1914,-2.2705,-2.2705,-2.2705,-2.2754,-2.29,-2.3252,-2.3555,-2.3691,-2.4043,-2.4268,-2.4268,-2.3945,-2.3857,-2.4238,-2.4316,-2.4346,-2.4346,-2.4385,-2.459,-2.4971,-2.5,-2.5107,-2.5371,-2.5518,-2.5547,-2.5449,-2.5586,-2.5684,-2.5742,-2.5742,-2.5742,-2.5742,-2.5742,-2.5742,-2.5742,-2.5742,-2.5742,-2.5742,-2.5742,-2.5713,-2.5664,-2.5664,-2.5635,-2.5498,-2.4707,-2.4414,-2.4414,-2.4365,-2.4346,-2.4336,-2.4287,-2.4268,-2.4268,-2.4268,-2.4141,-2.3906,-2.3535,-2.3291,-2.3096,-2.29,-2.2852,-2.29,-2.3096,-2.3135,-2.3135,-2.3135,-2.3135,-2.3135,-2.3135,-2.3135,-2.3135,-2.3135,-2.3135,-2.3135,-2.3135,-2.3135,-2.3135,-2.3135,-2.3135,-2.3135,-2.3135,-2.3135,-2.3135,-2.3135,-2.3135,-2.3135,-2.3135,-2.3135,-2.3115,-2.3066,-2.2715,-2.2295,-2.1816,-2.1426,-2.1016,-2.0566,-2.0566,-2.0566,-2.0566,-2.0566,-2.0566,-2.1754,0.0,0.0,0.0,-2.2537,-2.3148,-2.2642,-2.2848,-2.3152,-2.3254,-2.3747,-2.4125,-2.4125,-2.3706,-2.3372,0.0,-2.3252,-2.331,-2.4053,-2.4307,-2.4512,-2.4766,-2.3975,-2.3389,-2.331,-2.4209,-2.4482,-2.373,-2.4609,-2.5264,-2.5449,-2.5459,-2.5547,-2.5732,-2.5742,-2.5742,-2.5742,-2.5742,-2.5742,-2.5742,-2.5742,-2.5742,-2.5742,-2.5742,-2.5742,-2.5742,-2.5742,-2.5742,-2.5742,-2.5742,-2.5742,-2.5742,-2.5742,-2.5742,-2.5693,-2.5322,-2.5185,-2.5146,-2.4883,-2.4795,-2.4756,-2.4502,-2.4414,-2.4414,-2.4414,-2.4414,-2.4385,-2.4209,-2.415,-2.4111,-2.3926,-2.3887,-2.3887,-2.3887,-2.3691,-2.3516,-2.3516,-2.332,-2.3135,-2.3135,-2.3135,-2.3135,-2.3135,-2.3135,-2.3135,-2.3135,-2.3135,-2.3135,-2.3135,-2.3135,-2.3135,-2.3135,-2.3135,-2.3135,-2.3135,-2.3135,-2.3135,-2.3135,-2.3135,-2.3135,-2.3135,-2.2969,-2.2676,-2.2256,-2.1836,-2.1396,-2.0957,-2.0693,-2.0566,-2.0566,-2.0566,-2.0566,-2.357,0.0,0.0,-2.4172,-2.454,-2.4807,-2.4809,-2.4382,-2.4221,-2.4702,-2.4787,-2.4744,-2.4547,-2.4031,-2.3716,-2.3879,-2.3801,-2.388,-2.4463,-2.4967,-2.5119,-2.481,-2.3887,-2.292,-2.1894,-2.3564,-2.4473,-2.3896,-2.5029,-2.5742,-2.5742,-2.5742,-2.5742,-2.5742,-2.5742,-2.5742,-2.5742,-2.5742,-2.5742,-2.5742,-2.5742,-2.5742,-2.5742,-2.5742,-2.5742,-2.5742,-2.5742,-2.5742,-2.5742,-2.5742,-2.5742,-2.5742,-2.5742,-2.5742,-2.5742,-2.5742,-2.5742,-2.5693,-2.5361,-2.5254,-2.5195,-2.4883,-2.4775,-2.4775,-2.4775,-2.4775,-2.4756,-2.4629,-2.459,-2.457,-2.4443,-2.4414,-2.4414,-2.4414,-2.418,-2.3965,-2.3965,-2.3623,-2.332,-2.332,-2.3223,-2.3135,-2.3135,-2.3135,-2.3135,-2.3135,-2.3135,-2.3135,-2.3135,-2.3135,-2.3135,-2.3135,-2.3135,-2.3135,-2.3135,-2.3135,-2.3135,-2.3135,-2.3135,-2.3135,-2.3135,-2.3135,-2.2939,-2.2519,-2.2217,-2.1787,-2.123,-2.0908,-2.0684,-2.0566,-2.0566,-2.0566,0.0,0.0,-2.2465,-2.2832,-2.3883,-2.4799,-2.4829,-2.5641,-2.6058,-2.5041,-2.4787,-2.4592,-2.394,-2.383,-2.3877,-2.4326,-2.5717,-2.6362,-2.5228,-2.6523,-2.6599,-2.4156,-2.3799,-2.2773,0.0,-2.2324,-2.4336,-2.5566,-2.5713,-2.5742,-2.5742,-2.5742,-2.5742,-2.5742,-2.5742,-2.5742,-2.5742,-2.5742,-2.5742,-2.5742,-2.5742,-2.5742,-2.5742,-2.5742,-2.5742,-2.5742,-2.5742,-2.5742,-2.5742,-2.5742,-2.5742,-2.5742,-2.5742,-2.5742,-2.5742,-2.5742,-2.5742,-2.5742,-2.5723,-2.5713,-2.5713,-2.5703,-2.5693,-2.5693,-2.5693,-2.5693,-2.5605,-2.5176,-2.5049,-2.4951,-2.4531,-2.4414,-2.4414,-2.4414,-2.4404,-2.4394,-2.4394,-2.4062,-2.3769,-2.3769,-2.3428,-2.3135,-2.3135,-2.3135,-2.3135,-2.3135,-2.3135,-2.3135,-2.3135,-2.3135,-2.3135,-2.3135,-2.3135,-2.3135,-2.3135,-2.3135,-2.3135,-2.3135,-2.3135,-2.3135,-2.3135,-2.3135,-2.2939,-2.2519,-2.25,-2.208,-2.123,-2.1221,-2.0986,-2.0566,-2.0566,-2.0566,0.0,0.0,-2.5767,-2.6248,-2.6688,-2.7011,-2.7024,-2.6707,-2.6389,-2.5975,-2.5945,-2.5622,-2.4648,-2.4653,-2.5048,-2.5583,-2.5744,-2.6368,-2.7753,-2.633,-2.5524,-2.6218,-2.4077,0.0,0.0,0.0,0.0,-2.3213,-2.4766,-2.5742,-2.5742,-2.5742,-2.5742,-2.5742,-2.5742,-2.5742,-2.5742,-2.5742,-2.5742,-2.5742,-2.5742,-2.5742,-2.5742,-2.5742,-2.5742,-2.5742,-2.5742,-2.5742,-2.5742,-2.5742,-2.5742,-2.5742,-2.5742,-2.5742,-2.5742,-2.5742,-2.5742,-2.5742,-2.5742,-2.5742,-2.5742,-2.5742,-2.5742,-2.5742,-2.5742,-2.5742,-2.5703,-2.5557,-2.5518,-2.5478,-2.5332,-2.5293,-2.5293,-2.5293,-2.5068,-2.4844,-2.4844,-2.4287,-2.3789,-2.3789,-2.3437,-2.3135,-2.3135,-2.3135,-2.3135,-2.3135,-2.3135,-2.3135,-2.3135,-2.3135,-2.3135,-2.3135,-2.3135,-2.3135,-2.3135,-2.3135,-2.3135,-2.3135,-2.3135,-2.3135,-2.3135,-2.3135,-2.3076,-2.293,-2.2656,-2.2227,-2.167,-2.1377,-2.1006,-2.0566,-2.0566,-2.0566,-2.4996,-2.5915,-2.6894,-2.7828,-2.8089,-2.8096,-2.8096,-2.7867,-2.7603,-2.7439,-2.738,-2.6874,-2.5307,-2.5204,-2.5595,-2.6106,-2.6203,-2.6975,-2.9082,-2.7436,-2.616,-2.6809,-2.4341,-2.3037,0.0,0.0,0.0,-2.2627,-2.4102,-2.5039,-2.5039,-2.5039,-2.5254,-2.5723,-2.5742,-2.5742,-2.5742,-2.5742,-2.5742,-2.5742,-2.5742,-2.5742,-2.5742,-2.5742,-2.5488,-2.5068,-2.5537,-2.5469,-2.5078,-2.5547,-2.5742,-2.5742,-2.5742,-2.5742,-2.5742,-2.5742,-2.5742,-2.5742,-2.5742,-2.5742,-2.5742,-2.5742,-2.5742,-2.5742,-2.5742,-2.5742,-2.5742,-2.5742,-2.5742,-2.5742,-2.5742,-2.5742,-2.5742,-2.5742,-2.5518,-2.5303,-2.5303,-2.4629,-2.4014,-2.4014,-2.3535,-2.3135,-2.3135,-2.3135,-2.3135,-2.3135,-2.3135,-2.3135,-2.3135,-2.3135,-2.3135,-2.3135,-2.3135,-2.3135,-2.3135,-2.3135,-2.3135,-2.3135,-2.3135,-2.3135,-2.3135,-2.3135,-2.3135,-2.3135,-2.2871,-2.2461,-2.1885,-2.1602,-2.1152,-2.0566,-2.0566,-2.0566,-2.6465,-2.6528,-2.6166,-2.7806,-2.8176,-2.8176,-2.8176,-2.9028,-2.958,-2.8886,-2.8748,-2.8044,0.0,0.0,-2.5438,-2.6062,-2.7059,-2.8187,-2.9285,-2.9341,-2.8432,0.0,0.0,0.0,0.0,0.0,0.0,-2.3799,0.0,-2.3887,-2.3887,-2.3887,-2.4463,-2.5693,-2.5742,-2.5742,-2.5742,-2.5742,-2.5742,-2.5742,-2.5742,-2.5742,-2.5742,-2.5742,-2.5059,-2.3955,-2.5205,-2.5029,-2.3984,-2.5225,-2.5742,-2.5742,-2.5742,-2.5742,-2.5742,-2.5742,-2.5742,-2.5742,-2.5742,-2.5742,-2.5742,-2.5742,-2.5742,-2.5742,-2.5742,-2.5742,-2.5742,-2.5742,-2.5742,-2.5742,-2.5742,-2.5742,-2.5742,-2.5742,-2.5742,-2.5742,-2.5742,-2.5039,-2.4414,-2.4414,-2.373,-2.3135,-2.3135,-2.3135,-2.3135,-2.3135,-2.3135,-2.3135,-2.3135,-2.3135,-2.3135,-2.3135,-2.3135,-2.3135,-2.3135,-2.3135,-2.3135,-2.3135,-2.3135,-2.3135,-2.3135,-2.3135,-2.3135,-2.3135,-2.3135,-2.2734,-2.1924,-2.1924,-2.1475,-2.0635,-2.0635,-2.0635,-2.5598,-2.703,-2.8845,-2.9266,-2.9365,-2.9365,-2.9365,-2.9611,-2.9145,-2.694,-2.6457,-2.566,0.0,0.0,0.0,-2.6566,-2.6955,0.0,-2.9931,-2.8985,0.0,0.0,0.0,-2.5064,-2.4781,-2.5049,0.0,0.0,-2.4687,-2.5244,-2.5244,-2.5244,-2.5391,-2.5723,-2.5742,-2.5742,-2.5742,-2.5742,-2.5742,-2.5742,-2.5742,-2.5742,-2.5742,-2.5742,-2.5557,-2.5264,-2.5596,-2.5547,-2.5264,-2.5605,-2.5742,-2.5742,-2.5742,-2.5742,-2.5742,-2.5742,-2.5742,-2.5742,-2.5742,-2.5742,-2.5742,-2.5742,-2.5742,-2.5742,-2.5742,-2.5742,-2.5742,-2.5742,-2.5742,-2.5742,-2.5742,-2.5742,-2.5742,-2.5742,-2.5742,-2.5742,-2.5742,-2.5039,-2.4414,-2.4414,-2.373,-2.3135,-2.3135,-2.3135,-2.3135,-2.3135,-2.3135,-2.3135,-2.3135,-2.3135,-2.3135,-2.3135,-2.3135,-2.3135,-2.3135,-2.3135,-2.3135,-2.3135,-2.3135,-2.3135,-2.3135,-2.3135,-2.3135,-2.3135,-2.3135,-2.2881,-2.2353,-2.2353,-2.208,-2.1553,-2.1553,-2.1553,-2.6992,-2.8373,-2.9792,-2.9792,-2.9792,-2.9603,-2.8863,-2.8687,-2.8125,-2.6017,-2.5605,0.0,0.0,0.0,0.0,0.0,0.0,0.0,-3.0256,-2.9138,-2.78,0.0,-2.599,0.0,-2.6441,-2.6572,-2.6439,0.0,-2.5418,-2.5061,-2.5591,-2.5684,-2.6123,-2.7284,-2.6849,-2.6294,-2.5742,-2.5742,-2.5742,-2.5742,-2.5742,-2.5742,-2.5742,-2.5742,-2.542,-2.4912,0.0,-2.541,-2.4932,-2.5498,-2.5742,-2.5742,-2.5742,-2.5742,-2.5742,-2.5742,-2.5742,-2.5742,-2.5742,-2.5742,-2.5742,-2.5742,-2.5742,-2.5742,-2.5742,-2.5742,-2.5742,-2.5742,-2.5742,-2.5742,-2.5742,-2.5742,-2.5742,-2.5742,-2.5742,-2.5684,-2.5488,-2.4902,-2.4307,-2.3926,-2.3467,-2.3135,-2.3135,-2.3135,-2.3135,-2.3135,-2.3135,-2.3135,-2.3135,-2.3135,-2.3135,-2.3135,-2.3135,-2.3135,-2.3135,-2.3135,-2.3135,-2.3135,-2.3135,-2.3135,-2.3135,-2.3135,-2.3135,-2.3135,-2.3135,-2.293,-2.251,-2.251,-2.2295,-2.1885,-2.1885,-2.1885,-2.8976,-2.9628,-2.9792,-2.9792,-2.9792,-2.9415,-2.7946,-2.7444,-2.6942,-2.5737,0.0,-2.4745,-2.3315,0.0,-2.4569,-2.6289,0.0,-2.7996,-2.9704,-2.9394,-2.8469,-2.6993,-2.6055,-2.6225,-2.7723,-2.7598,-2.8021,-2.9304,-2.6365,-2.4995,-2.6006,-2.6094,-2.7015,-2.9098,-2.8143,-2.703,-2.5917,-2.61,-2.61,-2.5917,-2.61,-2.6014,-2.5732,-2.6014,-2.5391,-2.4111,-2.5425,0.0,-2.4131,-2.5264,-2.5742,-2.5742,-2.5742,-2.5742,-2.5742,-2.5742,-2.5742,-2.5742,-2.5742,-2.5742,-2.5742,-2.5742,-2.5742,-2.5742,-2.5742,-2.5742,-2.5742,-2.5742,-2.5742,-2.5742,-2.5742,-2.5742,-2.5742,-2.5742,-2.5693,-2.5537,-2.5156,-2.4678,-2.4102,-2.3291,-2.3135,-2.3135,-2.3135,-2.3135,-2.3135,-2.3135,-2.3135,-2.3135,-2.3135,-2.3135,-2.3135,-2.3135,-2.3135,-2.3135,-2.3135,-2.3135,-2.3135,-2.3135,-2.3135,-2.3135,-2.3135,-2.3135,-2.3135,-2.3135,-2.3135,-2.2959,-2.2598,-2.2598,-2.2412,-2.2051,-2.2051,-2.2051,-2.7858,-2.8725,-2.9792,-2.9792,-2.9792,-2.9716,-2.9428,-2.8273,0.0,0.0,0.0,-2.2937,-2.304,-2.3602,0.0,-2.6804,0.0,0.0,0.0,0.0,-2.9334,0.0,0.0,0.0,0.0,0.0,0.0,0.0,0.0,-2.8481,-2.8743,-2.8743,-2.851,-2.7945,-2.7683,-2.7494,-2.7315,-2.8215,-2.8215,-2.7315,-2.8319,-2.7662,-2.5732,-2.7851,-2.7536,-2.541,-2.6747,0.0,-2.542,-2.5644,-2.5742,-2.5742,-2.5742,-2.5742,-2.5742,-2.5742,-2.5742,-2.5742,-2.5742,-2.5742,-2.5742,-2.5742,-2.5742,-2.5742,-2.5742,-2.5742,-2.5742,-2.5742,-2.5742,-2.5742,-2.5742,-2.5742,-2.5742,-2.5742,-2.5449,-2.5166,-2.5088,-2.4453,-2.374,-2.3242,-2.3135,-2.3135,-2.3135,-2.3135,-2.3135,-2.3135,-2.3135,-2.3135,-2.3135,-2.3135,-2.3135,-2.3135,-2.3135,-2.3135,-2.3135,-2.3135,-2.3135,-2.3135,-2.3135,-2.3135,-2.3135,-2.3135,-2.3135,-2.3135,-2.3135,-2.3105,-2.3027,-2.3027,-2.2988,-2.292,-2.292,-2.292,-2.7507,-2.8511,-2.9792,-2.9792,-2.9792,-2.9264,-2.7243,0.0,0.0,0.0,0.0,-2.1091,-2.1355,0.0,0.0,0.0,0.0,0.0,0.0,0.0,0.0,0.0,0.0,0.0,0.0,0.0,0.0,0.0,0.0,-3.0119,-3.036,-3.0956,-3.0777,-2.9498,-2.9498,-2.9131,-2.8495,-2.9131,-2.9131,-2.8495,-2.9131,-2.8762,-2.7673,-2.8855,-2.8402,-2.6754,-2.7305,0.0,-2.4775,-2.5459,-2.5332,-2.4795,-2.5469,-2.5742,-2.5742,-2.5742,-2.5742,-2.5742,-2.5742,-2.5742,-2.5742,-2.5742,-2.5742,-2.5742,-2.5742,-2.5742,-2.5742,-2.5742,-2.5742,-2.5742,-2.5742,-2.5742,-2.5742,-2.5742,-2.5225,-2.4668,-2.4453,-2.3906,-2.3389,-2.3184,-2.3135,-2.3135,-2.3135,-2.3135,-2.3135,-2.3135,-2.3627,-2.38,-2.3135,-2.3637,-2.38,-2.3135,-2.3135,-2.3135,-2.3135,-2.3135,-2.3135,-2.3135,-2.3135,-2.3135,-2.3135,-2.3135,-2.3135,-2.3135,-2.3135,-2.3135,-2.3135,-2.3135,-2.3135,-2.3135,-2.3135,-2.3135,-2.762,-2.8699,-2.9792,-2.9792,-2.9792,-2.8875,-2.5335,-2.4594,0.0,0.0,-1.9597,-1.9811,-2.0413,0.0,0.0,0.0,0.0,0.0,0.0,0.0,0.0,0.0,0.0,0.0,0.0,0.0,0.0,0.0,0.0,0.0,-3.1616,-3.2326,-3.2239,-3.1223,-3.1223,-3.0765,-2.9761,-3.0045,-3.0045,-2.9772,-3.0045,-2.9772,-2.9039,-2.9863,-2.9131,-2.722,-2.7767,0.0,0.0,-2.5195,-2.4971,-2.3926,-2.5225,-2.5742,-2.5742,-2.5742,-2.5742,-2.5742,-2.5742,-2.5742,-2.5742,-2.5742,-2.5742,-2.5742,-2.5742,-2.5927,-2.611,-2.611,-2.6294,-2.6466,-2.6466,-2.6466,-2.6426,-2.6235,-2.5641,-2.4977,-2.4444,-2.3887,-2.3464,-2.3464,-2.3299,-2.3135,-2.3377,-2.3464,-2.3551,-2.381,-2.4553,-2.4882,-2.3973,-2.4638,-2.4713,-2.3551,-2.3222,-2.3135,-2.3135,-2.3135,-2.3135,-2.3135,-2.3135,-2.3135,-2.3135,-2.3135,-2.3135,-2.3135,-2.3135,-2.3135,-2.3135,-2.3135,-2.3135,-2.3135,-2.3135,-2.3135,-2.8235,-2.9277,-2.9792,-2.9792,-2.9792,-2.9164,-2.6779,0.0,0.0,-2.1656,-2.0112,-1.9861,-2.2372,-2.2874,0.0,0.0,0.0,0.0,0.0,0.0,0.0,0.0,0.0,0.0,0.0,0.0,0.0,0.0,0.0,0.0,-3.2884,-3.1952,-3.1311,-3.1223,-3.1223,-3.1134,-3.1045,-3.2152,-3.2152,-3.1033,-3.2239,-3.0968,-2.7861,-3.1235,-3.0226,-2.6014,-2.8215,0.0,0.0,-2.5195,-2.4971,-2.3926,-2.5225,-2.5742,-2.5742,-2.5742,-2.5742,-2.5742,-2.5742,-2.5742,-2.5742,-2.5742,-2.5742,-2.5742,-2.5742,-2.6476,-2.741,-2.741,-2.8226,-2.9039,-2.9039,-2.9039,-2.8818,-2.7922,-2.7645,-2.7325,-2.6406,-2.5411,-2.4617,-2.4617,-2.38,-2.3474,-2.4457,-2.4617,-2.4957,-2.6058,-2.6307,-2.6307,-2.6224,-2.6307,-2.5891,-2.4787,-2.3714,-2.3135,-2.3135,-2.3135,-2.3135,-2.3135,-2.3135,-2.3135,-2.3135,-2.3135,-2.3135,-2.3135,-2.3135,-2.3135,-2.3135,-2.3135,-2.3135,-2.3135,-2.3135,-2.3135,-2.59,-2.7833,-2.9792,-2.9792,-2.9792,-2.8863,-2.5272,0.0,0.0,-2.0125,-1.9258,-1.9409,-2.0865,-2.1129,-2.1933,0.0,0.0,0.0,0.0,0.0,0.0,0.0,0.0,0.0,0.0,0.0,0.0,0.0,0.0,0.0,-3.3031,-3.2612,-3.2326,-3.2326,-3.2326,-3.2326,-3.2326,-3.2884,-3.2884,-3.2326,-3.2884,-3.2339,-3.0968,-3.2426,-3.1601,-2.9028,-3.0033,0.0,0.0,-2.7009,-2.6615,-2.4723,-2.7062,-2.7484,-2.6849,-2.6849,-2.6849,-2.6849,-2.6849,-2.6849,-2.6849,-2.6849,-2.6294,-2.5742,-2.5742,-2.6014,-2.6476,-2.6476,-2.6839,-2.7389,-2.8132,-2.8866,-2.9239,-2.8544,-2.8152,-2.7738,-2.715,-2.6351,-2.5797,-2.5797,-2.5473,-2.5305,-2.5724,-2.5797,-2.5975,-2.6389,-2.7046,-2.7197,-2.6554,-2.7046,-2.7035,-2.5964,-2.4798,-2.3887,-2.3135,-2.3135,-2.3135,-2.3135,-2.3135,-2.3135,-2.3135,-2.3135,-2.3135,-2.3135,-2.3135,-2.3135,-2.3135,-2.3135,-2.3135,-2.3135,-2.3135,-2.3135,-2.4506,-2.6954,-2.9578,-2.9754,-2.9289,-2.7808,0.0,0.0,0.0,-1.8618,-1.8405,-1.8945,-1.9472,-1.9698,-2.0526,-2.2774,0.0,0.0,0.0,0.0,0.0,0.0,0.0,0.0,0.0,0.0,0.0,0.0,0.0,0.0,-3.3018,-3.3081,-3.3081,-3.3081,-3.3081,-3.3081,-3.3081,-3.3081,-3.3081,-3.3081,-3.3081,-3.2634,-3.1821,-3.2671,-3.1969,-3.001,-3.0832,0.0,0.0,-2.8365,-2.7917,-2.597,-2.8421,-2.8866,-2.8132,-2.8132,-2.8132,-2.8132,-2.8132,-2.8132,-2.8132,-2.8132,-2.7484,-2.6744,-2.6744,-2.6572,-2.639,-2.6648,-2.7295,-2.8132,-2.8958,-2.9875,-3.0334,-2.9683,-2.923,-2.8788,-2.8149,-2.7462,-2.6964,-2.6964,-2.6719,-2.6637,-2.6883,-2.6964,-2.7128,-2.7464,-2.8119,-2.8359,-2.7557,-2.8119,-2.8187,-2.7128,-2.6284,-2.5199,-2.3714,-2.3637,-2.3474,-2.3135,-2.3135,-2.3135,-2.3135,-2.3377,-2.3637,-2.3637,-2.3637,-2.3637,-2.3637,-2.3299,-2.3135,-2.3135,-2.3135,-2.3135,-2.4983,-2.7218,-2.9076,-2.9641,-2.8122,-2.59,0.0,0.0,0.0,-1.7727,-1.7827,-1.838,-1.8883,-1.9459,-2.0526,-2.2774,-2.3078,0.0,0.0,0.0,0.0,0.0,0.0,0.0,0.0,0.0,0.0,0.0,0.0,0.0,-3.3081,-3.3081,-3.3081,-3.3081,-3.3081,-3.3081,-3.3081,-3.3081,-3.3081,-3.3081,-3.3081,-3.1588,-2.8964,-3.1783,-3.0821,-2.7108,0.0,0.0,0.0,-2.8869,-2.8611,-2.7567,-2.8903,-2.9407,-2.9407,-2.9407,-2.9407,-2.9407,-2.9407,-2.9407,-2.9407,-2.9407,-2.9407,-2.9315,-2.9315,-2.8495,-2.7861,-2.9039,-3.1146,-3.3068,-3.3068,-3.3068,-3.2792,-3.1662,-3.1386,-3.1097,-3.003,-2.8858,-2.8084,-2.8084,-2.7209,-2.6801,-2.7924,-2.8084,-2.8426,-2.9624,-2.9792,-2.9792,-2.9792,-2.9792,-2.9365,-2.8176,-2.8084,-2.7186,-2.4957,-2.4787,-2.4296,-2.3135,-2.3135,-2.3135,-2.3135,-2.4211,-2.4787,-2.4787,-2.4787,-2.4787,-2.4787,-2.3627,-2.3135,-2.3135,-2.3135,-2.3135,-2.1443,-2.3263,-2.4943,-2.5197,-2.4707,-2.3602,-2.1368,0.0,0.0,-1.7714,-1.7526,-1.7928,-1.8857,-1.9171,-2.0125,-2.2652,-2.3078,0.0,0.0,0.0,0.0,0.0,0.0,0.0,0.0,0.0,0.0,0.0,0.0,0.0,-3.3018,-3.3081,-3.3081,-3.3081,-3.3081,-3.3081,-3.3081,-3.3081,-3.3081,-3.3081,-3.3081,-3.2034,-3.0072,-3.2147,-3.172,0.0,0.0,0.0,0.0,-3.1308,-3.1028,-2.974,-3.1345,-3.1412,-3.0676,-3.0676,-3.0676,-3.0676,-3.0676,-3.0676,-3.0676,-3.0676,-3.0033,-2.9407,-2.9407,-2.9131,-2.8947,-2.9315,-3.0586,-3.1777,-3.1777,-3.2426,-3.2893,-3.2127,-3.1662,-3.1198,-3.0507,-2.9808,-2.9275,-2.9275,-2.8961,-2.887,-2.9197,-2.9275,-2.9365,-2.9714,-2.9792,-2.9792,-2.9792,-2.9792,-2.9624,-2.9275,-2.9275,-2.8371,-2.6141,-2.5975,-2.5808,-2.5473,-2.5389,-2.5389,-2.5389,-2.5808,-2.5975,-2.5975,-2.5975,-2.5975,-2.5975,-2.4798,-2.3877,-2.3135,-2.3135,-2.3135,0.0,-2.1129,-2.2611,-2.3025,-2.2439,0.0,0.0,0.0,0.0,0.0,-1.789,-1.8643,-1.8706,-1.9572,-2.0614,-2.1707,-2.3288,0.0,0.0,0.0,0.0,0.0,0.0,0.0,0.0,0.0,0.0,0.0,0.0,0.0,-3.3018,-3.3081,-3.3081,-3.3081,-3.3081,-3.3081,-3.3081,-3.3081,-3.3081,-3.3081,-3.3081,-3.2215,-3.067,-3.2328,-3.2177,0.0,0.0,0.0,0.0,-3.2654,-3.2466,-3.165,-3.2679,-3.2612,-3.1965,-3.1965,-3.1965,-3.1965,-3.1965,-3.1965,-3.1965,-3.1965,-3.1412,-3.0777,-3.0777,-3.0496,-3.0045,-3.0045,-3.0956,-3.1965,-3.1965,-3.2364,-3.2604,-3.2039,-3.1486,-3.0947,-3.0419,-3.003,-2.9792,-2.9792,-2.9792,-2.9792,-2.9792,-2.9792,-2.9792,-2.9792,-2.9792,-2.9792,-2.9792,-2.9792,-2.9792,-2.9792,-2.9792,-2.9209,-2.7879,-2.7383,-2.6964,-2.6565,-2.6483,-2.6483,-2.6483,-2.6883,-2.7128,-2.7128,-2.7128,-2.7128,-2.7128,-2.5535,-2.4457,-2.3714,-2.3714,-2.3714,0.0,0.0,0.0,0.0,0.0,0.0,0.0,0.0,0.0,0.0,0.0,0.0,0.0,-2.0627,-2.1933,-2.025,0.0,0.0,0.0,0.0,0.0,0.0,0.0,0.0,0.0,0.0,0.0,0.0,0.0,0.0,-3.3081,-3.3081,-3.3081,-3.3081,-3.3081,-3.3081,-3.3081,-3.3081,-3.3018,-3.2905,-3.3018,-3.2152,-3.0495,-3.2265,-3.2177,0.0,0.0,0.0,0.0,-3.3081,-3.3081,-3.3081,-3.3081,-3.3081,-3.3081,-3.3081,-3.3081,-3.3081,-3.3081,-3.3081,-3.3081,-3.3081,-3.3081,-3.3081,-3.3081,-3.2239,-3.1311,-3.1311,-3.2152,-3.3068,-3.3031,-3.2616,-3.2064,-3.1474,-3.0972,-3.047,-2.9917,-2.9792,-2.9792,-2.9792,-2.9792,-2.9792,-2.9792,-2.9792,-2.9792,-2.9792,-2.9792,-2.9792,-2.9792,-2.9792,-2.9792,-2.9792,-2.9792,-2.9792,-2.9792,-2.8858,-2.7775,-2.6812,-2.673,-2.673,-2.673,-2.7695,-2.8255,-2.8255,-2.8255,-2.8176,-2.8096,-2.6025,-2.5041,-2.4957,-2.4957,-2.4872,-1.7036,0.0,-1.7652,-1.7488,-1.7363,0.0,0.0,0.0,0.0,0.0,0.0,0.0,0.0,0.0,0.0,0.0,0.0,0.0,0.0,0.0,0.0,0.0,0.0,0.0,0.0,0.0,0.0,0.0,0.0,-3.3081,-3.3081,-3.3081,-3.3081,-3.3081,-3.3081,-3.3081,-3.3081,-3.3081,-3.2441,-3.121,-3.2478,-3.1537,-2.88,-3.1738,-3.2177,0.0,0.0,0.0,-3.3081,-3.3081,-3.3081,-3.3081,-3.3081,-3.3081,-3.3081,-3.3081,-3.3081,-3.3081,-3.3081,-3.3081,-3.3081,-3.3081,-3.3081,-3.3081,-3.3081,-3.2884,-3.2612,-3.2612,-3.2884,-3.2968,-3.2528,-3.2315,-3.1976,-3.1022,-3.0708,-3.047,-2.9917,-2.9792,-2.9792,-2.9792,-2.9792,-2.9792,-2.9792,-2.9792,-2.9792,-2.9792,-2.9792,-2.9792,-2.9792,-2.9792,-2.9792,-2.9792,-2.9792,-2.9792,-2.9792,-2.9534,-2.9287,-2.904,-2.904,-2.904,-2.904,-2.9287,-2.9365,-2.9365,-2.9365,-2.8937,-2.8096,-2.7591,-2.686,-2.6141,-2.6141,-2.563,-1.6132,-1.6321,-1.6685,-1.74,-1.7237,-1.7112,0.0,0.0,0.0,0.0,0.0,0.0,0.0,0.0,0.0,0.0,0.0,0.0,0.0,0.0,0.0,0.0,0.0,0.0,0.0,0.0,0.0,0.0,0.0,-3.3081,-3.3081,-3.3081,-3.3081,-3.3081,-3.3081,-3.3081,-3.3081,-3.3081,-3.2252,-3.0633,-3.229,-3.1738,-2.934,-3.1913,-3.2591,0.0,0.0,0.0,-3.3018,-3.2265,-3.2403,-3.3081,-3.3081,-3.3081,-3.3081,-3.3081,-3.3081,-3.3081,-3.3081,-3.3081,-3.3081,-3.3081,-3.3081,-3.3081,-3.3081,-3.2893,-3.2679,-3.2679,-3.2679,-3.2554,-3.1989,-3.1662,-3.1336,-3.0758,-3.0419,-3.0156,-2.9854,-2.9792,-2.9792,-2.9792,-2.9792,-2.9792,-2.9792,-2.9792,-2.9792,-2.9792,-2.9792,-2.9792,-2.9792,-2.9792,-2.9792,-2.9792,-2.9792,-2.9792,-2.9792,-2.9792,-2.9792,-2.9792,-2.9792,-2.9792,-2.9792,-2.9792,-2.9792,-2.9792,-2.9792,-2.9275,-2.8096,-2.8096,-2.7763,-2.7197,-2.7197,-2.686,-1.5957,-1.622,-1.7137,-1.9183,-1.8518,-1.7802,0.0,0.0,0.0,0.0,0.0,0.0,0.0,0.0,0.0,0.0,0.0,0.0,0.0,0.0,0.0,0.0,0.0,0.0,0.0,0.0,0.0,0.0,0.0,-3.3081,-3.3081,-3.3081,-3.3081,-3.3081,-3.3081,-3.3081,-3.3081,-3.3081,-3.2252,-3.0633,-3.229,-3.2215,-3.067,-3.2328,-3.3081,-3.3006,0.0,0.0,-3.2968,-3.1574,-3.1813,-3.3081,-3.3081,-3.3081,-3.3081,-3.3081,-3.3081,-3.3081,-3.3081,-3.3081,-3.3081,-3.3081,-3.3018,-3.2943,-3.2943,-3.2541,-3.2077,-3.1989,-3.2026,-3.1964,-3.1411,-3.0947,-3.0595,-3.0507,-3.0131,-2.9792,-2.9792,-2.9792,-2.9792,-2.9792,-2.9792,-2.9792,-2.9792,-2.9792,-2.9792,-2.9792,-2.9792,-2.9792,-2.9792,-2.9792,-2.9792,-2.9792,-2.9792,-2.9792,-2.9792,-2.9792,-2.9792,-2.9792,-2.9792,-2.9792,-2.9792,-2.9792,-2.9792,-2.9792,-2.9792,-2.9287,-2.8347,-2.8347,-2.8347,-2.8347,-2.8347,-2.8255,-1.6409,-1.681,-1.7551,-1.8832,-1.8254,-1.7802,0.0,0.0,0.0,0.0,0.0,0.0,0.0,0.0,0.0,0.0,0.0,0.0,0.0,0.0,0.0,0.0,0.0,0.0,0.0,0.0,0.0,0.0,0.0,-3.3081,-3.3081,-3.3081,-3.3081,-3.3081,-3.3081,-3.3081,-3.3081,-3.3081,-3.2252,-3.0633,-3.229,-3.2215,-3.067,-3.2328,-3.3081,-3.3068,0.0,-3.2842,-3.3056,-3.2805,-3.2855,-3.3081,-3.3081,-3.3081,-3.3081,-3.3081,-3.3081,-3.3081,-3.3081,-3.3081,-3.3081,-3.3081,-3.2742,-3.234,-3.234,-3.1964,-3.1424,-3.0984,-3.1173,-3.1399,-3.0871,-3.067,-3.0507,-3.003,-2.9854,-2.9792,-2.9792,-2.9792,-2.9792,-2.9792,-2.9792,-2.9792,-2.9792,-2.9792,-2.9792,-2.9792,-2.9792,-2.9792,-2.9792,-2.9792,-2.9792,-2.9792,-2.9792,-2.9792,-2.9792,-2.9792,-2.9792,-2.9792,-2.9792,-2.9792,-2.9792,-2.9792,-2.9792,-2.9792,-2.9792,-2.9702,-2.9534,-2.9534,-2.9534,-2.9534,-2.9534,-2.9028,-1.6522,-1.7149,-1.838,-2.0677,-1.9296,-1.8442,-2.2472,0.0,0.0,0.0,0.0,0.0,0.0,0.0,0.0,0.0,0.0,0.0,0.0,0.0,0.0,0.0,0.0,0.0,0.0,0.0,0.0,0.0,0.0,0.0,-3.3081,-3.3081,-3.3081,-3.3081,-3.3081,-3.3081,-3.3081,-3.3081,-3.2252,-3.0633,-3.229,-3.2215,-3.067,-3.2328,-3.3081,-3.3031,0.0,-3.2252,-3.3006,-3.2114,-3.2265,-3.3081,-3.3081,-3.3081,-3.3081,-3.3081,-3.3081,-3.3081,-3.3081,-3.2867,-3.2604,-3.2604,-3.2227,-3.1763,-3.1763,-3.1399,-3.0922,-3.0683,-3.0783,-3.0846,-3.0319,-3.0168,-3.0105,-2.9854,-2.9792,-2.9792,-2.9792,-2.9792,-2.9792,-2.9792,-2.9792,-2.9792,-2.9792,-2.9792,-2.9792,-2.9792,-2.9792,-2.9792,-2.9792,-2.9792,-2.9792,-2.9792,-2.9792,-2.9792,-2.9792,-2.9792,-2.9792,-2.9792,-2.9792,-2.9792,-2.9792,-2.9792,-2.9792,-2.9792,-2.9792,-2.9792,-2.9792,-2.9792,-2.9792,-2.9792,-2.9792,-2.9534,-1.6522,-1.7149,-1.8543,-2.1594,0.0,-1.9133,-2.5161,0.0,0.0,0.0,0.0,0.0,0.0,0.0,0.0,0.0,0.0,0.0,0.0,0.0,0.0,0.0,0.0,0.0,0.0,0.0,0.0,0.0,0.0,0.0,-3.3081,-3.3081,-3.3081,-3.3081,-3.3081,-3.3081,-3.3081,-3.3081,-3.2441,-3.121,-3.2478,-3.2416,-3.1235,-3.2503,-3.3081,-3.3006,-3.1738,-3.1901,-3.298,-3.1712,-3.1938,-3.3081,-3.3081,-3.3081,-3.3056,-3.2918,-3.288,-3.2855,-3.2729,-3.239,-3.2026,-3.2026,-3.165,-3.121,-3.121,-3.0846,-3.0419,-3.0419,-3.0419,-3.0331,-2.9905,-2.9792,-2.9792,-2.9792,-2.9792,-2.9792,-2.9792,-2.9792,-2.9792,-2.9792,-2.9792,-2.9792,-2.9792,-2.9792,-2.9792,-2.9792,-2.9792,-2.9792,-2.9792,-2.9792,-2.9792,-2.9792,-2.9792,-2.9792,-2.9792,-2.9792,-2.9792,-2.9792,-2.9792,-2.9792,-2.9792,-2.9792,-2.9792,-2.9792,-2.9792,-2.9792,-2.9792,-2.9792,-2.9792,-2.9792,-2.9792,-2.9792,-1.6522,-1.6572,-1.7187,-1.9472,0.0,0.0,-2.5184,-2.1776,0.0,0.0,0.0,0.0,0.0,0.0,0.0,0.0,0.0,0.0,0.0,0.0,0.0,0.0,0.0,0.0,0.0,0.0,0.0,0.0,0.0,0.0,-3.3081,-3.3081,-3.3081,-3.3081,-3.3081,-3.3081,-3.3081,-3.3081,-3.3018,-3.2905,-3.3018,-3.3018,-3.2905,-3.3018,-3.3081,-3.3068,-3.2955,-3.2968,-3.3068,-3.2955,-3.2968,-3.3081,-3.3081,-3.3081,-3.3006,-3.2466,-3.2277,-3.2202,-3.1687,-3.1486,-3.1449,-3.1449,-3.1097,-3.067,-3.067,-3.0281,-2.9854,-2.9854,-2.9854,-2.9842,-2.9804,-2.9792,-2.9792,-2.9792,-2.9792,-2.9792,-2.9792,-2.9792,-2.9792,-2.9792,-2.9792,-2.9792,-2.9792,-2.9792,-2.9792,-2.9792,-2.9792,-2.9792,-2.9792,-2.9792,-2.9792,-2.9792,-2.9792,-2.9792,-2.9792,-2.9792,-2.9792,-2.9792,-2.9792,-2.9792,-2.9792,-2.9792,-2.9792,-2.9792,-2.9792,-2.9792,-2.9792,-2.9792,-2.9792,-2.9792,-2.9792,-2.9792,-1.6522,-1.6773,-1.7827,-2.1066,0.0,0.0,0.0,0.0,0.0,0.0,0.0,0.0,0.0,0.0,0.0,0.0,0.0,0.0,0.0,0.0,0.0,0.0,0.0,0.0,0.0,0.0,0.0,0.0,0.0,0.0,-3.3081,-3.3081,-3.3081,-3.3081,-3.3081,-3.3081,-3.3081,-3.3081,-3.3081,-3.3081,-3.3081,-3.3081,-3.3081,-3.3081,-3.288,-3.2541,-3.2541,-3.234,-3.2026,-3.2026,-3.2026,-3.2026,-3.2026,-3.2026,-3.2001,-3.1788,-3.17,-3.1675,-3.1461,-3.1173,-3.0909,-3.0909,-3.0545,-3.0105,-3.0105,-2.9955,-2.9792,-2.9792,-2.9792,-2.9792,-2.9792,-2.9792,-2.9792,-2.9792,-2.9792,-2.9792,-2.9792,-2.9792,-2.9792,-2.9792,-2.9792,-2.9792,-2.9792,-2.9792,-2.9792,-2.9792,-2.9792,-2.9792,-2.9792,-2.9792,-2.9792,-2.9792,-2.9792,-2.9792,-2.9792,-2.9792,-2.9792,-2.9792,-2.9792,-2.9792,-2.9792,-2.9792,-2.9792,-2.9792,-2.9792,-2.9792,-2.9792,-2.9792,-2.9792,-2.9792,-2.9792,-2.9792,-1.6308,-1.6672,-1.7877,0.0,0.0,0.0,0.0,0.0,0.0,0.0,0.0,0.0,0.0,0.0,0.0,0.0,0.0,0.0,0.0,0.0,0.0,0.0,0.0,0.0,0.0,0.0,0.0,0.0,0.0,0.0,0.0,-3.298,-3.2993,-3.2805,-3.2805,-3.2717,-3.2541,-3.2541,-3.2541,-3.2541,-3.2541,-3.2629,-3.2805,-3.2629,-3.2328,-3.1951,-3.1951,-3.1738,-3.1386,-3.1386,-3.1386,-3.1386,-3.1386,-3.1386,-3.1373,-3.121,-3.1148,-3.1122,-3.0947,-3.0645,-3.0357,-3.0357,-3.0093,-2.9792,-2.9792,-2.9792,-2.9792,-2.9792,-2.9792,-2.9792,-2.9792,-2.9792,-2.9792,-2.9792,-2.9792,-2.9792,-2.9792,-2.9792,-2.9792,-2.9792,-2.9792,-2.9792,-2.9792,-2.9792,-2.9792,-2.9792,-2.9792,-2.9792,-2.9792,-2.9792,-2.9792,-2.9792,-2.9792,-2.9792,-2.9792,-2.9792,-2.9792,-2.9792,-2.9792,-2.9792,-2.9792,-2.9792,-2.9792,-2.9792,-2.9792,-2.9792,-2.9792,-2.9792,-2.9792,-2.9792,-2.9792,-2.9792,-1.5869,-1.6107,0.0,0.0,0.0,0.0,0.0,0.0,0.0,0.0,0.0,0.0,0.0,0.0,0.0,0.0,0.0,0.0,0.0,0.0,0.0,0.0,0.0,0.0,0.0,0.0,0.0,0.0,0.0,0.0,0.0,-3.2754,-3.2805,-3.2227,-3.2202,-3.1938,-3.1399,-3.1386,-3.1386,-3.1386,-3.1386,-3.1675,-3.219,-3.1637,-3.1386,-3.1386,-3.1386,-3.1386,-3.1373,-3.1373,-3.1373,-3.1373,-3.1373,-3.1373,-3.1311,-3.0796,-3.0608,-3.0532,-2.998,-2.9792,-2.9792,-2.9792,-2.9792,-2.9792,-2.9792,-2.9792,-2.9792,-2.9792,-2.9792,-2.9792,-2.9792,-2.9792,-2.9792,-2.9792,-2.9792,-2.9792,-2.9792,-2.9792,-2.9792,-2.9792,-2.9792,-2.9792,-2.9792,-2.9792,-2.9792,-2.9792,-2.9792,-2.9792,-2.9792,-2.9792,-2.9792,-2.9792,-2.9792,-2.9792,-2.9792,-2.9792,-2.9792,-2.9792,-2.9792,-2.9792,-2.9792,-2.9792,-2.9792,-2.9792,-2.9792,-2.9792,-2.9792,-2.9792,-2.9792,-2.9792,-2.9792,-2.9792,-1.7765,0.0,0.0,0.0,0.0,0.0,0.0,0.0,0.0,0.0,0.0,0.0,0.0,0.0,0.0,0.0,0.0,0.0,0.0,0.0,0.0,0.0,0.0,0.0,0.0,0.0,0.0,0.0,0.0,0.0,0.0,-3.18,-3.1813,-3.1637,-3.1637,-3.1549,-3.1386,-3.1386,-3.1386,-3.1386,-3.1022,-3.1122,-3.1625,-3.1461,-3.1185,-3.0846,-3.0846,-3.062,-3.0269,-3.0269,-3.0269,-3.0269,-3.0269,-3.0269,-3.0244,-3.0093,-3.0043,-3.0018,-2.9854,-2.9792,-2.9792,-2.9792,-2.9792,-2.9792,-2.9792,-2.9792,-2.9792,-2.9792,-2.9792,-2.9792,-2.9792,-2.9792,-2.9792,-2.9792,-2.9792,-2.9792,-2.9792,-2.9792,-2.9792,-2.9792,-2.9792,-2.9792,-2.9792,-2.9792,-2.9792,-2.9792,-2.9792,-2.9792,-2.9792,-2.9792,-2.9792,-2.9792,-2.9792,-2.9792,-2.9792,-2.9792,-2.9792,-2.9792,-2.9792,-2.9792,-2.9792,-2.9792,-2.9792,-2.9792,-2.9792,-2.9792,-2.9792,-2.9792,-2.9792,-2.9792,-2.9792,-2.9792,-1.8154,0.0,0.0,0.0,0.0,0.0,0.0,0.0,0.0,0.0,0.0,0.0,0.0,0.0,0.0,0.0,0.0,0.0,0.0,0.0,0.0,0.0,0.0,0.0,0.0,0.0,0.0,0.0,0.0,0.0,0.0,-3.1273,-3.1298,-3.1085,-3.1085,-3.0972,-3.0758,-3.0758,-3.0758,-3.0746,-3.0444,-3.0444,-3.0758,-3.0758,-3.0583,-3.0281,-3.0281,-3.0093,-2.9792,-2.9792,-2.9792,-2.9792,-2.9792,-2.9792,-2.9792,-2.9792,-2.9792,-2.9792,-2.9792,-2.9792,-2.9792,-2.9792,-2.9792,-2.9792,-2.9792,-2.9792,-2.9792,-2.9792,-2.9792,-2.9792,-2.9792,-2.9792,-2.9792,-2.9792,-2.9792,-2.9792,-2.9792,-2.9792,-2.9792,-2.9792,-2.9792,-2.9792,-2.9792,-2.9792,-2.9792,-2.9792,-2.9792,-2.9792,-2.9792,-2.9792,-2.9792,-2.9792,-2.9792,-2.9792,-2.9792,-2.9792,-2.9792,-2.9792,-2.9792,-2.9792,-2.9792,-2.9792,-2.9792,-2.9792,-2.9792,-2.9792,-2.9792,-2.9792,-2.9792,-2.9792,-2.9792,-2.9792,0.0,0.0,0.0,0.0,0.0,0.0,0.0,0.0,0.0,0.0,0.0,0.0,0.0,0.0,0.0,0.0,0.0,0.0,0.0,0.0,0.0,0.0,0.0,0.0,0.0,0.0,0.0,0.0,0.0,0.0,0.0,-3.0984,-3.1035,-3.0557,-3.0545,-3.0306,-2.9792,-2.9792,-2.9792,-2.9792,-2.9792,-2.9792,-2.9792,-2.9792,-2.9792,-2.9792,-2.9792,-2.9792,-2.9792,-2.9792,-2.9792,-2.9792,-2.9792,-2.9792,-2.9792,-2.9792,-2.9792,-2.9792,-2.9792,-2.9792,-2.9792,-2.9792,-2.9792,-2.9792,-2.9792,-2.9792,-2.9792,-2.9792,-2.9792,-2.9792,-2.9792,-2.9792,-2.9792,-2.9792,-2.9792,-2.9792,-2.9792,-2.9792,-2.9792,-2.9792,-2.9792,-2.9792,-2.9792,-2.9792,-2.9792,-2.9792,-2.9792,-2.9792,-2.9792,-2.9792,-2.9792,-2.9792,-2.9792,-2.9792,-2.9792,-2.9792,-2.9792,-2.9792,-2.9792,-2.9792,-2.9792,-2.9792,-2.9792,-2.9792,-2.9792,-2.9792,-2.9792,-2.9792,-2.9792,-2.9792,-2.9792,-2.9792,0.0,0.0,0.0,0.0,0.0,0.0,0.0,0.0,0.0,0.0,0.0,0.0,0.0,0.0,0.0,0.0,0.0,0.0,0.0,0.0,0.0,0.0,0.0,0.0,0.0,0.0,0.0,0.0,0.0,0.0,-2.9967,-3.008,-3.008,-2.998,-2.9967,-2.9917,-2.9792,-2.9792,-2.9792,0.0,-2.9792,-2.9792,-2.9792,-2.9792,-2.9792,-2.9792,-2.9792,-2.9792,-2.9792,-2.9792,-2.9792,-2.9792,-2.9792,-2.9792,-2.9792,-2.9792,-2.9792,-2.9792,-2.9792,-2.9792,-2.9792,-2.9792,-2.9792,-2.9792,-2.9792,-2.9792,-2.9792,-2.9792,-2.9792,-2.9792,-2.9792,-2.9792,-2.9792,-2.9792,-2.9792,-2.9792,-2.9792,-2.9792,-2.9792,-2.9792,-2.9792,-2.9792,-2.9792,-2.9792,-2.9792,-2.9792,-2.9792,-2.9792,-2.9792,-2.9792,-2.9792,-2.9792,-2.9792,-2.9792,-2.9792,-2.9792,-2.9792,-2.9792,-2.9792,-2.9792,-2.9792,-2.9792,-2.9792,-2.9792,-2.9792,-2.9792,-2.9792,-2.9792,-2.9792,-2.9792,-2.9792,-2.9792,0.0,0.0,0.0,0.0,0.0,0.0,0.0,0.0,0.0,0.0,0.0,0.0,0.0,0.0,0.0,0.0,0.0,0.0,0.0,0.0,0.0,0.0,0.0,0.0,0.0,0.0,0.0,0.0,0.0,-2.9792,-2.9792,-2.9792,-2.9792,-2.9792,-2.9792,-2.9792,-2.9792,-2.9792,-2.9792,-2.9792,-2.9792,-2.9792,-2.9792,-2.9792,-2.9792,-2.9792,-2.9792,-2.9792,-2.9792,-2.9792,-2.9792,-2.9792,-2.9792,-2.9792,-2.9792,-2.9792,-2.9792,-2.9792,-2.9792,-2.9792,-2.9792,-2.9792,-2.9792,-2.9792,-2.9792,-2.9792,-2.9792,-2.9792,-2.9792,-2.9792,-2.9792,-2.9792,-2.9792,-2.9792,-2.9792,-2.9792,-2.9792,-2.9792,-2.9792,-2.9792,-2.9792,-2.9792,-2.9792,-2.9792,-2.9792,-2.9792,-2.9792,-2.9792,-2.9792,-2.9792,-2.9792,-2.9792,-2.9792,-2.9792,-2.9792,-2.9792,-2.9792,-2.9792,-2.9792,-2.9792,-2.9792,-2.9792,-2.9792,-2.9792,-2.9792,-2.9792,-2.9792,-2.9792,-2.9792,-2.9792,-2.9792,-2.9792,0.0,0.0,0.0,0.0,0.0,0.0,0.0,0.0,0.0,0.0,0.0,0.0,0.0,0.0,0.0,0.0,0.0,0.0,0.0,0.0,0.0,0.0,0.0,0.0,0.0,0.0,0.0,0.0,0.0,-2.9792,-2.9792,-2.9792,-2.9792,-2.9792,-2.9792,-2.9792,-2.9792,-2.9792,-2.9792,-2.9792,-2.9792,-2.9792,-2.9792,-2.9792,-2.9792,-2.9792,-2.9792,-2.9792,-2.9792,-2.9792,-2.9792,-2.9792,-2.9792,-2.9792,-2.9792,-2.9792,-2.9792,-2.9792,-2.9792,-2.9792,-2.9792,-2.9792,-2.9792,-2.9792,-2.9792,-2.9792,-2.9792,-2.9792,-2.9792,-2.9792,-2.9792,-2.9792,-2.9792,-2.9792,-2.9792,-2.9792,-2.9792,-2.9792,-2.9792,-2.9792,-2.9792,-2.9792,-2.9792,-2.9792,-2.9792,-2.9792,-2.9792,-2.9792,-2.9792,-2.9792,-2.9792,-2.9792,-2.9792,-2.9792,-2.9792,-2.9792,-2.9792,-2.9792,-2.9792,-2.9792,-2.9792,-2.9792,-2.9792,-2.9792,-2.9792,-2.9792,-2.9792,-2.9792,-2.9792,-2.9792,-2.9792,-2.9792,0.0,0.0,0.0,0.0,0.0,0.0,0.0,0.0,0.0,0.0,0.0,0.0,0.0,0.0,0.0,0.0,0.0,0.0,0.0,0.0,0.0,0.0,0.0,0.0,0.0,0.0,0.0,0.0,-2.9792,-2.9792,-2.9792,-2.9792,-2.9792,-2.9792,-2.9792,-2.9792,-2.9792,-2.9792,-2.9792,-2.9792,-2.9792,-2.9792,-2.9792,-2.9792,-2.9792,-2.9792,-2.9792,-2.9792,-2.9792,-2.9792,-2.9792,-2.9792,-2.9792,-2.9792,-2.9792,-2.9792,-2.9792,-2.9792,-2.9792,-2.9792,-2.9792,-2.9792,-2.9792,-2.9792,-2.9792,-2.9792,-2.9792,-2.9792,-2.9792,-2.9792,-2.9792,-2.9792,-2.9792,-2.9792,-2.9792,-2.9792,-2.9792,-2.9792,-2.9792,-2.9792,-2.9792,-2.9792,-2.9792,-2.9792,-2.9792,-2.9792,-2.9792,-2.9792,-2.9792,-2.9792,-2.9792,-2.9792,-2.9792,-2.9792,-2.9792,-2.9792,-2.9792,-2.9792,-2.9792,-2.9792,-2.9792,-2.9792,-2.9792,-2.9792,-2.9792,-2.9792,-2.9792,-2.9792,-2.9792,-2.9792,-2.9792,-2.9792,0.0,0.0,0.0,0.0,0.0,0.0,0.0,0.0,0.0,0.0,0.0,0.0,0.0,0.0,0.0,0.0,0.0,0.0,0.0,0.0,0.0,0.0,0.0,0.0,0.0,0.0,0.0,0.0,-2.9792,-2.9792,-2.9792,-2.9792,-2.9792,-2.9792,-2.9792,-2.9792,-2.9792,-2.9792,-2.9792,-2.9792,-2.9792,-2.9792,-2.9792,-2.9792,-2.9792,-2.9792,-2.9792,-2.9792,-2.9792,-2.9792,-2.9792,-2.9792,-2.9792,-2.9792,-2.9792,-2.9792,-2.9792,-2.9792,-2.9792,-2.9792,-2.9792,-2.9792,-2.9792,-2.9792,-2.9792,-2.9792,-2.9792,-2.9792,-2.9792,-2.9792,-2.9792,-2.9792,-2.9792,-2.9792,-2.9792,-2.9792,-2.9792,-2.9792,-2.9792,-2.9792,-2.9792,-2.9792,-2.9792,-2.9792,-2.9792,-2.9792,-2.9792,-2.9792,-2.9792,-2.9792,-2.9792,-2.9792,-2.9792,-2.9792,-2.9792,-2.9792,-2.9792,-2.9792,-2.9792,-2.9792,-2.9792,-2.9792,-2.9792,-2.9792,-2.9792,-2.9792,-2.9792,-2.9792,-2.9792,-2.9792,-2.9792,-2.9792,0.0,0.0,0.0,0.0,0.0,0.0,0.0,0.0,0.0,0.0,0.0,0.0,0.0,0.0,0.0,0.0,0.0,0.0,0.0,0.0,0.0,0.0,0.0,0.0,0.0,0.0,0.0,0.0,-2.9792,-2.9792,-2.9792,-2.9792,-2.9792,-2.9792,-2.9792,-2.9792,-2.9792,-2.9792,-2.9792,-2.9792,-2.9792,-2.9792,-2.9792,-2.9792,-2.9792,-2.9792,-2.9792,-2.9792,-2.9792,-2.9792,-2.9792,-2.9792,-2.9792,-2.9792,-2.9792,-2.9792,-2.9792,-2.9792,-2.9792,-2.9792,-2.9792,-2.9792,-2.9792,-2.9792,-2.9792,-2.9792,-2.9792,-2.9792,-2.9792,-2.9792,-2.9792,-2.9792,-2.9792,-2.9792,-2.9792,-2.9792,-2.9792,-2.9792,-2.9792,-2.9792,-2.9792,-2.9792,-2.9792,-2.9792,-2.9792,-2.9792,-2.9792,-2.9792,-2.9792,-2.9792,-2.9792,-2.9792,-2.9792,-2.9792,-2.9792,-2.9792,-2.9792,-2.9792,-2.9792,-2.9792,-2.9792,-2.9792,-2.9792,-2.9792,-2.9792,-2.9792,-2.9792,-2.9792,-2.9792,-2.9792,-2.9792,-2.9792,0.0,0.0,0.0,0.0,0.0,0.0,0.0,0.0,0.0,0.0,0.0,0.0,0.0,0.0,0.0,0.0,0.0,0.0,0.0,0.0,0.0,0.0,0.0,0.0,0.0,0.0,0.0,0.0,-2.9792,-2.9792,-2.9792,-2.9792,-2.9792,-2.9792,-2.9792,-2.9792,-2.9792,-2.9792,-2.9792,-2.9792,-2.9792,-2.9792,-2.9792,-2.9792,-2.9792,-2.9792,-2.9792,-2.9792,-2.9792,-2.9792,-2.9792,-2.9792,-2.9792,-2.9792,-2.9792,-2.9792,-2.9792,-2.9792,-2.9792,-2.9792,-2.9792,-2.9792,-2.9792,-2.9792,-2.9792,-2.9792,-2.9792,-2.9792,-2.9792,-2.9792,-2.9792,-2.9792,-2.9792,-2.9792,-2.9792,-2.9792,-2.9792,-2.9792,-2.9792,-2.9792,-2.9792,-2.9792,-2.9792,-2.9792,-2.9792,-2.9792,-2.9792,-2.9792,-2.9792,-2.9792,-2.9792,-2.9792,-2.9792,-2.9792,-2.9792,-2.9792,-2.9792,-2.9792,-2.9792,-2.9792,-2.9792,-2.9792,-2.9792,-2.9792,-2.9792,-2.9792,-2.9792,-2.9792,-2.9792,-2.9792,-2.9792,-2.9792,0.0,0.0,0.0,0.0,0.0,0.0,0.0,0.0,0.0,0.0,0.0,0.0,0.0,0.0,0.0,0.0,0.0,0.0,0.0,0.0,0.0,0.0,0.0,0.0,0.0,0.0,0.0,0.0,0.0,-2.8273,-2.9716,-2.8436,-2.831,-2.9754,-2.9792,-2.9792,-2.9792,-2.9792,-2.9792,-2.9792,-2.9792,-2.9792,-2.9792,-2.9792,-2.9792,-2.9792,-2.9792,-2.9792,-2.9792,-2.9792,-2.9792,-2.9792,-2.9792,-2.9792,-2.9792,-2.9792,-2.9553,-2.9239,-2.9239,-2.9013,-2.8712,-2.8712,-2.8712,-2.8712,-2.8712,-2.8712,-2.8712,-2.8712,-2.8712,-2.88,-2.9151,-2.9239,-2.934,-2.9704,-2.9792,-2.9792,-2.9792,-2.9792,-2.9792,-2.9792,-2.9792,-2.9792,-2.9792,-2.9792,-2.9792,-2.9792,-2.9792,-2.9792,-2.9792,-2.9792,-2.9792,-2.9792,-2.9792,-2.9792,-2.9792,-2.9792,-2.9792,-2.9792,-2.9792,-2.9792,-2.9792,-2.9792,-2.9792,-2.9792,-2.9792,-2.9792,-2.9792,-2.9792,-2.9792,-2.9792,-2.9792,-2.9792,0.0,0.0,0.0,0.0,0.0,0.0,0.0,0.0,0.0,0.0,0.0,0.0,0.0,0.0,0.0,0.0,0.0,0.0,0.0,0.0,0.0,0.0,0.0,0.0,0.0,0.0,0.0,0.0,0.0,0.0,-2.9716,-2.8386,-2.826,-2.9741,-2.9792,-2.9792,-2.9792,-2.9792,-2.9792,-2.9792,-2.9792,-2.9792,-2.9792,-2.9792,-2.9792,-2.9792,-2.9792,-2.9792,-2.9792,-2.9792,-2.9792,-2.9792,-2.9792,-2.9679,-2.9503,-2.9503,-2.9139,-2.8649,-2.8649,-2.8411,-2.8109,-2.8109,-2.8109,-2.8109,-2.8109,-2.8109,-2.8109,-2.8109,-2.8109,-2.8185,-2.8561,-2.8649,-2.88,-2.9365,-2.9503,-2.9553,-2.9754,-2.9792,-2.9792,-2.9792,-2.9792,-2.9792,-2.9792,-2.9792,-2.9792,-2.9792,-2.9792,-2.9792,-2.9792,-2.9792,-2.9792,-2.9792,-2.9792,-2.9792,-2.9792,-2.9792,-2.9792,-2.9792,-2.9792,-2.9792,-2.9792,-2.9792,-2.9792,-2.9792,-2.9792,-2.9792,-2.9792,-2.9792,-2.9792,-2.9792,-2.9792,-2.9691,0.0,0.0,0.0,0.0,0.0,0.0,0.0,0.0,0.0,0.0,0.0,0.0,0.0,0.0,0.0,0.0,0.0,0.0,0.0,0.0,0.0,0.0,0.0,0.0,0.0,0.0,0.0,0.0,-2.9729,-2.9729,-2.9792,-2.9792,-2.9792,-2.9792,-2.9792,-2.9792,-2.9792,-2.9792,-2.9792,-2.9792,-2.9792,-2.9792,-2.9792,-2.9792,-2.9792,-2.9792,-2.9792,-2.9792,-2.9792,-2.9792,-2.9792,-2.9792,-2.9779,-2.9428,-2.8925,-2.8913,-2.8561,-2.8084,-2.8084,-2.8072,-2.8059,-2.8059,-2.8059,-2.8059,-2.8059,-2.8059,-2.8059,-2.8059,-2.8059,-2.8059,-2.8084,-2.8097,-2.8235,-2.8775,-2.8925,-2.9089,-2.9641,-2.9779,-2.9792,-2.9792,-2.9792,-2.9792,-2.9792,-2.9792,-2.9792,-2.9792,-2.9792,-2.9792,-2.9792,-2.9792,-2.9792,-2.9792,-2.9792,-2.9792,-2.9792,-2.9792,-2.9792,-2.9792,-2.9792,-2.9792,-2.9792,-2.9792,-2.9792,-2.9792,-2.9792,-2.9792,-2.9792,-2.9792,-2.9792,-2.9792,-2.9779,-2.9453,-1.5591,0.0,0.0,0.0,0.0,0.0,0.0,0.0,0.0,0.0,0.0,0.0,0.0,0.0,0.0,0.0,0.0,0.0,0.0,0.0,0.0,0.0,0.0,0.0,0.0,0.0,0.0,0.0,-2.8298,-2.8084,-2.9704,-2.9792,-2.9792,-2.9792,-2.9792,-2.9792,-2.9792,-2.9792,-2.9792,-2.9792,-2.9792,-2.9792,-2.9792,-2.9792,-2.9792,-2.9792,-2.9792,-2.9792,-2.9792,-2.9792,-2.9792,-2.9754,-2.934,-2.9063,-2.8875,-2.8486,-2.7984,-2.7507,-2.7507,-2.7256,-2.6917,-2.6917,-2.6917,-2.6917,-2.6917,-2.6917,-2.6917,-2.6917,-2.6917,-2.7005,-2.7406,-2.7808,-2.8147,-2.8298,-2.8637,-2.8976,-2.9139,-2.9503,-2.9792,-2.9792,-2.9792,-2.9792,-2.9792,-2.9792,-2.9792,-2.9792,-2.9792,-2.9792,-2.9792,-2.9792,-2.9792,-2.9792,-2.9792,-2.9792,-2.9792,-2.9792,-2.9792,-2.9792,-2.9792,-2.9792,-2.9792,-2.9792,-2.9792,-2.9792,-2.9792,-2.9792,-2.9792,-2.9792,-2.9792,-2.9779,-2.9365,-2.8863,0.0,0.0,0.0,0.0,0.0,0.0,-1.8145,-2.0094,0.0,0.0,0.0,0.0,0.0,0.0,0.0,0.0,0.0,0.0,0.0,0.0,0.0,0.0,0.0,0.0,0.0,-2.9792,-2.9792,-2.9792,-2.8586,-2.8423,-2.9729,-2.9792,-2.9792,-2.9792,-2.9792,-2.9792,-2.9792,-2.9792,-2.9792,-2.9792,-2.9792,-2.9792,-2.9792,-2.9792,-2.9792,-2.9779,-2.9528,-2.9428,-2.9415,-2.9176,-2.9227,-2.9377,-2.88,-2.8448,-2.8197,-2.7883,-2.7419,-2.6942,-2.6942,-2.6728,-2.6533,-2.6533,-2.6533,-2.6533,-2.6533,-2.6533,-2.6533,-2.6533,-2.6533,-2.6596,-2.6854,-2.718,-2.7482,-2.7708,-2.8009,-2.8373,-2.8825,-2.9202,-2.9503,-2.9741,-2.9792,-2.9792,-2.9792,-2.9792,-2.9792,-2.9792,-2.9792,-2.9792,-2.9792,-2.9792,-2.9792,-2.9792,-2.9792,-2.9792,-2.9792,-2.9792,-2.9792,-2.9792,-2.9792,-2.9792,-2.9792,-2.9792,-2.9792,-2.9792,-2.9792,-2.9679,-2.9428,-2.9679,-2.9666,-2.9415,-2.8612,-2.8072,0.0,0.0,0.0,0.0,0.0,0.0,-1.838,-2.0927,-2.3385,0.0,0.0,0.0,0.0,0.0,0.0,0.0,0.0,0.0,0.0,0.0,0.0,0.0,0.0,0.0,-2.9934,-2.9934,-2.9934,-2.9792,-2.9792,-2.9792,-2.9792,-2.9792,-2.9792,-2.9792,-2.9792,-2.9792,-2.9792,-2.9792,-2.9792,-2.9792,-2.9792,-2.9792,-2.9792,-2.9729,-2.9691,-2.9666,-2.9089,-2.8837,-2.88,-2.8247,-2.8335,-2.8787,-2.8235,-2.7708,-2.7268,-2.7218,-2.6879,-2.6533,-2.6533,-2.6533,-2.6533,-2.6533,-2.6533,-2.6533,-2.6533,-2.6533,-2.6533,-2.6533,-2.6533,-2.6533,-2.6533,-2.6533,-2.6647,-2.708,-2.7243,-2.7557,-2.8536,-2.8837,-2.9089,-2.9591,-2.9741,-2.9792,-2.9792,-2.9792,-2.9792,-2.9792,-2.9792,-2.9792,-2.9792,-2.9792,-2.9792,-2.9792,-2.9792,-2.9792,-2.9792,-2.9792,-2.9792,-2.9792,-2.9792,-2.9792,-2.9792,-2.9792,-2.9792,-2.9792,-2.9729,-2.9453,-2.8925,-2.9453,-2.9365,-2.8725,-2.7745,-2.7256,0.0,0.0,0.0,0.0,0.0,0.0,-1.9406,-1.9656,-2.0385,0.0,0.0,0.0,0.0,0.0,0.0,0.0,0.0,0.0,0.0,0.0,0.0,0.0,0.0,0.0,-3.0895,-3.0895,-3.062,-2.9869,-2.9792,-2.9792,-2.9792,-2.9792,-2.9792,-2.9792,-2.9792,-2.9792,-2.9792,-2.9792,-2.9792,-2.9792,-2.9792,-2.9792,-2.9779,-2.9315,-2.9101,-2.9063,-2.8511,-2.8273,-2.8222,-2.767,-2.777,-2.821,-2.7657,-2.7381,-2.7231,-2.6848,-2.6622,-2.6533,-2.6533,-2.6533,-2.6533,-2.6533,-2.6533,-2.6533,-2.6533,-2.6533,-2.6533,-2.6533,-2.6533,-2.6533,-2.6533,-2.6533,-2.6559,-2.6659,-2.6967,-2.7344,-2.7557,-2.8298,-2.8963,-2.9076,-2.9478,-2.9792,-2.9792,-2.9792,-2.9792,-2.9792,-2.9792,-2.9792,-2.9792,-2.9792,-2.9792,-2.9792,-2.9792,-2.9792,-2.9792,-2.9792,-2.9792,-2.9792,-2.9792,-2.9792,-2.9792,-2.9792,-2.9792,-2.9792,-2.934,-2.9038,-2.8925,-2.9038,-2.8586,-2.7595,-2.7381,-2.7042,0.0,0.0,0.0,-1.8538,0.0,0.0,0.0,-2.0123,-2.0841,0.0,0.0,0.0,0.0,0.0,0.0,0.0,0.0,0.0,0.0,0.0,0.0,0.0,0.0,0.0,-3.0482,-3.0482,-3.0279,-2.9869,-2.9792,-2.9792,-2.9792,-2.9792,-2.9792,-2.9792,-2.9792,-2.9792,-2.9792,-2.9792,-2.9792,-2.9792,-2.9503,-2.9365,-2.934,-2.8775,-2.8511,-2.8486,-2.7934,-2.7695,-2.7717,-2.7557,-2.7687,-2.785,-2.7177,-2.6866,-2.6841,-2.6634,-2.6533,-2.6533,-2.6533,-2.6533,-2.6533,-2.6533,-2.6533,-2.6589,-2.6973,-2.7095,-2.704,-2.6589,-2.6533,-2.6533,-2.6533,-2.6533,-2.6533,-2.6533,-2.6747,-2.6942,-2.7218,-2.772,-2.8185,-2.8461,-2.8976,-2.9453,-2.9741,-2.9792,-2.9792,-2.9792,-2.9792,-2.9792,-2.9792,-2.9792,-2.9792,-2.9792,-2.9792,-2.9792,-2.9792,-2.9792,-2.9792,-2.9792,-2.9792,-2.9792,-2.9792,-2.9792,-2.9654,-2.9365,-2.9076,-2.8662,-2.8109,-2.8109,-2.7821,-2.7268,-2.7005,-2.6798,0.0,0.0,0.0,0.0,0.0,-1.9525,0.0,0.0,0.0,0.0,0.0,0.0,0.0,0.0,0.0,0.0,0.0,0.0,0.0,0.0,0.0,0.0,0.0,0.0,0.0,-2.905,-2.9327,-2.9767,-2.9792,-2.9792,-2.9792,-2.9792,-2.9792,-2.9792,-2.9792,-2.9741,-2.9628,-2.9628,-2.9566,-2.9465,-2.9001,-2.8837,-2.8961,-2.827,-2.8151,-2.8388,-2.7697,-2.7456,-2.7613,-2.7867,-2.792,-2.7855,-2.7229,-2.6905,-2.6782,-2.6905,-2.6782,-2.6521,-2.6658,-2.6714,-2.6714,-2.6714,-2.685,-2.7095,-2.7537,-2.767,-2.755,-2.6714,-2.6533,-2.6521,-2.6714,-2.6714,-2.6714,-2.6714,-2.6714,-2.6772,-2.71,-2.7205,-2.7419,-2.7858,-2.8398,-2.895,-2.9528,-2.9716,-2.9792,-2.9792,-2.9792,-2.9792,-2.9792,-2.9792,-2.9792,-2.9792,-2.9792,-2.9792,-2.9792,-2.9792,-2.9792,-2.9792,-2.9792,-2.9741,-2.9628,-2.9528,-2.9252,-2.8787,-2.8662,-2.8172,-2.7281,-2.718,-2.713,-2.7118,-2.6666,-2.6533,0.0,0.0,0.0,0.0,-1.8328,0.0,0.0,0.0,-1.9975,-1.9975,0.0,0.0,0.0,0.0,0.0,0.0,0.0,0.0,0.0,0.0,0.0,0.0,0.0,0.0,0.0,-2.6191,-2.7657,-2.9641,-2.9792,-2.9792,-2.9792,-2.9792,-2.9792,-2.9792,-2.9792,-2.9541,-2.9038,-2.9026,-2.8787,-2.8298,-2.8235,-2.8609,-2.9332,-2.7964,-2.8231,-2.9508,-2.8213,-2.8079,-2.8844,-2.8839,-2.8876,-2.8812,-2.8748,-2.8247,-2.767,-2.8427,-2.7802,-2.6589,-2.7284,-2.7537,-2.7537,-2.7537,-2.8117,-2.862,-2.792,-2.767,-2.755,-2.6714,-2.6533,-2.6658,-2.7351,-2.7537,-2.7537,-2.7537,-2.7537,-2.7377,-2.6734,-2.6929,-2.7306,-2.7369,-2.7821,-2.8373,-2.8938,-2.9453,-2.9792,-2.9792,-2.9792,-2.9792,-2.9792,-2.9792,-2.9792,-2.9792,-2.9792,-2.9792,-2.9792,-2.9792,-2.9792,-2.9792,-2.9792,-2.9566,-2.9051,-2.8561,-2.826,-2.8197,-2.772,-2.7406,-2.7281,-2.6791,-2.6622,-2.6622,-2.6559,-2.6533,0.0,0.0,0.0,0.0,0.0,0.0,-2.0797,0.0,-1.8433,0.0,0.0,0.0,0.0,0.0,0.0,0.0,-1.657,0.0,0.0,0.0,0.0,0.0,0.0,0.0,0.0,0.0,0.0,0.0,-2.8653,-2.8157,-2.7838,-2.8722,-2.9151,-2.8825,-2.8812,-2.8897,-2.9202,-2.9202,-2.9086,-2.8841,-2.8492,-2.8534,-2.8842,-2.7962,-2.8226,-2.9297,-2.8729,-2.8684,-2.9066,-2.9566,-2.9766,-2.9827,-3.0269,-2.9628,-2.8492,-2.8876,-2.8556,-2.7986,-2.8363,-2.8427,-2.8427,-2.8427,-2.9066,-2.9566,-2.8748,-2.8812,-2.8939,-2.7604,-2.7537,-2.792,-2.7736,-2.8051,-2.8427,-2.8427,-2.8051,-2.7604,-2.7297,-2.7028,-2.6804,-2.6804,-2.7256,-2.7708,-2.7934,-2.8448,-2.8812,-2.8812,-2.8812,-2.8812,-2.8812,-2.8812,-2.8812,-2.8812,-2.8812,-2.8812,-2.8812,-2.8812,-2.8812,-2.8812,-2.8812,-2.8699,-2.8461,-2.8235,-2.7959,-2.7632,-2.7394,-2.713,-2.6804,-2.6647,-2.6533,-2.6533,-2.6533,-2.6533,-2.0243,0.0,0.0,0.0,0.0,0.0,0.0,0.0,0.0,0.0,0.0,0.0,0.0,0.0,0.0,0.0,0.0,-1.6553,0.0,0.0,0.0,0.0,0.0,0.0,0.0,0.0,0.0,-2.6965,-2.7057,-2.6856,-2.6501,-2.8094,-2.8928,-2.8795,-2.8579,-2.8776,-2.9491,-2.9491,-2.948,-2.932,-2.8866,-2.8772,-2.8957,-2.8356,-2.862,-2.969,-2.9442,-2.9504,-2.9752,-3.0389,-3.0644,-3.0703,-3.1278,-3.0777,-2.969,-2.969,-2.938,-2.9002,-2.9254,-2.938,-2.938,-2.9628,-3.0133,-3.0464,-2.9628,-2.9827,-3.0011,-2.8492,-2.8492,-2.8939,-2.8492,-2.8876,-2.938,-2.938,-2.8876,-2.8298,-2.7802,-2.7417,-2.7095,-2.6905,-2.7169,-2.7379,-2.7379,-2.7776,-2.8109,-2.8109,-2.8109,-2.8109,-2.8109,-2.8109,-2.8109,-2.8109,-2.8109,-2.8109,-2.8109,-2.8109,-2.8109,-2.8109,-2.7959,-2.7883,-2.7883,-2.7733,-2.7469,-2.7067,-2.7055,-2.6866,-2.6533,-2.6533,-2.6533,-2.6533,-2.6533,-2.6533,0.0,0.0,0.0,-2.1186,0.0,0.0,0.0,0.0,-1.5858,0.0,0.0,0.0,0.0,0.0,0.0,0.0,0.0,0.0,0.0,0.0,0.0,0.0,0.0,0.0,0.0,0.0,0.0,-2.3031,-2.5293,-2.6708,-2.6695,-2.8425,-2.9744,-3.0474,-2.9787,-2.952,-2.9797,-2.9797,-2.9508,-2.8994,-2.8967,-2.9407,-3.0222,-2.9331,-2.9889,-3.1409,-3.0584,-3.0703,-3.1409,-3.1467,-3.1467,-3.1467,-3.1482,-3.1467,-3.1409,-3.1409,-3.0389,-2.9129,-2.995,-3.0269,-3.0389,-3.1161,-3.1409,-3.1278,-3.0524,-3.0269,-3.0133,-2.9192,-2.9002,-2.9192,-3.0011,-3.0269,-3.0269,-3.0269,-3.0269,-2.9766,-2.8051,-2.8363,-2.8684,-2.7868,-2.7696,-2.7696,-2.7696,-2.7921,-2.8109,-2.8109,-2.8109,-2.8109,-2.8109,-2.8109,-2.8109,-2.8109,-2.8109,-2.8109,-2.8109,-2.8109,-2.8109,-2.8109,-2.7607,-2.7306,-2.7306,-2.6804,-2.6571,-2.6559,-2.6559,-2.6546,-2.6533,-2.6533,-2.6533,-2.6533,-2.6533,-2.6533,0.0,0.0,-2.6063,-2.542,0.0,0.0,0.0,0.0,0.0,0.0,0.0,0.0,0.0,0.0,0.0,0.0,0.0,0.0,0.0,0.0,0.0,0.0,0.0,0.0,0.0,0.0,0.0,-2.1989,-2.2297,-2.2242,-2.1888,-2.5168,-2.7039,-2.6936,-2.8402,-2.9449,-3.014,-3.014,-3.0026,-2.9889,-2.9889,-3.0011,-3.0269,-3.0011,-3.045,-3.1467,-3.1219,-3.1219,-3.1482,-3.1482,-3.1482,-3.1482,-3.1482,-3.1482,-3.1482,-3.1482,-3.1161,-3.0703,-3.097,-3.1087,-3.1161,-3.1409,-3.1482,-3.1467,-3.1161,-3.1087,-3.0896,-3.0072,-3.0269,-3.0584,-3.0329,-3.0703,-3.1087,-3.1087,-3.0703,-3.0133,-2.9566,-2.9192,-2.8939,-2.862,-2.8117,-2.767,-2.767,-2.7349,-2.7017,-2.7017,-2.7017,-2.7017,-2.7017,-2.7017,-2.7017,-2.7017,-2.7017,-2.7017,-2.7017,-2.7017,-2.7017,-2.7017,-2.6841,-2.6741,-2.6741,-2.6634,-2.6533,-2.6533,-2.6533,-2.6533,-2.6533,-2.6533,-2.6533,-2.6533,-2.6533,-2.6533,-2.8517,-2.8981,0.0,-2.785,-2.5856,0.0,-2.2933,0.0,0.0,0.0,0.0,0.0,0.0,0.0,0.0,0.0,0.0,0.0,0.0,-1.7026,0.0,0.0,0.0,0.0,0.0,0.0,-1.9016,-1.9555,-1.9846,-1.9875,0.0,0.0,-2.6009,-2.6,-2.8285,-2.9889,-3.0718,-3.0718,-3.0718,-3.0718,-3.0718,-3.0718,-3.0718,-3.0718,-3.1029,-3.1482,-3.1482,-3.1482,-3.1482,-3.1482,-3.1482,-3.1482,-3.1482,-3.1482,-3.1482,-3.1482,-3.1482,-3.1482,-3.1482,-3.1482,-3.1482,-3.1482,-3.1482,-3.1482,-3.1482,-3.1482,-3.1453,-3.1175,-3.1265,-3.1468,-3.1175,-3.1265,-3.1482,-3.1482,-3.1087,-3.0644,-3.0329,-3.0072,-2.9827,-2.9504,-2.8748,-2.8247,-2.8556,-2.767,-2.685,-2.6521,-2.6533,-2.6533,-2.6533,-2.6533,-2.6533,-2.6533,-2.6533,-2.6533,-2.6533,-2.6533,-2.6533,-2.6533,-2.6533,-2.6533,-2.6533,-2.6533,-2.6533,-2.6533,-2.6533,-2.6533,-2.6533,-2.6533,-2.6533,-2.6533,-2.6533,-2.6533]},{"header":{"parameterUnit":"m.s-1","parameterCategory":1,"la1":30.6,"la2":29.2853,"lo1":-89.7004,"lo2":-87.6739,"dy":0.0162,"dx":0.0183,"nx":112,"ny":82,"refTime":"2023-09-07T18:00:00:Z","depth":0,"parameterNumber":3,"parameterNumberName":"V-component_of_WINDS"},"data":[0.0,0.0,0.0,0.0,0.0,0.0,0.0,0.0,0.0,0.0,0.0,0.0,0.0,0.0,0.0,0.0,0.0,0.0,0.0,0.0,0.0,0.0,0.0,0.0,0.0,0.0,0.0,0.0,0.0,0.0,0.0,0.0,0.0,0.0,0.0,0.0,0.0,0.0,0.0,0.0,0.0,0.0,0.0,0.0,0.0,0.0,0.0,0.0,0.0,0.0,0.0,0.0,0.0,0.0,0.0,0.0,0.0,0.0,0.0,0.0,0.0,0.0,0.0,0.0,0.0,0.0,0.0,0.0,0.0,0.0,0.0,0.0,0.0,0.0,0.0,0.0,0.0,0.0,0.0,0.0,0.0,0.0,0.0,0.0,0.0,0.0,0.0,0.0,0.0,0.0,-2.9817,-3.3808,-3.5061,-3.5622,-3.5622,-3.5622,-3.4117,-3.0592,0.0,0.0,0.0,0.0,0.0,0.0,0.0,0.0,0.0,0.0,0.0,0.0,0.0,0.0,0.0,0.0,0.0,0.0,0.0,0.0,0.0,0.0,0.0,0.0,0.0,0.0,0.0,0.0,0.0,0.0,0.0,0.0,0.0,0.0,0.0,0.0,0.0,0.0,0.0,0.0,0.0,0.0,0.0,0.0,0.0,0.0,0.0,0.0,0.0,0.0,0.0,0.0,0.0,0.0,0.0,0.0,0.0,0.0,0.0,0.0,0.0,0.0,0.0,0.0,0.0,0.0,0.0,0.0,0.0,0.0,0.0,0.0,0.0,0.0,0.0,0.0,0.0,0.0,0.0,0.0,0.0,0.0,0.0,0.0,0.0,0.0,0.0,0.0,0.0,0.0,0.0,0.0,0.0,0.0,0.0,0.0,0.0,0.0,0.0,0.0,0.0,0.0,0.0,0.0,-3.1812,-3.5035,-3.5487,-3.5622,-3.5622,-3.5622,-3.3761,-2.9508,0.0,0.0,0.0,0.0,0.0,0.0,0.0,0.0,0.0,0.0,0.0,0.0,0.0,0.0,0.0,0.0,0.0,0.0,0.0,0.0,0.0,0.0,0.0,0.0,0.0,0.0,0.0,0.0,0.0,0.0,0.0,0.0,0.0,0.0,0.0,0.0,0.0,0.0,0.0,0.0,0.0,0.0,0.0,0.0,0.0,0.0,0.0,0.0,0.0,0.0,0.0,0.0,0.0,0.0,0.0,0.0,0.0,0.0,0.0,0.0,0.0,0.0,0.0,0.0,0.0,0.0,0.0,0.0,0.0,0.0,0.0,0.0,0.0,0.0,0.0,0.0,0.0,0.0,0.0,0.0,0.0,0.0,0.0,0.0,0.0,0.0,0.0,0.0,0.0,0.0,0.0,0.0,0.0,0.0,0.0,0.0,0.0,0.0,0.0,0.0,0.0,0.0,0.0,-3.1892,-3.438,-3.5464,-3.5622,-3.5622,-3.5622,-3.5622,-3.3711,-2.9262,-2.9011,0.0,0.0,0.0,0.0,0.0,0.0,0.0,0.0,0.0,0.0,0.0,0.0,0.0,0.0,0.0,0.0,0.0,0.0,0.0,0.0,0.0,0.0,0.0,0.0,0.0,0.0,0.0,0.0,0.0,0.0,0.0,0.0,0.0,0.0,0.0,0.0,0.0,0.0,0.0,0.0,0.0,0.0,0.0,0.0,0.0,0.0,0.0,0.0,0.0,0.0,0.0,0.0,0.0,0.0,0.0,0.0,0.0,0.0,0.0,0.0,0.0,0.0,0.0,0.0,0.0,0.0,0.0,0.0,0.0,0.0,0.0,0.0,0.0,0.0,0.0,0.0,0.0,0.0,0.0,0.0,0.0,0.0,0.0,0.0,0.0,0.0,0.0,0.0,0.0,0.0,0.0,0.0,0.0,0.0,0.0,0.0,0.0,0.0,0.0,0.0,0.0,0.0,-3.3312,-3.5687,-3.5599,-3.5622,-3.5622,-3.5622,-3.5622,-3.3753,-2.9374,-2.9157,0.0,0.0,0.0,0.0,0.0,0.0,0.0,0.0,0.0,0.0,0.0,0.0,0.0,0.0,0.0,0.0,0.0,0.0,0.0,0.0,0.0,0.0,0.0,0.0,0.0,0.0,0.0,0.0,0.0,0.0,0.0,0.0,0.0,0.0,0.0,0.0,0.0,0.0,0.0,0.0,0.0,0.0,0.0,0.0,0.0,0.0,0.0,0.0,0.0,0.0,0.0,0.0,0.0,0.0,0.0,0.0,0.0,0.0,0.0,0.0,0.0,0.0,0.0,0.0,0.0,0.0,0.0,0.0,0.0,0.0,0.0,0.0,0.0,0.0,0.0,0.0,0.0,0.0,0.0,0.0,0.0,0.0,0.0,0.0,0.0,0.0,0.0,0.0,0.0,0.0,0.0,0.0,0.0,0.0,0.0,0.0,0.0,0.0,0.0,0.0,0.0,0.0,-3.2124,-3.4199,-3.5474,-3.5622,-3.5622,-3.5622,-3.5622,-3.382,-2.9626,-2.9655,0.0,0.0,0.0,0.0,0.0,0.0,0.0,0.0,0.0,0.0,0.0,0.0,0.0,0.0,0.0,0.0,0.0,0.0,0.0,0.0,0.0,0.0,0.0,0.0,0.0,0.0,0.0,0.0,0.0,0.0,0.0,0.0,0.0,0.0,0.0,0.0,0.0,0.0,0.0,0.0,0.0,0.0,0.0,0.0,0.0,0.0,0.0,0.0,0.0,0.0,0.0,0.0,0.0,0.0,0.0,0.0,0.0,0.0,0.0,0.0,0.0,0.0,0.0,0.0,0.0,0.0,0.0,0.0,0.0,0.0,0.0,0.0,0.0,0.0,0.0,0.0,0.0,0.0,0.0,0.0,0.0,0.0,0.0,0.0,0.0,0.0,0.0,0.0,0.0,0.0,0.0,0.0,0.0,0.0,0.0,0.0,0.0,0.0,0.0,0.0,0.0,0.0,-3.3069,-3.5365,0.0,-3.5622,-3.5622,-3.5622,-3.5622,-3.3753,-2.943,0.0,0.0,0.0,0.0,0.0,0.0,0.0,0.0,0.0,0.0,0.0,0.0,0.0,0.0,0.0,0.0,0.0,0.0,0.0,0.0,0.0,0.0,0.0,0.0,0.0,0.0,0.0,0.0,0.0,0.0,0.0,0.0,0.0,0.0,0.0,0.0,0.0,0.0,0.0,0.0,0.0,0.0,0.0,0.0,0.0,0.0,0.0,0.0,0.0,0.0,0.0,0.0,0.0,0.0,0.0,0.0,0.0,0.0,0.0,0.0,0.0,0.0,0.0,0.0,0.0,0.0,0.0,0.0,0.0,0.0,0.0,0.0,0.0,0.0,0.0,0.0,0.0,0.0,0.0,0.0,0.0,0.0,0.0,0.0,0.0,0.0,0.0,0.0,0.0,0.0,0.0,0.0,0.0,0.0,0.0,0.0,0.0,0.0,0.0,0.0,0.0,0.0,-3.005,-3.3688,-3.6182,0.0,-3.5622,-3.5622,-3.5622,-3.5622,-3.3753,-2.9411,0.0,0.0,0.0,0.0,0.0,0.0,0.0,0.0,0.0,0.0,0.0,0.0,0.0,0.0,0.0,0.0,0.0,0.0,0.0,0.0,0.0,0.0,0.0,0.0,0.0,0.0,0.0,0.0,0.0,0.0,0.0,0.0,0.0,0.0,0.0,0.0,0.0,0.0,0.0,0.0,0.0,0.0,0.0,0.0,0.0,0.0,0.0,0.0,0.0,0.0,0.0,0.0,0.0,0.0,0.0,0.0,0.0,0.0,0.0,0.0,0.0,0.0,0.0,0.0,0.0,0.0,0.0,0.0,0.0,0.0,0.0,0.0,0.0,0.0,0.0,0.0,0.0,0.0,0.0,0.0,0.0,0.0,0.0,0.0,0.0,0.0,0.0,0.0,0.0,0.0,0.0,0.0,0.0,0.0,0.0,0.0,0.0,0.0,0.0,0.0,0.0,0.0,-2.998,-3.3671,-3.6182,-3.5667,-3.5622,-3.5622,-3.5622,-3.5622,-3.3803,0.0,0.0,0.0,0.0,0.0,0.0,0.0,0.0,0.0,0.0,0.0,0.0,0.0,0.0,0.0,0.0,0.0,0.0,0.0,0.0,0.0,0.0,0.0,0.0,0.0,0.0,0.0,0.0,0.0,0.0,0.0,0.0,0.0,0.0,0.0,0.0,0.0,0.0,0.0,0.0,0.0,0.0,0.0,0.0,0.0,0.0,0.0,0.0,0.0,0.0,0.0,0.0,0.0,0.0,0.0,0.0,0.0,0.0,0.0,0.0,0.0,0.0,0.0,0.0,0.0,0.0,0.0,0.0,0.0,0.0,0.0,0.0,0.0,0.0,0.0,0.0,0.0,0.0,0.0,0.0,0.0,0.0,0.0,0.0,0.0,0.0,0.0,0.0,0.0,0.0,0.0,0.0,0.0,0.0,0.0,0.0,0.0,0.0,0.0,0.0,0.0,0.0,0.0,-2.9131,-3.3016,-3.5783,-3.5622,-3.5622,-3.5622,-3.5622,-3.5622,-3.3516,-2.8592,0.0,0.0,0.0,0.0,0.0,0.0,0.0,0.0,0.0,0.0,0.0,0.0,0.0,0.0,0.0,0.0,0.0,0.0,0.0,0.0,0.0,0.0,0.0,0.0,0.0,0.0,0.0,0.0,0.0,0.0,0.0,0.0,0.0,0.0,0.0,0.0,0.0,0.0,0.0,0.0,0.0,0.0,0.0,0.0,0.0,0.0,0.0,0.0,0.0,0.0,0.0,0.0,0.0,0.0,0.0,0.0,0.0,0.0,0.0,0.0,0.0,0.0,0.0,0.0,0.0,0.0,0.0,0.0,0.0,0.0,0.0,0.0,0.0,0.0,0.0,0.0,0.0,0.0,0.0,0.0,0.0,0.0,0.0,0.0,0.0,0.0,0.0,0.0,0.0,0.0,0.0,0.0,0.0,0.0,0.0,0.0,0.0,0.0,0.0,0.0,0.0,0.0,-2.8749,-3.274,-3.5622,-3.5622,-3.5622,-3.5622,-3.5622,-3.5622,-3.3897,-2.9854,0.0,0.0,0.0,0.0,0.0,0.0,0.0,0.0,0.0,0.0,0.0,0.0,0.0,0.0,0.0,0.0,0.0,0.0,0.0,0.0,0.0,0.0,0.0,0.0,0.0,0.0,0.0,0.0,0.0,0.0,0.0,0.0,0.0,0.0,0.0,0.0,0.0,0.0,0.0,0.0,0.0,0.0,0.0,0.0,0.0,0.0,0.0,0.0,0.0,0.0,0.0,0.0,0.0,0.0,0.0,0.0,0.0,0.0,0.0,0.0,0.0,0.0,0.0,0.0,0.0,0.0,0.0,0.0,0.0,0.0,0.0,0.0,0.0,0.0,0.0,0.0,0.0,0.0,0.0,0.0,0.0,0.0,0.0,0.0,0.0,0.0,0.0,0.0,0.0,0.0,0.0,0.0,0.0,0.0,0.0,0.0,0.0,0.0,0.0,0.0,0.0,0.0,-2.8592,-3.2689,-3.5622,-3.5622,-3.5622,-3.5622,-3.5622,-3.5622,-3.4641,-3.2324,0.0,0.0,0.0,0.0,0.0,0.0,0.0,0.0,0.0,0.0,0.0,0.0,0.0,0.0,0.0,0.0,0.0,0.0,0.0,0.0,0.0,0.0,0.0,0.0,0.0,0.0,0.0,0.0,0.0,0.0,0.0,0.0,0.0,0.0,0.0,0.0,0.0,0.0,0.0,0.0,0.0,0.0,0.0,0.0,0.0,0.0,0.0,0.0,0.0,0.0,0.0,0.0,0.0,0.0,0.0,0.0,0.0,0.0,0.0,0.0,-3.0495,0.0,0.0,0.0,0.0,0.0,0.0,0.0,0.0,0.0,0.0,0.0,0.0,0.0,0.0,0.0,0.0,0.0,0.0,0.0,0.0,0.0,0.0,0.0,0.0,0.0,0.0,0.0,0.0,0.0,0.0,0.0,0.0,0.0,0.0,0.0,0.0,0.0,0.0,0.0,0.0,0.0,-2.7844,-3.2342,-3.5622,-3.5622,-3.5622,-3.5622,-3.5622,-3.5622,-3.4421,-3.1596,-3.0818,0.0,0.0,0.0,0.0,0.0,0.0,0.0,0.0,0.0,0.0,0.0,0.0,0.0,0.0,0.0,0.0,0.0,0.0,0.0,0.0,0.0,0.0,0.0,0.0,0.0,0.0,0.0,0.0,0.0,0.0,0.0,0.0,0.0,0.0,0.0,0.0,0.0,0.0,0.0,0.0,0.0,0.0,0.0,0.0,0.0,0.0,0.0,0.0,0.0,0.0,0.0,0.0,0.0,0.0,0.0,0.0,0.0,0.0,0.0,0.0,-3.0995,0.0,0.0,0.0,0.0,0.0,0.0,0.0,0.0,0.0,0.0,0.0,0.0,0.0,0.0,0.0,0.0,0.0,0.0,0.0,0.0,0.0,0.0,0.0,0.0,0.0,0.0,0.0,0.0,0.0,0.0,0.0,0.0,0.0,0.0,0.0,0.0,0.0,0.0,0.0,0.0,-2.7369,-3.2161,-3.5622,-3.5622,-3.5622,-3.5622,-3.5622,-3.5622,-3.4962,-3.3423,-3.1985,0.0,0.0,0.0,0.0,0.0,0.0,0.0,0.0,0.0,0.0,0.0,0.0,0.0,0.0,0.0,0.0,0.0,0.0,0.0,0.0,0.0,0.0,0.0,0.0,0.0,0.0,0.0,0.0,0.0,0.0,0.0,0.0,0.0,0.0,0.0,0.0,0.0,0.0,0.0,0.0,0.0,0.0,0.0,0.0,0.0,0.0,0.0,0.0,0.0,0.0,0.0,0.0,0.0,-3.0698,-3.0889,-3.0889,-3.0889,-3.0751,-3.0606,-3.2669,-3.3299,-3.2789,-3.1675,0.0,0.0,0.0,0.0,0.0,0.0,0.0,0.0,0.0,0.0,0.0,0.0,0.0,0.0,0.0,0.0,0.0,0.0,0.0,0.0,0.0,0.0,0.0,0.0,-3.0387,-3.0109,-3.0734,0.0,0.0,0.0,0.0,0.0,0.0,0.0,0.0,0.0,0.0,0.0,-2.7147,-3.206,-3.5622,-3.5622,-3.5622,-3.5622,-3.5622,-3.5622,-3.5622,-3.5622,-3.3322,-3.1732,0.0,0.0,0.0,0.0,0.0,0.0,0.0,0.0,0.0,0.0,0.0,0.0,0.0,0.0,0.0,0.0,0.0,0.0,0.0,0.0,0.0,0.0,0.0,0.0,0.0,0.0,0.0,0.0,0.0,0.0,0.0,0.0,-2.9667,-3.1694,0.0,0.0,0.0,0.0,0.0,0.0,0.0,0.0,0.0,0.0,0.0,0.0,0.0,-2.9365,-2.9039,-3.1301,-3.2269,-3.2009,-3.3922,-3.4856,-3.4856,-3.4856,-3.4813,-3.4684,-3.3172,0.0,-3.3023,-3.2711,0.0,0.0,0.0,0.0,0.0,0.0,0.0,0.0,0.0,0.0,0.0,0.0,0.0,0.0,0.0,0.0,0.0,0.0,0.0,0.0,0.0,0.0,-3.4482,-3.4788,-3.3362,-3.2439,0.0,-3.0576,-2.7267,-2.9013,-2.7232,0.0,0.0,0.0,0.0,0.0,0.0,0.0,-2.7147,-3.206,-3.5622,-3.5622,-3.5622,-3.5622,-3.5622,-3.5622,-3.5622,-3.5622,-3.525,-3.388,-3.1309,-3.366,0.0,0.0,0.0,0.0,0.0,0.0,0.0,0.0,0.0,0.0,0.0,0.0,0.0,0.0,0.0,0.0,0.0,0.0,0.0,0.0,0.0,0.0,0.0,0.0,0.0,0.0,0.0,0.0,0.0,-2.9734,-3.0982,-3.19,-3.1691,-3.0574,0.0,0.0,0.0,0.0,0.0,0.0,0.0,0.0,0.0,-2.9141,-3.0696,-3.1351,-3.1035,-3.3247,-3.4304,-3.4167,-3.5148,-3.5622,-3.5622,-3.5622,-3.5622,-3.5571,-3.459,-3.4279,-3.4453,-3.3386,-3.2686,-3.2044,0.0,0.0,0.0,0.0,-2.6796,-2.7829,-2.8084,-2.964,0.0,-3.1673,0.0,0.0,0.0,0.0,0.0,0.0,0.0,0.0,0.0,0.0,-3.4286,-3.5362,-3.4878,-3.4421,-3.5402,-3.2548,-3.0023,0.0,-2.8741,-2.6231,-2.3919,0.0,0.0,0.0,0.0,-2.9713,-2.9448,-3.3032,-3.5622,-3.5622,-3.5622,-3.5622,-3.5622,-3.5622,-3.5622,-3.5622,-3.5622,-3.503,-3.3744,-3.4928,-3.3787,0.0,0.0,0.0,0.0,0.0,0.0,0.0,0.0,0.0,0.0,0.0,0.0,0.0,0.0,0.0,0.0,0.0,0.0,0.0,0.0,0.0,0.0,0.0,0.0,0.0,0.0,0.0,0.0,-3.0349,-3.1434,-3.2142,-3.2178,-3.1217,0.0,0.0,0.0,0.0,0.0,0.0,-3.0247,-3.0439,-3.0557,-3.0688,-3.2537,-3.3407,-3.3136,-3.4793,-3.5622,-3.5622,-3.5622,-3.5622,-3.5622,-3.5825,-3.591,-3.5926,-3.6129,-3.6197,-3.6045,-3.4408,-3.3185,-3.2297,-3.208,-3.0539,-2.8442,-2.8476,-2.8972,-2.9659,-3.0004,-3.1631,-3.3551,-3.3692,-3.3175,-3.2472,-3.2214,0.0,0.0,0.0,0.0,-3.0976,-3.2307,-3.3066,-3.3857,-3.526,-3.5622,-3.5673,-3.5876,-3.415,-3.2591,0.0,-3.0782,-2.8425,-2.5831,0.0,0.0,0.0,0.0,-3.2085,-3.1788,-3.4353,-3.6197,-3.6197,-3.6197,-3.6197,-3.6197,-3.6028,-3.591,-3.591,-3.5723,-3.5622,-3.5622,-3.5622,-3.459,-3.2374,0.0,0.0,0.0,0.0,0.0,0.0,0.0,0.0,0.0,0.0,0.0,0.0,0.0,0.0,0.0,0.0,0.0,0.0,0.0,0.0,0.0,0.0,0.0,0.0,0.0,0.0,0.0,0.0,0.0,-3.2991,-3.4971,0.0,0.0,0.0,0.0,-2.942,-2.9124,-3.0094,-3.25,-3.2327,-3.3126,-3.5216,-3.5385,-3.5453,-3.5453,-3.5554,-3.5622,-3.5622,-3.5622,-3.5622,-3.5639,-3.6383,-3.6721,-3.6755,-3.7483,-3.7787,-3.7669,-3.6096,-3.5436,-3.5182,-3.3093,-3.2161,-3.1788,-2.9722,-3.0281,-3.2133,-3.2144,-3.3618,-3.5453,-3.5453,-3.3734,-3.1256,-2.9111,-2.86,0.0,0.0,-3.0384,-3.2599,-3.24,-3.3889,-3.547,-3.5588,-3.5622,-3.5825,-3.6552,-3.4945,-3.3761,0.0,-3.3634,-3.2026,-3.1879,0.0,-3.1593,-2.9047,-3.1547,-3.3601,-3.333,-3.5926,-3.7787,-3.7787,-3.7787,-3.7787,-3.7787,-3.7127,-3.6721,-3.6721,-3.6028,-3.5622,-3.5622,-3.5622,-3.5554,-3.5402,-3.2662,0.0,0.0,0.0,0.0,0.0,0.0,0.0,0.0,0.0,0.0,0.0,0.0,0.0,0.0,0.0,0.0,0.0,0.0,0.0,0.0,0.0,0.0,0.0,0.0,0.0,0.0,0.0,0.0,-3.3093,-3.3819,0.0,-3.2439,-3.2676,-3.2448,-3.1355,-3.2507,-3.3855,-3.5317,-3.5254,-3.5757,-3.7043,-3.7094,-3.7094,-3.7094,-3.7094,-3.7094,-3.7094,-3.7094,-3.7094,-3.7094,-3.7381,-3.7499,-3.7516,-3.7787,-3.7905,-3.7872,-3.7313,-3.7094,-3.7009,-3.6214,-3.5893,-3.5808,-3.5013,-3.5233,-3.5893,-3.5893,-3.6434,-3.7094,-3.7094,-3.6412,-3.5484,-3.4669,-3.4542,-3.4609,-3.4457,-3.5239,-3.6055,-3.5938,-3.6502,-3.7094,-3.7094,-3.7094,-3.7178,-3.7449,-3.6874,-3.6468,-3.6992,-3.525,-3.3558,-3.3085,-3.4694,-3.5094,-3.2239,-3.4457,-3.6373,-3.6299,-3.7246,-3.7905,-3.7905,-3.7905,-3.7905,-3.7905,-3.7669,-3.7297,-3.6806,-3.6518,-3.6146,-3.5639,-3.5622,-3.5622,-3.5622,-3.459,-3.2354,0.0,0.0,0.0,0.0,0.0,0.0,0.0,0.0,0.0,0.0,0.0,0.0,0.0,0.0,0.0,0.0,0.0,0.0,0.0,0.0,0.0,0.0,0.0,0.0,0.0,0.0,-3.1121,-3.3177,-3.3598,-3.3765,-3.3804,-3.4031,-3.4175,-3.421,-3.5554,-3.662,-3.7127,-3.7161,-3.7398,-3.7889,-3.7905,-3.7905,-3.7905,-3.7905,-3.7905,-3.7905,-3.7905,-3.7905,-3.7922,-3.8159,-3.7855,-3.7195,-3.821,-3.821,-3.7584,-3.8328,-3.8633,-3.8582,-3.8091,-3.7905,-3.7905,-3.7905,-3.7905,-3.7905,-3.7905,-3.7905,-3.7905,-3.7905,-3.7905,-3.7905,-3.7905,-3.7905,-3.7905,-3.7905,-3.7905,-3.7905,-3.7905,-3.7905,-3.7905,-3.7905,-3.7905,-3.7973,-3.8227,-3.7466,-3.7127,-3.8396,-3.7026,-3.525,-3.3998,-3.5436,-3.5825,-3.3068,-3.4353,-3.5639,-3.5639,-3.6518,-3.7127,-3.7127,-3.8041,-3.8633,-3.8633,-3.7263,-3.6705,-3.7483,-3.5876,-3.5233,-3.5977,-3.4793,-3.4134,-3.4134,-3.3136,-3.1157,-2.8213,0.0,0.0,0.0,0.0,0.0,0.0,0.0,0.0,0.0,0.0,0.0,0.0,0.0,0.0,0.0,0.0,0.0,0.0,0.0,0.0,0.0,0.0,0.0,-2.681,-3.0023,-3.2611,-3.344,-3.481,-3.5994,-3.6738,-3.6806,-3.711,-3.7855,-3.7905,-3.7922,-3.7939,-3.7872,-3.7855,-3.7872,-3.7872,-3.7872,-3.7872,-3.7939,-3.7973,-3.7973,-3.7973,-3.7973,-3.799,-3.87,-3.7838,-3.5926,-3.8819,-3.8853,-3.706,-3.9191,-4.007,-3.9935,-3.8531,-3.7973,-3.7973,-3.7973,-3.7973,-3.7973,-3.7889,-3.7922,-3.7973,-3.7973,-3.7973,-3.7973,-3.7973,-3.7973,-3.7973,-3.7973,-3.7973,-3.7973,-3.7973,-3.7973,-3.7973,-3.7973,-3.7973,-3.8159,-3.887,-3.6738,-3.574,-3.9377,-3.8937,-3.7263,-3.5047,-3.4658,-3.3947,-3.1799,-3.1478,0.0,-3.1478,-3.3981,-3.5757,-3.5757,-3.8261,-3.9969,-4.007,-3.6011,-3.5047,-3.8768,-3.4252,-3.3034,-3.6637,-3.3305,-3.136,-3.1326,-2.8366,-2.8264,-3.119,0.0,0.0,0.0,0.0,0.0,0.0,0.0,0.0,0.0,0.0,0.0,0.0,0.0,0.0,0.0,0.0,0.0,0.0,0.0,0.0,0.0,0.0,-3.1935,-3.1596,-3.2459,-3.3981,-3.6383,-3.7026,-3.7364,-3.7584,-3.7601,-3.7686,-3.7889,-3.7905,-3.8142,-3.8667,-3.7144,-3.6502,-3.706,-3.7094,-3.7094,-3.7094,-3.8684,-3.9478,-3.9478,-3.9478,-3.9478,-3.9478,-3.9681,-3.9445,-3.8903,-3.9715,-3.9732,-3.9208,-3.9834,-4.007,-4.0037,-3.9631,-3.9478,-3.9478,-3.9478,-3.9478,-3.9259,-3.7652,-3.8142,-3.9478,-3.9478,-3.9478,-3.9478,-3.9478,-3.9478,-3.9478,-3.9478,-3.9478,-3.9478,-3.9478,-3.9478,-3.9478,-3.9478,-3.9478,-3.9529,-3.9732,-3.9123,-3.8853,-3.9884,-3.9749,-3.9276,-3.865,-3.8548,-3.8328,-3.7719,-3.7635,0.0,-3.7635,-3.8345,-3.8853,-3.8853,-3.7652,-3.7719,-3.9884,-3.6958,-3.6146,-3.8819,-3.7635,-3.6823,-3.6772,-3.5791,-3.4979,-3.4404,-3.1478,-3.0362,0.0,0.0,0.0,0.0,0.0,0.0,0.0,0.0,0.0,0.0,0.0,0.0,0.0,0.0,0.0,0.0,0.0,0.0,0.0,0.0,0.0,0.0,-3.2188,-3.4776,-3.5622,-3.5487,-3.5943,-3.7702,-3.7905,-3.8024,-3.8328,-3.8362,-3.8481,-3.8802,-3.8819,-3.9005,-3.9428,-3.8193,-3.7263,-3.6789,-3.7686,-3.7872,-3.7263,-3.9445,-4.0713,-4.1001,-4.1001,-4.1001,-4.1001,-4.1001,-4.0493,-3.9681,-4.0595,-4.0476,-3.9698,-4.0629,-4.1001,0.0,0.0,0.0,0.0,0.0,-4.007,-3.9901,-3.8599,-3.9005,-4.007,-4.007,-4.007,-4.007,-4.007,-3.9208,-3.821,-3.821,-3.7313,-3.6637,-3.7889,-3.821,-3.8531,-3.9783,-4.007,-4.007,-4.007,-3.9089,-3.8582,-3.9834,-3.9073,0.0,-3.9868,-3.9039,-3.7787,-3.6535,-3.6349,-3.6349,-3.6349,-3.7449,-3.821,-3.821,-3.7787,-3.8193,-3.9935,-3.7043,0.0,0.0,0.0,-3.6129,-3.4945,-3.4895,0.0,0.0,0.0,-2.9939,-3.119,0.0,0.0,0.0,-2.8902,-2.7994,0.0,0.0,0.0,0.0,0.0,0.0,0.0,0.0,0.0,0.0,0.0,0.0,0.0,0.0,0.0,0.0,-3.3677,-3.6062,-3.8734,-3.8565,-3.8159,-3.8159,-3.8159,-3.8413,-3.9056,-3.9106,-3.9394,-4.002,-4.007,-4.0121,-4.0206,0.0,0.0,0.0,0.0,-3.9343,-3.8041,-4.0223,-4.1644,-4.2286,-4.2286,-4.2286,-4.2286,-4.2286,-4.1221,-3.9478,-4.1441,-4.1187,-3.9512,-4.1474,-4.2286,-4.2151,-4.0747,-4.0155,-4.0054,-3.98,-3.9868,-4.0037,-3.9783,0.0,0.0,-4.007,-4.007,-4.007,-4.007,-3.8227,-3.6129,-3.6129,-3.4218,-3.2797,-3.5436,-3.6129,-3.6789,-3.9445,-4.007,-4.007,-4.007,-3.799,-3.6907,-3.9563,-3.7939,-3.6958,-3.9614,-3.7872,-3.5233,-3.2594,-3.2188,-3.2188,-3.2188,-3.4506,-3.6129,-3.6129,0.0,0.0,-4.0054,-3.6721,-3.618,-3.9851,-3.6282,-3.3728,-3.3068,-3.2882,-3.1224,-2.7892,-2.774,-2.9025,-3.1698,-3.1698,-3.3051,-3.5487,-3.0176,-2.9272,0.0,0.0,0.0,0.0,0.0,0.0,0.0,0.0,0.0,0.0,0.0,0.0,0.0,0.0,0.0,-3.5639,-3.755,-3.9208,-3.9783,-3.9749,-3.9648,-3.9648,-3.9648,-3.9715,-3.9851,-3.9868,-3.9935,-4.007,-4.007,-4.0341,-4.095,-3.9292,-3.8396,-3.8565,-3.8988,-3.9073,-3.8785,-4.0984,-4.2151,-4.2286,0.0,0.0,-4.2286,-4.2286,-4.2066,-4.1677,-4.21,-4.2049,-4.1677,-4.2117,-4.2286,-4.2202,-4.1322,-4.0612,-3.9868,-3.8075,-3.8548,-3.9817,-3.8041,-3.8582,-4.007,-4.007,-4.007,-4.007,-4.007,-3.9665,0.0,-3.9225,-3.8802,-3.8497,-3.9073,-3.9225,-3.936,-3.9935,-4.007,-4.007,-4.007,-3.9631,-3.9377,-3.9969,-3.9614,-3.9411,-3.9969,-3.9597,-3.9022,-3.8447,-3.8362,-3.8362,-3.8362,-3.887,-3.9225,-3.9225,-3.7567,-3.7466,-3.9868,-3.7195,-3.6738,-3.9884,-3.8717,-3.7838,-3.7702,-3.6535,-3.5571,-3.4844,-3.4218,-3.4184,-3.4759,-3.4759,-3.5064,-3.5588,-3.4438,-3.4201,0.0,0.0,0.0,0.0,0.0,0.0,0.0,0.0,0.0,0.0,0.0,-3.3406,0.0,0.0,-3.547,-3.6586,-3.7702,-3.8819,-3.9918,-4.007,-4.007,-4.007,-4.007,-4.007,-4.007,-4.0409,-4.0646,-4.0646,-4.0984,-4.1339,-4.1728,-4.0696,-3.9749,-3.9005,-4.007,-4.029,-3.9563,-4.1745,-4.3047,-4.3436,-4.3436,-4.3436,-4.3436,-4.3436,-4.3436,-4.3436,-4.3436,-4.3436,-4.3436,-4.3436,-4.32,-4.2811,-4.2455,-4.1847,-4.1052,-3.9952,-4.024,-4.0967,-3.9495,-3.9715,-4.0578,-4.0206,-4.007,-4.007,-4.007,-3.9039,-3.7855,-3.7855,-3.6772,-3.5977,-3.7449,-3.7855,-3.8227,-3.9715,-4.007,-4.007,-4.007,-4.007,-4.007,-4.007,-4.007,-4.007,-4.007,-4.007,-4.007,-4.007,-4.007,-4.007,-4.007,-4.007,-4.007,-4.007,-3.8734,-3.8447,-3.9952,-3.8717,-3.8497,-3.9986,-3.9732,-3.9377,-3.9005,-3.8278,-3.7533,-3.6789,-3.64,-3.6011,-3.5622,-3.5622,-3.5622,-3.5622,-3.5622,-3.5622,0.0,0.0,0.0,0.0,0.0,0.0,0.0,0.0,-3.459,-3.415,-3.4404,-3.4709,-3.4709,-3.4709,-3.5301,-3.7127,-3.755,-3.8261,-4.0037,-4.0426,-4.051,-4.051,-4.0375,-4.0358,-4.0493,-4.1052,-4.1407,-4.1407,-4.1965,-4.2354,-4.2506,-4.2506,-4.1762,-4.0121,-4.1813,-4.2168,-4.1001,-4.2743,-4.3961,-4.4587,-4.4587,-4.4587,-4.4587,-4.4587,-4.4587,-4.4587,-4.4587,-4.4587,-4.4587,-4.4587,-4.4215,-4.3639,-4.3639,-4.3267,-4.2692,-4.2405,-4.2286,-4.2202,-4.1627,-4.1407,-4.1322,-4.0713,-4.051,-4.051,-4.051,-3.8819,-3.6891,-3.6738,-3.4979,-3.366,-3.5893,-3.6485,-3.7094,-3.9512,-4.007,-4.007,-4.007,-4.007,-4.007,-4.007,-4.007,-4.007,-4.007,-4.007,-4.007,-4.007,-4.007,-4.007,-4.007,-4.007,-4.007,-4.007,-4.007,-4.007,-4.007,-4.007,-4.007,-4.007,-4.007,-3.9817,-3.9225,-3.9073,-3.8362,-3.7026,-3.6857,-3.64,-3.5622,-3.5622,-3.5622,-3.5622,-3.5622,-3.5622,-2.9329,-2.768,0.0,-2.9654,-3.1901,-3.3461,0.0,0.0,-3.8768,-3.6806,-3.7956,-3.9326,-3.9326,-3.9326,-3.9411,-3.9665,-4.0273,-4.0798,-4.1035,-4.1644,-4.2033,-4.2033,-4.1474,-4.1322,-4.1982,-4.2117,-4.2168,-4.2168,-4.2236,-4.2591,-4.325,-4.3301,-4.3487,-4.3944,-4.4198,-4.4248,-4.4079,-4.4316,-4.4485,-4.4587,-4.4587,-4.4587,-4.4587,-4.4587,-4.4587,-4.4587,-4.4587,-4.4587,-4.4587,-4.4587,-4.4536,-4.4451,-4.4451,-4.4401,-4.4164,-4.2794,-4.2286,-4.2286,-4.2202,-4.2168,-4.2151,-4.2066,-4.2033,-4.2033,-4.2033,-4.1813,-4.1407,-4.0764,-4.0341,-4.0003,-3.9665,-3.958,-3.9665,-4.0003,-4.007,-4.007,-4.007,-4.007,-4.007,-4.007,-4.007,-4.007,-4.007,-4.007,-4.007,-4.007,-4.007,-4.007,-4.007,-4.007,-4.007,-4.007,-4.007,-4.007,-4.007,-4.007,-4.007,-4.007,-4.007,-4.0037,-3.9952,-3.9343,-3.8616,-3.7787,-3.711,-3.64,-3.5622,-3.5622,-3.5622,-3.5622,-3.5622,-3.5622,-3.0497,0.0,0.0,0.0,-3.5038,-3.6687,-3.6588,-3.8405,-3.9699,-3.8321,-3.8752,-3.9368,-3.9368,-3.8685,-3.8706,0.0,-4.0273,-4.0375,-4.166,-4.21,-4.2455,-4.2895,-4.1525,-4.051,-4.0375,-4.1931,-4.2405,-4.1102,-4.2625,-4.3758,-4.4079,-4.4096,-4.4248,-4.457,-4.4587,-4.4587,-4.4587,-4.4587,-4.4587,-4.4587,-4.4587,-4.4587,-4.4587,-4.4587,-4.4587,-4.4587,-4.4587,-4.4587,-4.4587,-4.4587,-4.4587,-4.4587,-4.4587,-4.4587,-4.4502,-4.3859,-4.3623,-4.3555,-4.3098,-4.2946,-4.2878,-4.2439,-4.2286,-4.2286,-4.2286,-4.2286,-4.2236,-4.1931,-4.183,-4.1762,-4.1441,-4.1373,-4.1373,-4.1373,-4.1035,-4.073,-4.073,-4.0392,-4.007,-4.007,-4.007,-4.007,-4.007,-4.007,-4.007,-4.007,-4.007,-4.007,-4.007,-4.007,-4.007,-4.007,-4.007,-4.007,-4.007,-4.007,-4.007,-4.007,-4.007,-4.007,-4.007,-3.9783,-3.9276,-3.8548,-3.7821,-3.706,-3.6299,-3.5842,-3.5622,-3.5622,-3.5622,-3.5622,-3.0856,0.0,0.0,-3.5336,-3.6901,-3.8199,-3.8755,-3.9209,-3.9332,-3.8962,-3.8908,-3.9028,-3.9475,-3.8645,-3.8702,-4.1152,-4.0609,-4.054,-4.2371,-4.2597,-4.2644,-4.2757,-4.1373,-3.9698,-3.7922,-4.0815,-4.2388,-4.139,-4.3352,-4.4587,-4.4587,-4.4587,-4.4587,-4.4587,-4.4587,-4.4587,-4.4587,-4.4587,-4.4587,-4.4587,-4.4587,-4.4587,-4.4587,-4.4587,-4.4587,-4.4587,-4.4587,-4.4587,-4.4587,-4.4587,-4.4587,-4.4587,-4.4587,-4.4587,-4.4587,-4.4587,-4.4587,-4.4502,-4.3927,-4.3741,-4.3639,-4.3098,-4.2912,-4.2912,-4.2912,-4.2912,-4.2878,-4.2658,-4.2591,-4.2557,-4.2337,-4.2286,-4.2286,-4.2286,-4.188,-4.1508,-4.1508,-4.0916,-4.0392,-4.0392,-4.0223,-4.007,-4.007,-4.007,-4.007,-4.007,-4.007,-4.007,-4.007,-4.007,-4.007,-4.007,-4.007,-4.007,-4.007,-4.007,-4.007,-4.007,-4.007,-4.007,-4.007,-4.007,-3.9732,-3.9005,-3.8481,-3.7736,-3.6772,-3.6214,-3.5825,-3.5622,-3.5622,-3.5622,0.0,0.0,-3.0779,-3.4659,-3.5743,-3.6422,-3.8417,-3.8374,-3.8092,-3.8745,-3.8908,-3.9355,-4.0845,-4.1067,-4.1356,-4.2134,-4.2172,-4.2394,-4.3259,-4.3281,-4.2775,-4.142,-4.1221,-3.9445,0.0,-3.8667,-4.2151,-4.4282,-4.4536,-4.4587,-4.4587,-4.4587,-4.4587,-4.4587,-4.4587,-4.4587,-4.4587,-4.4587,-4.4587,-4.4587,-4.4587,-4.4587,-4.4587,-4.4587,-4.4587,-4.4587,-4.4587,-4.4587,-4.4587,-4.4587,-4.4587,-4.4587,-4.4587,-4.4587,-4.4587,-4.4587,-4.4587,-4.4587,-4.4553,-4.4536,-4.4536,-4.4519,-4.4502,-4.4502,-4.4502,-4.4502,-4.435,-4.3606,-4.3386,-4.3217,-4.2489,-4.2286,-4.2286,-4.2286,-4.2269,-4.2252,-4.2252,-4.1677,-4.117,-4.117,-4.0578,-4.007,-4.007,-4.007,-4.007,-4.007,-4.007,-4.007,-4.007,-4.007,-4.007,-4.007,-4.007,-4.007,-4.007,-4.007,-4.007,-4.007,-4.007,-4.007,-4.007,-4.007,-3.9732,-3.9005,-3.8971,-3.8244,-3.6772,-3.6755,-3.6349,-3.5622,-3.5622,-3.5622,0.0,0.0,-3.1962,-3.3748,-3.5256,-3.6503,-3.7196,-3.7616,-3.7863,-3.8149,-3.7054,-3.6422,-3.7416,-3.6896,-3.6961,-3.9021,-3.9079,-3.965,-4.2129,-4.0935,-4.0453,-4.2368,-4.0469,0.0,0.0,0.0,0.0,-4.0206,-4.2895,-4.4587,-4.4587,-4.4587,-4.4587,-4.4587,-4.4587,-4.4587,-4.4587,-4.4587,-4.4587,-4.4587,-4.4587,-4.4587,-4.4587,-4.4587,-4.4587,-4.4587,-4.4587,-4.4587,-4.4587,-4.4587,-4.4587,-4.4587,-4.4587,-4.4587,-4.4587,-4.4587,-4.4587,-4.4587,-4.4587,-4.4587,-4.4587,-4.4587,-4.4587,-4.4587,-4.4587,-4.4587,-4.4519,-4.4265,-4.4198,-4.413,-4.3876,-4.3809,-4.3809,-4.3809,-4.342,-4.3031,-4.3031,-4.2066,-4.1204,-4.1204,-4.0595,-4.007,-4.007,-4.007,-4.007,-4.007,-4.007,-4.007,-4.007,-4.007,-4.007,-4.007,-4.007,-4.007,-4.007,-4.007,-4.007,-4.007,-4.007,-4.007,-4.007,-4.007,-3.9969,-3.9715,-3.9242,-3.8497,-3.7533,-3.7026,-3.6383,-3.5622,-3.5622,-3.5622,-2.9789,-3.1438,-3.3211,-3.4364,-3.5631,-3.6615,-3.6615,-3.6814,-3.7134,-3.7594,-3.6667,-3.5826,-3.6142,-3.5498,-3.5554,-3.7632,-3.7422,-3.8168,-4.1533,-4.0485,-4.0091,-4.188,-4.0311,-3.9901,0.0,0.0,0.0,-3.9191,-4.1745,-4.3369,-4.3369,-4.3369,-4.3741,-4.4553,-4.4587,-4.4587,-4.4587,-4.4587,-4.4587,-4.4587,-4.4587,-4.4587,-4.4587,-4.4587,-4.4147,-4.342,-4.4231,-4.4113,-4.3436,-4.4248,-4.4587,-4.4587,-4.4587,-4.4587,-4.4587,-4.4587,-4.4587,-4.4587,-4.4587,-4.4587,-4.4587,-4.4587,-4.4587,-4.4587,-4.4587,-4.4587,-4.4587,-4.4587,-4.4587,-4.4587,-4.4587,-4.4587,-4.4587,-4.4587,-4.4198,-4.3826,-4.3826,-4.2658,-4.1593,-4.1593,-4.0764,-4.007,-4.007,-4.007,-4.007,-4.007,-4.007,-4.007,-4.007,-4.007,-4.007,-4.007,-4.007,-4.007,-4.007,-4.007,-4.007,-4.007,-4.007,-4.007,-4.007,-4.007,-4.007,-4.007,-3.9614,-3.8903,-3.7905,-3.7415,-3.6637,-3.5622,-3.5622,-3.5622,-3.1539,-3.3054,-3.4255,-3.6074,-3.6554,-3.6554,-3.6554,-3.6006,-3.5883,-3.714,-3.7296,-3.7047,0.0,0.0,-3.6669,-3.7568,-3.7074,-3.7746,-4.1247,-4.171,-4.1176,0.0,0.0,0.0,0.0,0.0,0.0,-4.1221,0.0,-4.1373,-4.1373,-4.1373,-4.2371,-4.4502,-4.4587,-4.4587,-4.4587,-4.4587,-4.4587,-4.4587,-4.4587,-4.4587,-4.4587,-4.4587,-4.3403,-4.1491,-4.3656,-4.3352,-4.1542,-4.369,-4.4587,-4.4587,-4.4587,-4.4587,-4.4587,-4.4587,-4.4587,-4.4587,-4.4587,-4.4587,-4.4587,-4.4587,-4.4587,-4.4587,-4.4587,-4.4587,-4.4587,-4.4587,-4.4587,-4.4587,-4.4587,-4.4587,-4.4587,-4.4587,-4.4587,-4.4587,-4.4587,-4.3369,-4.2286,-4.2286,-4.1102,-4.007,-4.007,-4.007,-4.007,-4.007,-4.007,-4.007,-4.007,-4.007,-4.007,-4.007,-4.007,-4.007,-4.007,-4.007,-4.007,-4.007,-4.007,-4.007,-4.007,-4.007,-4.007,-4.007,-4.007,-3.9377,-3.7973,-3.7973,-3.7195,-3.574,-3.574,-3.574,-3.0507,-3.2645,-3.5148,-3.5661,-3.5782,-3.5782,-3.5782,-3.5604,-3.5356,-3.4793,-3.341,-3.1972,0.0,0.0,0.0,-3.3398,-3.3287,0.0,-3.746,-3.7434,0.0,0.0,0.0,-4.09,-4.2706,-4.3386,0.0,0.0,-4.276,-4.3724,-4.3724,-4.3724,-4.3978,-4.4553,-4.4587,-4.4587,-4.4587,-4.4587,-4.4587,-4.4587,-4.4587,-4.4587,-4.4587,-4.4587,-4.4265,-4.3758,-4.4333,-4.4248,-4.3758,-4.435,-4.4587,-4.4587,-4.4587,-4.4587,-4.4587,-4.4587,-4.4587,-4.4587,-4.4587,-4.4587,-4.4587,-4.4587,-4.4587,-4.4587,-4.4587,-4.4587,-4.4587,-4.4587,-4.4587,-4.4587,-4.4587,-4.4587,-4.4587,-4.4587,-4.4587,-4.4587,-4.4587,-4.3369,-4.2286,-4.2286,-4.1102,-4.007,-4.007,-4.007,-4.007,-4.007,-4.007,-4.007,-4.007,-4.007,-4.007,-4.007,-4.007,-4.007,-4.007,-4.007,-4.007,-4.007,-4.007,-4.007,-4.007,-4.007,-4.007,-4.007,-4.007,-3.9631,-3.8717,-3.8717,-3.8244,-3.733,-3.733,-3.733,-3.2168,-3.3814,-3.5504,-3.5504,-3.5504,-3.528,-3.4397,-3.4188,-3.3817,-3.2562,-3.1339,0.0,0.0,0.0,0.0,0.0,0.0,0.0,-3.6058,-3.6468,-3.706,0.0,-3.9642,0.0,-4.3788,-4.4006,-4.3356,0.0,-4.2512,-4.2972,-4.259,-4.2534,-4.2839,-4.3453,-4.3814,-4.4196,-4.4587,-4.4587,-4.4587,-4.4587,-4.4587,-4.4587,-4.4587,-4.4587,-4.4028,-4.3149,0.0,-4.4012,-4.3183,-4.4164,-4.4587,-4.4587,-4.4587,-4.4587,-4.4587,-4.4587,-4.4587,-4.4587,-4.4587,-4.4587,-4.4587,-4.4587,-4.4587,-4.4587,-4.4587,-4.4587,-4.4587,-4.4587,-4.4587,-4.4587,-4.4587,-4.4587,-4.4587,-4.4587,-4.4587,-4.4485,-4.4147,-4.3132,-4.21,-4.1441,-4.0646,-4.007,-4.007,-4.007,-4.007,-4.007,-4.007,-4.007,-4.007,-4.007,-4.007,-4.007,-4.007,-4.007,-4.007,-4.007,-4.007,-4.007,-4.007,-4.007,-4.007,-4.007,-4.007,-4.007,-4.007,-3.9715,-3.8988,-3.8988,-3.8616,-3.7905,-3.7905,-3.7905,-3.4532,-3.531,-3.5504,-3.5504,-3.5504,-3.5055,-3.3305,-3.2706,-3.2108,-3.0672,0.0,-2.949,-2.791,0.0,-2.928,-3.133,0.0,-3.3365,-3.54,-3.6789,-3.7779,-3.8371,-3.9365,-4.0771,-4.2895,-4.2906,-4.2537,-4.2045,-4.1585,-4.0988,-4.0238,-4.0181,-4.0815,-4.2141,-4.2925,-4.368,-4.444,-4.431,-4.431,-4.444,-4.431,-4.4384,-4.457,-4.4384,-4.3322,-4.1762,-4.3597,0.0,-4.1796,-4.3758,-4.4587,-4.4587,-4.4587,-4.4587,-4.4587,-4.4587,-4.4587,-4.4587,-4.4587,-4.4587,-4.4587,-4.4587,-4.4587,-4.4587,-4.4587,-4.4587,-4.4587,-4.4587,-4.4587,-4.4587,-4.4587,-4.4587,-4.4587,-4.4587,-4.4502,-4.4231,-4.3572,-4.2743,-4.1745,-4.0341,-4.007,-4.007,-4.007,-4.007,-4.007,-4.007,-4.007,-4.007,-4.007,-4.007,-4.007,-4.007,-4.007,-4.007,-4.007,-4.007,-4.007,-4.007,-4.007,-4.007,-4.007,-4.007,-4.007,-4.007,-4.007,-3.9766,-3.914,-3.914,-3.8819,-3.8193,-3.8193,-3.8193,-3.32,-3.4233,-3.5504,-3.5504,-3.5504,-3.5415,-3.507,-3.3694,0.0,0.0,0.0,-2.7335,-2.758,-2.8128,0.0,-3.1943,0.0,0.0,0.0,0.0,-3.6386,0.0,0.0,0.0,0.0,0.0,0.0,0.0,0.0,-4.183,-4.1626,-4.1626,-4.207,-4.3031,-4.3246,-4.3366,-4.3502,-4.2831,-4.2831,-4.3502,-4.2785,-4.3213,-4.457,-4.3092,-4.3015,-4.4012,-4.3648,0.0,-4.4028,-4.4418,-4.4587,-4.4587,-4.4587,-4.4587,-4.4587,-4.4587,-4.4587,-4.4587,-4.4587,-4.4587,-4.4587,-4.4587,-4.4587,-4.4587,-4.4587,-4.4587,-4.4587,-4.4587,-4.4587,-4.4587,-4.4587,-4.4587,-4.4587,-4.4587,-4.4079,-4.3589,-4.3453,-4.2354,-4.1119,-4.0257,-4.007,-4.007,-4.007,-4.007,-4.007,-4.007,-4.007,-4.007,-4.007,-4.007,-4.007,-4.007,-4.007,-4.007,-4.007,-4.007,-4.007,-4.007,-4.007,-4.007,-4.007,-4.007,-4.007,-4.007,-4.007,-4.002,-3.9884,-3.9884,-3.9817,-3.9698,-3.9698,-3.9698,-3.2781,-3.3978,-3.5504,-3.5504,-3.5504,-3.4876,-3.2467,0.0,0.0,0.0,0.0,-2.5136,-2.545,0.0,0.0,0.0,0.0,0.0,0.0,0.0,0.0,0.0,0.0,0.0,0.0,0.0,0.0,0.0,0.0,-3.9788,-4.1217,-4.0894,-4.1028,-4.1933,-4.1933,-4.2189,-4.2645,-4.2189,-4.2189,-4.2645,-4.2189,-4.2442,-4.3229,-4.2379,-4.2707,-4.3873,-4.3486,0.0,-4.2912,-4.4096,-4.3876,-4.2946,-4.4113,-4.4587,-4.4587,-4.4587,-4.4587,-4.4587,-4.4587,-4.4587,-4.4587,-4.4587,-4.4587,-4.4587,-4.4587,-4.4587,-4.4587,-4.4587,-4.4587,-4.4587,-4.4587,-4.4587,-4.4587,-4.4587,-4.369,-4.2726,-4.2354,-4.1407,-4.051,-4.0155,-4.007,-4.007,-4.007,-4.007,-4.007,-4.007,-3.9714,-3.961,-4.007,-3.9731,-3.961,-4.007,-4.007,-4.007,-4.007,-4.007,-4.007,-4.007,-4.007,-4.007,-4.007,-4.007,-4.007,-4.007,-4.007,-4.007,-4.007,-4.007,-4.007,-4.007,-4.007,-4.007,-3.2916,-3.4203,-3.5504,-3.5504,-3.5504,-3.4412,-3.0193,-2.931,0.0,0.0,-2.3355,-2.361,-2.4328,0.0,0.0,0.0,0.0,0.0,0.0,0.0,0.0,0.0,0.0,0.0,0.0,0.0,0.0,0.0,0.0,0.0,-4.0286,-3.992,-3.999,-4.069,-4.069,-4.1013,-4.1723,-4.1543,-4.1543,-4.1739,-4.1543,-4.1739,-4.2252,-4.1674,-4.2189,-4.3562,-4.3169,0.0,0.0,-4.3639,-4.325,-4.1441,-4.369,-4.4587,-4.4587,-4.4587,-4.4587,-4.4587,-4.4587,-4.4587,-4.4587,-4.4587,-4.4587,-4.4587,-4.4587,-4.4457,-4.4327,-4.4327,-4.4196,-4.4047,-4.4047,-4.4047,-4.398,-4.3662,-4.2674,-4.1569,-4.0682,-4.015,-3.9833,-3.9833,-3.9952,-4.007,-3.9885,-3.9833,-3.9782,-3.9627,-3.9102,-3.887,-3.9506,-3.9049,-3.8978,-3.9782,-4.002,-4.007,-4.007,-4.007,-4.007,-4.007,-4.007,-4.007,-4.007,-4.007,-4.007,-4.007,-4.007,-4.007,-4.007,-4.007,-4.007,-4.007,-4.007,-4.007,-3.3649,-3.4891,-3.5504,-3.5504,-3.5504,-3.4756,-3.1913,0.0,0.0,-2.5809,-2.3969,-2.367,-2.6662,-2.726,0.0,0.0,0.0,0.0,0.0,0.0,0.0,0.0,0.0,0.0,0.0,0.0,0.0,0.0,0.0,0.0,-3.9538,-4.017,-4.0622,-4.069,-4.069,-4.0758,-4.0826,-4.006,-4.006,-4.0811,-3.999,-4.0909,-4.3108,-4.0706,-4.1412,-4.4384,-4.2831,0.0,0.0,-4.3639,-4.325,-4.1441,-4.369,-4.4587,-4.4587,-4.4587,-4.4587,-4.4587,-4.4587,-4.4587,-4.4587,-4.4587,-4.4587,-4.4587,-4.4587,-4.4064,-4.3443,-4.3443,-4.2847,-4.2252,-4.2252,-4.2252,-4.1931,-4.0627,-4.0224,-3.9758,-3.8422,-3.8574,-3.9016,-3.9016,-3.961,-3.985,-3.9139,-3.9016,-3.8799,-3.8092,-3.7921,-3.7921,-3.7978,-3.7921,-3.8206,-3.8908,-3.9662,-4.007,-4.007,-4.007,-4.007,-4.007,-4.007,-4.007,-4.007,-4.007,-4.007,-4.007,-4.007,-4.007,-4.007,-4.007,-4.007,-4.007,-4.007,-4.007,-3.0866,-3.317,-3.5504,-3.5504,-3.5504,-3.4397,-3.0118,0.0,0.0,-2.3984,-2.2951,-2.3233,-2.4866,-2.5181,-2.6138,0.0,0.0,0.0,0.0,0.0,0.0,0.0,0.0,0.0,0.0,0.0,0.0,0.0,0.0,0.0,-3.9364,-3.9737,-3.992,-3.992,-3.992,-3.992,-3.992,-3.9538,-3.9538,-3.992,-3.9538,-3.9935,-4.0909,-3.9864,-4.0447,-4.2236,-4.1528,0.0,0.0,-4.1589,-4.0983,-3.8253,-4.1671,-4.335,-4.3814,-4.3814,-4.3814,-4.3814,-4.3814,-4.3814,-4.3814,-4.3814,-4.4196,-4.4587,-4.4587,-4.4384,-4.4064,-4.4064,-4.3798,-4.341,-4.2909,-4.2395,-4.1757,-4.0766,-4.0206,-3.9614,-3.8595,-3.8341,-3.8246,-3.8246,-3.8486,-3.8596,-3.8318,-3.8246,-3.8149,-3.7863,-3.7397,-3.7263,-3.7748,-3.7397,-3.7381,-3.8133,-3.8924,-3.9558,-4.007,-4.007,-4.007,-4.007,-4.007,-4.007,-4.007,-4.007,-4.007,-4.007,-4.007,-4.007,-4.007,-4.007,-4.007,-4.007,-4.007,-4.007,-2.9205,-3.2123,-3.525,-3.5459,-3.4906,-3.314,0.0,0.0,0.0,-2.2188,-2.1934,-2.2577,-2.3206,-2.3475,-2.4462,-2.7141,0.0,0.0,0.0,0.0,0.0,0.0,0.0,0.0,0.0,0.0,0.0,0.0,0.0,0.0,-3.9349,-3.9424,-3.9424,-3.9424,-3.9424,-3.9424,-3.9424,-3.9424,-3.9424,-3.9424,-3.9424,-3.9238,-3.8946,-3.9283,-3.9656,-4.0188,-4.0546,0.0,0.0,-4.051,-3.987,-3.6917,-4.059,-4.2395,-4.2909,-4.2909,-4.2909,-4.2909,-4.2909,-4.2909,-4.2909,-4.2909,-4.335,-4.3856,-4.3856,-4.4006,-4.4138,-4.3914,-4.3469,-4.2909,-4.2332,-4.169,-4.0993,-4.0114,-3.9502,-3.8905,-3.8042,-3.7626,-3.7456,-3.7456,-3.7632,-3.769,-3.7515,-3.7456,-3.7338,-3.7115,-3.6646,-3.6461,-3.7071,-3.6646,-3.6569,-3.7338,-3.7889,-3.8619,-3.9662,-3.9731,-3.985,-4.007,-4.007,-4.007,-4.007,-3.9885,-3.9731,-3.9731,-3.9731,-3.9731,-3.9731,-3.9952,-4.007,-4.007,-4.007,-4.007,-2.9774,-3.2437,-3.4651,-3.5325,-3.3514,-3.0866,0.0,0.0,0.0,-2.1126,-2.1246,-2.1904,-2.2604,-2.3191,-2.4462,-2.7141,-2.7625,0.0,0.0,0.0,0.0,0.0,0.0,0.0,0.0,0.0,0.0,0.0,0.0,0.0,-3.9424,-3.9424,-3.9424,-3.9424,-3.9424,-3.9424,-3.9424,-3.9424,-3.9424,-3.9424,-3.9424,-3.8834,-3.7746,-3.8901,-3.9272,-3.9076,0.0,0.0,0.0,-4.1039,-4.0671,-3.8826,-4.1087,-4.1997,-4.1997,-4.1997,-4.1997,-4.1997,-4.1997,-4.1997,-4.1997,-4.1997,-4.1997,-4.2062,-4.2062,-4.2645,-4.3108,-4.2252,-4.0774,-3.9409,-3.9409,-3.9409,-3.908,-3.7734,-3.7404,-3.706,-3.5789,-3.6117,-3.66,-3.66,-3.7279,-3.7573,-3.6722,-3.66,-3.6384,-3.5619,-3.5504,-3.5504,-3.5504,-3.5504,-3.5782,-3.6554,-3.66,-3.7247,-3.8799,-3.8908,-3.9262,-4.007,-4.007,-4.007,-4.007,-3.9315,-3.8908,-3.8908,-3.8908,-3.8908,-3.8908,-3.9714,-4.007,-4.007,-4.007,-4.007,-2.5555,-2.7724,-2.9858,-3.0028,-2.9445,-2.8128,-2.5465,0.0,0.0,-2.1111,-2.0887,-2.1365,-2.2473,-2.2847,-2.3984,-2.7115,-2.7625,0.0,0.0,0.0,0.0,0.0,0.0,0.0,0.0,0.0,0.0,0.0,0.0,0.0,-3.9349,-3.9424,-3.9424,-3.9424,-3.9424,-3.9424,-3.9424,-3.9424,-3.9424,-3.9424,-3.9424,-3.8517,-3.697,-3.8652,-3.865,0.0,0.0,0.0,0.0,-3.936,-3.9008,-3.7388,-3.9405,-4.0569,-4.108,-4.108,-4.108,-4.108,-4.108,-4.108,-4.108,-4.108,-4.1528,-4.1997,-4.1997,-4.2189,-4.2316,-4.2062,-4.1147,-4.0309,-4.0309,-3.9864,-3.92,-3.8287,-3.7734,-3.718,-3.6357,-3.5999,-3.5831,-3.5831,-3.6085,-3.6133,-3.5894,-3.5831,-3.5782,-3.5569,-3.5504,-3.5504,-3.5504,-3.5504,-3.5619,-3.5831,-3.5831,-3.6477,-3.8035,-3.8149,-3.8262,-3.8486,-3.8541,-3.8541,-3.8541,-3.8262,-3.8149,-3.8149,-3.8149,-3.8149,-3.8149,-3.8924,-3.9542,-4.007,-4.007,-4.007,0.0,-2.5181,-2.6946,-2.744,-2.6861,0.0,0.0,0.0,0.0,0.0,-2.1321,-2.2218,-2.2293,-2.3325,-2.4567,-2.5869,-2.7754,0.0,0.0,0.0,0.0,0.0,0.0,0.0,0.0,0.0,0.0,0.0,0.0,0.0,-3.9349,-3.9424,-3.9424,-3.9424,-3.9424,-3.9424,-3.9424,-3.9424,-3.9424,-3.9424,-3.9424,-3.8392,-3.6552,-3.8527,-3.8347,0.0,0.0,0.0,0.0,-3.8916,-3.8691,-3.7719,-3.8945,-3.9737,-4.0185,-4.0185,-4.0185,-4.0185,-4.0185,-4.0185,-4.0185,-4.0185,-4.0569,-4.1028,-4.1028,-4.1213,-4.1543,-4.1543,-4.0894,-4.0185,-4.0185,-3.9612,-3.8856,-3.8182,-3.7524,-3.6881,-3.6252,-3.5789,-3.5504,-3.5504,-3.5504,-3.5504,-3.5504,-3.5504,-3.5504,-3.5504,-3.5504,-3.5504,-3.5504,-3.5504,-3.5504,-3.5504,-3.5504,-3.591,-3.6829,-3.7175,-3.7456,-3.7764,-3.7822,-3.7822,-3.7822,-3.7515,-3.7338,-3.7338,-3.7338,-3.7338,-3.7338,-3.8398,-3.9139,-3.9662,-3.9662,-3.9662,0.0,0.0,0.0,0.0,0.0,0.0,0.0,0.0,0.0,0.0,0.0,0.0,0.0,-2.4582,-2.6138,-2.4133,0.0,0.0,0.0,0.0,0.0,0.0,0.0,0.0,0.0,0.0,0.0,0.0,0.0,0.0,-3.9424,-3.9424,-3.9424,-3.9424,-3.9424,-3.9424,-3.9424,-3.9424,-3.9349,-3.9215,-3.9349,-3.8317,-3.6342,-3.8452,-3.8347,0.0,0.0,0.0,0.0,-3.9424,-3.9424,-3.9424,-3.9424,-3.9424,-3.9424,-3.9424,-3.9424,-3.9424,-3.9424,-3.9424,-3.9424,-3.9424,-3.9424,-3.9424,-3.9424,-3.999,-4.0622,-4.0622,-4.006,-3.9409,-3.9364,-3.8871,-3.8212,-3.7509,-3.6911,-3.6312,-3.5654,-3.5504,-3.5504,-3.5504,-3.5504,-3.5504,-3.5504,-3.5504,-3.5504,-3.5504,-3.5504,-3.5504,-3.5504,-3.5504,-3.5504,-3.5504,-3.5504,-3.5504,-3.5504,-3.6117,-3.6859,-3.7589,-3.7648,-3.7648,-3.7648,-3.6919,-3.6492,-3.6492,-3.6492,-3.6554,-3.6615,-3.8044,-3.8745,-3.8799,-3.8799,-3.8854,-2.0303,0.0,-2.1036,-2.0842,-2.0692,0.0,0.0,0.0,0.0,0.0,0.0,0.0,0.0,0.0,0.0,0.0,0.0,0.0,0.0,0.0,0.0,0.0,0.0,0.0,0.0,0.0,0.0,0.0,0.0,-3.9424,-3.9424,-3.9424,-3.9424,-3.9424,-3.9424,-3.9424,-3.9424,-3.9424,-3.8661,-3.7195,-3.8706,-3.7584,-3.4322,-3.7823,-3.8347,0.0,0.0,0.0,-3.9424,-3.9424,-3.9424,-3.9424,-3.9424,-3.9424,-3.9424,-3.9424,-3.9424,-3.9424,-3.9424,-3.9424,-3.9424,-3.9424,-3.9424,-3.9424,-3.9424,-3.9538,-3.9737,-3.9737,-3.9538,-3.929,-3.8766,-3.8512,-3.8108,-3.6971,-3.6596,-3.6312,-3.5654,-3.5504,-3.5504,-3.5504,-3.5504,-3.5504,-3.5504,-3.5504,-3.5504,-3.5504,-3.5504,-3.5504,-3.5504,-3.5504,-3.5504,-3.5504,-3.5504,-3.5504,-3.5504,-3.5668,-3.5846,-3.6022,-3.6022,-3.6022,-3.6022,-3.5846,-3.5782,-3.5782,-3.5782,-3.6054,-3.6615,-3.6948,-3.7483,-3.8035,-3.8035,-3.8358,-1.9226,-1.945,-1.9884,-2.0737,-2.0543,-2.0393,0.0,0.0,0.0,0.0,0.0,0.0,0.0,0.0,0.0,0.0,0.0,0.0,0.0,0.0,0.0,0.0,0.0,0.0,0.0,0.0,0.0,0.0,0.0,-3.9424,-3.9424,-3.9424,-3.9424,-3.9424,-3.9424,-3.9424,-3.9424,-3.9424,-3.8437,-3.6507,-3.8482,-3.7823,-3.4966,-3.8033,-3.8841,0.0,0.0,0.0,-3.9349,-3.8452,-3.8616,-3.9424,-3.9424,-3.9424,-3.9424,-3.9424,-3.9424,-3.9424,-3.9424,-3.9424,-3.9424,-3.9424,-3.9424,-3.9424,-3.9424,-3.92,-3.8945,-3.8945,-3.8945,-3.8796,-3.8123,-3.7734,-3.7345,-3.6656,-3.6252,-3.5938,-3.5579,-3.5504,-3.5504,-3.5504,-3.5504,-3.5504,-3.5504,-3.5504,-3.5504,-3.5504,-3.5504,-3.5504,-3.5504,-3.5504,-3.5504,-3.5504,-3.5504,-3.5504,-3.5504,-3.5504,-3.5504,-3.5504,-3.5504,-3.5504,-3.5504,-3.5504,-3.5504,-3.5504,-3.5504,-3.5831,-3.6615,-3.6615,-3.6843,-3.7263,-3.7263,-3.7483,-1.9016,-1.9331,-2.0423,-2.2862,-2.2069,-2.1216,0.0,0.0,0.0,0.0,0.0,0.0,0.0,0.0,0.0,0.0,0.0,0.0,0.0,0.0,0.0,0.0,0.0,0.0,0.0,0.0,0.0,0.0,0.0,-3.9424,-3.9424,-3.9424,-3.9424,-3.9424,-3.9424,-3.9424,-3.9424,-3.9424,-3.8437,-3.6507,-3.8482,-3.8392,-3.6552,-3.8527,-3.9424,-3.9334,0.0,0.0,-3.929,-3.7629,-3.7913,-3.9424,-3.9424,-3.9424,-3.9424,-3.9424,-3.9424,-3.9424,-3.9424,-3.9424,-3.9424,-3.9424,-3.9349,-3.926,-3.926,-3.8781,-3.8227,-3.8123,-3.8167,-3.8093,-3.7434,-3.6881,-3.6462,-3.6357,-3.5908,-3.5504,-3.5504,-3.5504,-3.5504,-3.5504,-3.5504,-3.5504,-3.5504,-3.5504,-3.5504,-3.5504,-3.5504,-3.5504,-3.5504,-3.5504,-3.5504,-3.5504,-3.5504,-3.5504,-3.5504,-3.5504,-3.5504,-3.5504,-3.5504,-3.5504,-3.5504,-3.5504,-3.5504,-3.5504,-3.5504,-3.5846,-3.6446,-3.6446,-3.6446,-3.6446,-3.6446,-3.6492,-1.9555,-2.0034,-2.0917,-2.2443,-2.1754,-2.1216,0.0,0.0,0.0,0.0,0.0,0.0,0.0,0.0,0.0,0.0,0.0,0.0,0.0,0.0,0.0,0.0,0.0,0.0,0.0,0.0,0.0,0.0,0.0,-3.9424,-3.9424,-3.9424,-3.9424,-3.9424,-3.9424,-3.9424,-3.9424,-3.9424,-3.8437,-3.6507,-3.8482,-3.8392,-3.6552,-3.8527,-3.9424,-3.9409,0.0,-3.914,-3.9394,-3.9095,-3.9155,-3.9424,-3.9424,-3.9424,-3.9424,-3.9424,-3.9424,-3.9424,-3.9424,-3.9424,-3.9424,-3.9424,-3.902,-3.8542,-3.8542,-3.8093,-3.7449,-3.6926,-3.715,-3.7419,-3.6791,-3.6552,-3.6357,-3.5789,-3.5579,-3.5504,-3.5504,-3.5504,-3.5504,-3.5504,-3.5504,-3.5504,-3.5504,-3.5504,-3.5504,-3.5504,-3.5504,-3.5504,-3.5504,-3.5504,-3.5504,-3.5504,-3.5504,-3.5504,-3.5504,-3.5504,-3.5504,-3.5504,-3.5504,-3.5504,-3.5504,-3.5504,-3.5504,-3.5504,-3.5504,-3.5554,-3.5668,-3.5668,-3.5668,-3.5668,-3.5668,-3.6006,-1.969,-2.0438,-2.1904,-2.4642,-2.2996,-2.1979,-2.6782,0.0,0.0,0.0,0.0,0.0,0.0,0.0,0.0,0.0,0.0,0.0,0.0,0.0,0.0,0.0,0.0,0.0,0.0,0.0,0.0,0.0,0.0,0.0,-3.9424,-3.9424,-3.9424,-3.9424,-3.9424,-3.9424,-3.9424,-3.9424,-3.8437,-3.6507,-3.8482,-3.8392,-3.6552,-3.8527,-3.9424,-3.9364,0.0,-3.8437,-3.9334,-3.8272,-3.8452,-3.9424,-3.9424,-3.9424,-3.9424,-3.9424,-3.9424,-3.9424,-3.9424,-3.917,-3.8856,-3.8856,-3.8407,-3.7853,-3.7853,-3.7419,-3.6851,-3.6567,-3.6686,-3.6761,-3.6133,-3.5953,-3.5878,-3.5579,-3.5504,-3.5504,-3.5504,-3.5504,-3.5504,-3.5504,-3.5504,-3.5504,-3.5504,-3.5504,-3.5504,-3.5504,-3.5504,-3.5504,-3.5504,-3.5504,-3.5504,-3.5504,-3.5504,-3.5504,-3.5504,-3.5504,-3.5504,-3.5504,-3.5504,-3.5504,-3.5504,-3.5504,-3.5504,-3.5504,-3.5504,-3.5504,-3.5504,-3.5504,-3.5504,-3.5504,-3.5504,-3.5668,-1.969,-2.0438,-2.2099,-2.5734,0.0,-2.2802,-2.9854,0.0,0.0,0.0,0.0,0.0,0.0,0.0,0.0,0.0,0.0,0.0,0.0,0.0,0.0,0.0,0.0,0.0,0.0,0.0,0.0,0.0,0.0,0.0,-3.9424,-3.9424,-3.9424,-3.9424,-3.9424,-3.9424,-3.9424,-3.9424,-3.8661,-3.7195,-3.8706,-3.8631,-3.7225,-3.8736,-3.9424,-3.9334,-3.7823,-3.8018,-3.9305,-3.7793,-3.8063,-3.9424,-3.9424,-3.9424,-3.9394,-3.923,-3.9185,-3.9155,-3.9005,-3.8601,-3.8167,-3.8167,-3.7719,-3.7195,-3.7195,-3.6761,-3.6252,-3.6252,-3.6252,-3.6148,-3.5639,-3.5504,-3.5504,-3.5504,-3.5504,-3.5504,-3.5504,-3.5504,-3.5504,-3.5504,-3.5504,-3.5504,-3.5504,-3.5504,-3.5504,-3.5504,-3.5504,-3.5504,-3.5504,-3.5504,-3.5504,-3.5504,-3.5504,-3.5504,-3.5504,-3.5504,-3.5504,-3.5504,-3.5504,-3.5504,-3.5504,-3.5504,-3.5504,-3.5504,-3.5504,-3.5504,-3.5504,-3.5504,-3.5504,-3.5504,-3.5504,-3.5504,-1.969,-1.975,-2.0483,-2.3206,0.0,0.0,-3.0013,-2.5836,0.0,0.0,0.0,0.0,0.0,0.0,0.0,0.0,0.0,0.0,0.0,0.0,0.0,0.0,0.0,0.0,0.0,0.0,0.0,0.0,0.0,0.0,-3.9424,-3.9424,-3.9424,-3.9424,-3.9424,-3.9424,-3.9424,-3.9424,-3.9349,-3.9215,-3.9349,-3.9349,-3.9215,-3.9349,-3.9424,-3.9409,-3.9275,-3.929,-3.9409,-3.9275,-3.929,-3.9424,-3.9424,-3.9424,-3.9334,-3.8691,-3.8467,-3.8377,-3.7764,-3.7524,-3.7479,-3.7479,-3.706,-3.6552,-3.6552,-3.6088,-3.5579,-3.5579,-3.5579,-3.5564,-3.5519,-3.5504,-3.5504,-3.5504,-3.5504,-3.5504,-3.5504,-3.5504,-3.5504,-3.5504,-3.5504,-3.5504,-3.5504,-3.5504,-3.5504,-3.5504,-3.5504,-3.5504,-3.5504,-3.5504,-3.5504,-3.5504,-3.5504,-3.5504,-3.5504,-3.5504,-3.5504,-3.5504,-3.5504,-3.5504,-3.5504,-3.5504,-3.5504,-3.5504,-3.5504,-3.5504,-3.5504,-3.5504,-3.5504,-3.5504,-3.5504,-3.5504,-1.969,-1.9989,-2.1246,-2.5106,0.0,0.0,0.0,0.0,0.0,0.0,0.0,0.0,0.0,0.0,0.0,0.0,0.0,0.0,0.0,0.0,0.0,0.0,0.0,0.0,0.0,0.0,0.0,0.0,0.0,0.0,-3.9424,-3.9424,-3.9424,-3.9424,-3.9424,-3.9424,-3.9424,-3.9424,-3.9424,-3.9424,-3.9424,-3.9424,-3.9424,-3.9424,-3.9185,-3.8781,-3.8781,-3.8542,-3.8167,-3.8167,-3.8167,-3.8167,-3.8167,-3.8167,-3.8138,-3.7883,-3.7778,-3.7749,-3.7494,-3.715,-3.6836,-3.6836,-3.6402,-3.5878,-3.5878,-3.5699,-3.5504,-3.5504,-3.5504,-3.5504,-3.5504,-3.5504,-3.5504,-3.5504,-3.5504,-3.5504,-3.5504,-3.5504,-3.5504,-3.5504,-3.5504,-3.5504,-3.5504,-3.5504,-3.5504,-3.5504,-3.5504,-3.5504,-3.5504,-3.5504,-3.5504,-3.5504,-3.5504,-3.5504,-3.5504,-3.5504,-3.5504,-3.5504,-3.5504,-3.5504,-3.5504,-3.5504,-3.5504,-3.5504,-3.5504,-3.5504,-3.5504,-3.5504,-3.5504,-3.5504,-3.5504,-3.5504,-1.9435,-1.9869,-2.1306,0.0,0.0,0.0,0.0,0.0,0.0,0.0,0.0,0.0,0.0,0.0,0.0,0.0,0.0,0.0,0.0,0.0,0.0,0.0,0.0,0.0,0.0,0.0,0.0,0.0,0.0,0.0,0.0,-3.9305,-3.932,-3.9095,-3.9095,-3.899,-3.8781,-3.8781,-3.8781,-3.8781,-3.8781,-3.8886,-3.9095,-3.8886,-3.8527,-3.8078,-3.8078,-3.7823,-3.7404,-3.7404,-3.7404,-3.7404,-3.7404,-3.7404,-3.7389,-3.7195,-3.712,-3.709,-3.6881,-3.6522,-3.6178,-3.6178,-3.5863,-3.5504,-3.5504,-3.5504,-3.5504,-3.5504,-3.5504,-3.5504,-3.5504,-3.5504,-3.5504,-3.5504,-3.5504,-3.5504,-3.5504,-3.5504,-3.5504,-3.5504,-3.5504,-3.5504,-3.5504,-3.5504,-3.5504,-3.5504,-3.5504,-3.5504,-3.5504,-3.5504,-3.5504,-3.5504,-3.5504,-3.5504,-3.5504,-3.5504,-3.5504,-3.5504,-3.5504,-3.5504,-3.5504,-3.5504,-3.5504,-3.5504,-3.5504,-3.5504,-3.5504,-3.5504,-3.5504,-3.5504,-3.5504,-3.5504,-1.8912,-1.9196,0.0,0.0,0.0,0.0,0.0,0.0,0.0,0.0,0.0,0.0,0.0,0.0,0.0,0.0,0.0,0.0,0.0,0.0,0.0,0.0,0.0,0.0,0.0,0.0,0.0,0.0,0.0,0.0,0.0,-3.9035,-3.9095,-3.8407,-3.8377,-3.8063,-3.7419,-3.7404,-3.7404,-3.7404,-3.7404,-3.7749,-3.8362,-3.7704,-3.7404,-3.7404,-3.7404,-3.7404,-3.7389,-3.7389,-3.7389,-3.7389,-3.7389,-3.7389,-3.7315,-3.6701,-3.6477,-3.6387,-3.5729,-3.5504,-3.5504,-3.5504,-3.5504,-3.5504,-3.5504,-3.5504,-3.5504,-3.5504,-3.5504,-3.5504,-3.5504,-3.5504,-3.5504,-3.5504,-3.5504,-3.5504,-3.5504,-3.5504,-3.5504,-3.5504,-3.5504,-3.5504,-3.5504,-3.5504,-3.5504,-3.5504,-3.5504,-3.5504,-3.5504,-3.5504,-3.5504,-3.5504,-3.5504,-3.5504,-3.5504,-3.5504,-3.5504,-3.5504,-3.5504,-3.5504,-3.5504,-3.5504,-3.5504,-3.5504,-3.5504,-3.5504,-3.5504,-3.5504,-3.5504,-3.5504,-3.5504,-3.5504,-2.1171,0.0,0.0,0.0,0.0,0.0,0.0,0.0,0.0,0.0,0.0,0.0,0.0,0.0,0.0,0.0,0.0,0.0,0.0,0.0,0.0,0.0,0.0,0.0,0.0,0.0,0.0,0.0,0.0,0.0,0.0,-3.7898,-3.7913,-3.7704,-3.7704,-3.7599,-3.7404,-3.7404,-3.7404,-3.7404,-3.6971,-3.709,-3.7689,-3.7494,-3.7165,-3.6761,-3.6761,-3.6492,-3.6073,-3.6073,-3.6073,-3.6073,-3.6073,-3.6073,-3.6043,-3.5863,-3.5804,-3.5774,-3.5579,-3.5504,-3.5504,-3.5504,-3.5504,-3.5504,-3.5504,-3.5504,-3.5504,-3.5504,-3.5504,-3.5504,-3.5504,-3.5504,-3.5504,-3.5504,-3.5504,-3.5504,-3.5504,-3.5504,-3.5504,-3.5504,-3.5504,-3.5504,-3.5504,-3.5504,-3.5504,-3.5504,-3.5504,-3.5504,-3.5504,-3.5504,-3.5504,-3.5504,-3.5504,-3.5504,-3.5504,-3.5504,-3.5504,-3.5504,-3.5504,-3.5504,-3.5504,-3.5504,-3.5504,-3.5504,-3.5504,-3.5504,-3.5504,-3.5504,-3.5504,-3.5504,-3.5504,-3.5504,-2.1635,0.0,0.0,0.0,0.0,0.0,0.0,0.0,0.0,0.0,0.0,0.0,0.0,0.0,0.0,0.0,0.0,0.0,0.0,0.0,0.0,0.0,0.0,0.0,0.0,0.0,0.0,0.0,0.0,0.0,0.0,-3.727,-3.73,-3.7045,-3.7045,-3.6911,-3.6656,-3.6656,-3.6656,-3.6641,-3.6282,-3.6282,-3.6656,-3.6656,-3.6447,-3.6088,-3.6088,-3.5863,-3.5504,-3.5504,-3.5504,-3.5504,-3.5504,-3.5504,-3.5504,-3.5504,-3.5504,-3.5504,-3.5504,-3.5504,-3.5504,-3.5504,-3.5504,-3.5504,-3.5504,-3.5504,-3.5504,-3.5504,-3.5504,-3.5504,-3.5504,-3.5504,-3.5504,-3.5504,-3.5504,-3.5504,-3.5504,-3.5504,-3.5504,-3.5504,-3.5504,-3.5504,-3.5504,-3.5504,-3.5504,-3.5504,-3.5504,-3.5504,-3.5504,-3.5504,-3.5504,-3.5504,-3.5504,-3.5504,-3.5504,-3.5504,-3.5504,-3.5504,-3.5504,-3.5504,-3.5504,-3.5504,-3.5504,-3.5504,-3.5504,-3.5504,-3.5504,-3.5504,-3.5504,-3.5504,-3.5504,-3.5504,0.0,0.0,0.0,0.0,0.0,0.0,0.0,0.0,0.0,0.0,0.0,0.0,0.0,0.0,0.0,0.0,0.0,0.0,0.0,0.0,0.0,0.0,0.0,0.0,0.0,0.0,0.0,0.0,0.0,0.0,0.0,-3.6926,-3.6985,-3.6417,-3.6402,-3.6118,-3.5504,-3.5504,-3.5504,-3.5504,-3.5504,-3.5504,-3.5504,-3.5504,-3.5504,-3.5504,-3.5504,-3.5504,-3.5504,-3.5504,-3.5504,-3.5504,-3.5504,-3.5504,-3.5504,-3.5504,-3.5504,-3.5504,-3.5504,-3.5504,-3.5504,-3.5504,-3.5504,-3.5504,-3.5504,-3.5504,-3.5504,-3.5504,-3.5504,-3.5504,-3.5504,-3.5504,-3.5504,-3.5504,-3.5504,-3.5504,-3.5504,-3.5504,-3.5504,-3.5504,-3.5504,-3.5504,-3.5504,-3.5504,-3.5504,-3.5504,-3.5504,-3.5504,-3.5504,-3.5504,-3.5504,-3.5504,-3.5504,-3.5504,-3.5504,-3.5504,-3.5504,-3.5504,-3.5504,-3.5504,-3.5504,-3.5504,-3.5504,-3.5504,-3.5504,-3.5504,-3.5504,-3.5504,-3.5504,-3.5504,-3.5504,-3.5504,0.0,0.0,0.0,0.0,0.0,0.0,0.0,0.0,0.0,0.0,0.0,0.0,0.0,0.0,0.0,0.0,0.0,0.0,0.0,0.0,0.0,0.0,0.0,0.0,0.0,0.0,0.0,0.0,0.0,0.0,-3.5714,-3.5848,-3.5848,-3.5729,-3.5714,-3.5654,-3.5504,-3.5504,-3.5504,0.0,-3.5504,-3.5504,-3.5504,-3.5504,-3.5504,-3.5504,-3.5504,-3.5504,-3.5504,-3.5504,-3.5504,-3.5504,-3.5504,-3.5504,-3.5504,-3.5504,-3.5504,-3.5504,-3.5504,-3.5504,-3.5504,-3.5504,-3.5504,-3.5504,-3.5504,-3.5504,-3.5504,-3.5504,-3.5504,-3.5504,-3.5504,-3.5504,-3.5504,-3.5504,-3.5504,-3.5504,-3.5504,-3.5504,-3.5504,-3.5504,-3.5504,-3.5504,-3.5504,-3.5504,-3.5504,-3.5504,-3.5504,-3.5504,-3.5504,-3.5504,-3.5504,-3.5504,-3.5504,-3.5504,-3.5504,-3.5504,-3.5504,-3.5504,-3.5504,-3.5504,-3.5504,-3.5504,-3.5504,-3.5504,-3.5504,-3.5504,-3.5504,-3.5504,-3.5504,-3.5504,-3.5504,-3.5504,0.0,0.0,0.0,0.0,0.0,0.0,0.0,0.0,0.0,0.0,0.0,0.0,0.0,0.0,0.0,0.0,0.0,0.0,0.0,0.0,0.0,0.0,0.0,0.0,0.0,0.0,0.0,0.0,0.0,-3.5504,-3.5504,-3.5504,-3.5504,-3.5504,-3.5504,-3.5504,-3.5504,-3.5504,-3.5504,-3.5504,-3.5504,-3.5504,-3.5504,-3.5504,-3.5504,-3.5504,-3.5504,-3.5504,-3.5504,-3.5504,-3.5504,-3.5504,-3.5504,-3.5504,-3.5504,-3.5504,-3.5504,-3.5504,-3.5504,-3.5504,-3.5504,-3.5504,-3.5504,-3.5504,-3.5504,-3.5504,-3.5504,-3.5504,-3.5504,-3.5504,-3.5504,-3.5504,-3.5504,-3.5504,-3.5504,-3.5504,-3.5504,-3.5504,-3.5504,-3.5504,-3.5504,-3.5504,-3.5504,-3.5504,-3.5504,-3.5504,-3.5504,-3.5504,-3.5504,-3.5504,-3.5504,-3.5504,-3.5504,-3.5504,-3.5504,-3.5504,-3.5504,-3.5504,-3.5504,-3.5504,-3.5504,-3.5504,-3.5504,-3.5504,-3.5504,-3.5504,-3.5504,-3.5504,-3.5504,-3.5504,-3.5504,-3.5504,0.0,0.0,0.0,0.0,0.0,0.0,0.0,0.0,0.0,0.0,0.0,0.0,0.0,0.0,0.0,0.0,0.0,0.0,0.0,0.0,0.0,0.0,0.0,0.0,0.0,0.0,0.0,0.0,0.0,-3.5504,-3.5504,-3.5504,-3.5504,-3.5504,-3.5504,-3.5504,-3.5504,-3.5504,-3.5504,-3.5504,-3.5504,-3.5504,-3.5504,-3.5504,-3.5504,-3.5504,-3.5504,-3.5504,-3.5504,-3.5504,-3.5504,-3.5504,-3.5504,-3.5504,-3.5504,-3.5504,-3.5504,-3.5504,-3.5504,-3.5504,-3.5504,-3.5504,-3.5504,-3.5504,-3.5504,-3.5504,-3.5504,-3.5504,-3.5504,-3.5504,-3.5504,-3.5504,-3.5504,-3.5504,-3.5504,-3.5504,-3.5504,-3.5504,-3.5504,-3.5504,-3.5504,-3.5504,-3.5504,-3.5504,-3.5504,-3.5504,-3.5504,-3.5504,-3.5504,-3.5504,-3.5504,-3.5504,-3.5504,-3.5504,-3.5504,-3.5504,-3.5504,-3.5504,-3.5504,-3.5504,-3.5504,-3.5504,-3.5504,-3.5504,-3.5504,-3.5504,-3.5504,-3.5504,-3.5504,-3.5504,-3.5504,-3.5504,0.0,0.0,0.0,0.0,0.0,0.0,0.0,0.0,0.0,0.0,0.0,0.0,0.0,0.0,0.0,0.0,0.0,0.0,0.0,0.0,0.0,0.0,0.0,0.0,0.0,0.0,0.0,0.0,-3.5504,-3.5504,-3.5504,-3.5504,-3.5504,-3.5504,-3.5504,-3.5504,-3.5504,-3.5504,-3.5504,-3.5504,-3.5504,-3.5504,-3.5504,-3.5504,-3.5504,-3.5504,-3.5504,-3.5504,-3.5504,-3.5504,-3.5504,-3.5504,-3.5504,-3.5504,-3.5504,-3.5504,-3.5504,-3.5504,-3.5504,-3.5504,-3.5504,-3.5504,-3.5504,-3.5504,-3.5504,-3.5504,-3.5504,-3.5504,-3.5504,-3.5504,-3.5504,-3.5504,-3.5504,-3.5504,-3.5504,-3.5504,-3.5504,-3.5504,-3.5504,-3.5504,-3.5504,-3.5504,-3.5504,-3.5504,-3.5504,-3.5504,-3.5504,-3.5504,-3.5504,-3.5504,-3.5504,-3.5504,-3.5504,-3.5504,-3.5504,-3.5504,-3.5504,-3.5504,-3.5504,-3.5504,-3.5504,-3.5504,-3.5504,-3.5504,-3.5504,-3.5504,-3.5504,-3.5504,-3.5504,-3.5504,-3.5504,-3.5504,0.0,0.0,0.0,0.0,0.0,0.0,0.0,0.0,0.0,0.0,0.0,0.0,0.0,0.0,0.0,0.0,0.0,0.0,0.0,0.0,0.0,0.0,0.0,0.0,0.0,0.0,0.0,0.0,-3.5504,-3.5504,-3.5504,-3.5504,-3.5504,-3.5504,-3.5504,-3.5504,-3.5504,-3.5504,-3.5504,-3.5504,-3.5504,-3.5504,-3.5504,-3.5504,-3.5504,-3.5504,-3.5504,-3.5504,-3.5504,-3.5504,-3.5504,-3.5504,-3.5504,-3.5504,-3.5504,-3.5504,-3.5504,-3.5504,-3.5504,-3.5504,-3.5504,-3.5504,-3.5504,-3.5504,-3.5504,-3.5504,-3.5504,-3.5504,-3.5504,-3.5504,-3.5504,-3.5504,-3.5504,-3.5504,-3.5504,-3.5504,-3.5504,-3.5504,-3.5504,-3.5504,-3.5504,-3.5504,-3.5504,-3.5504,-3.5504,-3.5504,-3.5504,-3.5504,-3.5504,-3.5504,-3.5504,-3.5504,-3.5504,-3.5504,-3.5504,-3.5504,-3.5504,-3.5504,-3.5504,-3.5504,-3.5504,-3.5504,-3.5504,-3.5504,-3.5504,-3.5504,-3.5504,-3.5504,-3.5504,-3.5504,-3.5504,-3.5504,0.0,0.0,0.0,0.0,0.0,0.0,0.0,0.0,0.0,0.0,0.0,0.0,0.0,0.0,0.0,0.0,0.0,0.0,0.0,0.0,0.0,0.0,0.0,0.0,0.0,0.0,0.0,0.0,-3.5504,-3.5504,-3.5504,-3.5504,-3.5504,-3.5504,-3.5504,-3.5504,-3.5504,-3.5504,-3.5504,-3.5504,-3.5504,-3.5504,-3.5504,-3.5504,-3.5504,-3.5504,-3.5504,-3.5504,-3.5504,-3.5504,-3.5504,-3.5504,-3.5504,-3.5504,-3.5504,-3.5504,-3.5504,-3.5504,-3.5504,-3.5504,-3.5504,-3.5504,-3.5504,-3.5504,-3.5504,-3.5504,-3.5504,-3.5504,-3.5504,-3.5504,-3.5504,-3.5504,-3.5504,-3.5504,-3.5504,-3.5504,-3.5504,-3.5504,-3.5504,-3.5504,-3.5504,-3.5504,-3.5504,-3.5504,-3.5504,-3.5504,-3.5504,-3.5504,-3.5504,-3.5504,-3.5504,-3.5504,-3.5504,-3.5504,-3.5504,-3.5504,-3.5504,-3.5504,-3.5504,-3.5504,-3.5504,-3.5504,-3.5504,-3.5504,-3.5504,-3.5504,-3.5504,-3.5504,-3.5504,-3.5504,-3.5504,-3.5504,0.0,0.0,0.0,0.0,0.0,0.0,0.0,0.0,0.0,0.0,0.0,0.0,0.0,0.0,0.0,0.0,0.0,0.0,0.0,0.0,0.0,0.0,0.0,0.0,0.0,0.0,0.0,0.0,-3.5504,-3.5504,-3.5504,-3.5504,-3.5504,-3.5504,-3.5504,-3.5504,-3.5504,-3.5504,-3.5504,-3.5504,-3.5504,-3.5504,-3.5504,-3.5504,-3.5504,-3.5504,-3.5504,-3.5504,-3.5504,-3.5504,-3.5504,-3.5504,-3.5504,-3.5504,-3.5504,-3.5504,-3.5504,-3.5504,-3.5504,-3.5504,-3.5504,-3.5504,-3.5504,-3.5504,-3.5504,-3.5504,-3.5504,-3.5504,-3.5504,-3.5504,-3.5504,-3.5504,-3.5504,-3.5504,-3.5504,-3.5504,-3.5504,-3.5504,-3.5504,-3.5504,-3.5504,-3.5504,-3.5504,-3.5504,-3.5504,-3.5504,-3.5504,-3.5504,-3.5504,-3.5504,-3.5504,-3.5504,-3.5504,-3.5504,-3.5504,-3.5504,-3.5504,-3.5504,-3.5504,-3.5504,-3.5504,-3.5504,-3.5504,-3.5504,-3.5504,-3.5504,-3.5504,-3.5504,-3.5504,-3.5504,-3.5504,-3.5504,0.0,0.0,0.0,0.0,0.0,0.0,0.0,0.0,0.0,0.0,0.0,0.0,0.0,0.0,0.0,0.0,0.0,0.0,0.0,0.0,0.0,0.0,0.0,0.0,0.0,0.0,0.0,0.0,0.0,-3.3694,-3.5415,-3.3888,-3.3739,-3.5459,-3.5504,-3.5504,-3.5504,-3.5504,-3.5504,-3.5504,-3.5504,-3.5504,-3.5504,-3.5504,-3.5504,-3.5504,-3.5504,-3.5504,-3.5504,-3.5504,-3.5504,-3.5504,-3.5504,-3.5504,-3.5504,-3.5504,-3.522,-3.4846,-3.4846,-3.4577,-3.4218,-3.4218,-3.4218,-3.4218,-3.4218,-3.4218,-3.4218,-3.4218,-3.4218,-3.4322,-3.4741,-3.4846,-3.4966,-3.54,-3.5504,-3.5504,-3.5504,-3.5504,-3.5504,-3.5504,-3.5504,-3.5504,-3.5504,-3.5504,-3.5504,-3.5504,-3.5504,-3.5504,-3.5504,-3.5504,-3.5504,-3.5504,-3.5504,-3.5504,-3.5504,-3.5504,-3.5504,-3.5504,-3.5504,-3.5504,-3.5504,-3.5504,-3.5504,-3.5504,-3.5504,-3.5504,-3.5504,-3.5504,-3.5504,-3.5504,-3.5504,-3.5504,0.0,0.0,0.0,0.0,0.0,0.0,0.0,0.0,0.0,0.0,0.0,0.0,0.0,0.0,0.0,0.0,0.0,0.0,0.0,0.0,0.0,0.0,0.0,0.0,0.0,0.0,0.0,0.0,0.0,0.0,-3.5415,-3.3829,-3.3679,-3.5444,-3.5504,-3.5504,-3.5504,-3.5504,-3.5504,-3.5504,-3.5504,-3.5504,-3.5504,-3.5504,-3.5504,-3.5504,-3.5504,-3.5504,-3.5504,-3.5504,-3.5504,-3.5504,-3.5504,-3.537,-3.516,-3.516,-3.4726,-3.4143,-3.4143,-3.3858,-3.3499,-3.3499,-3.3499,-3.3499,-3.3499,-3.3499,-3.3499,-3.3499,-3.3499,-3.3589,-3.4038,-3.4143,-3.4322,-3.4996,-3.516,-3.522,-3.5459,-3.5504,-3.5504,-3.5504,-3.5504,-3.5504,-3.5504,-3.5504,-3.5504,-3.5504,-3.5504,-3.5504,-3.5504,-3.5504,-3.5504,-3.5504,-3.5504,-3.5504,-3.5504,-3.5504,-3.5504,-3.5504,-3.5504,-3.5504,-3.5504,-3.5504,-3.5504,-3.5504,-3.5504,-3.5504,-3.5504,-3.5504,-3.5504,-3.5504,-3.5504,-3.5385,0.0,0.0,0.0,0.0,0.0,0.0,0.0,0.0,0.0,0.0,0.0,0.0,0.0,0.0,0.0,0.0,0.0,0.0,0.0,0.0,0.0,0.0,0.0,0.0,0.0,0.0,0.0,0.0,-3.5429,-3.5429,-3.5504,-3.5504,-3.5504,-3.5504,-3.5504,-3.5504,-3.5504,-3.5504,-3.5504,-3.5504,-3.5504,-3.5504,-3.5504,-3.5504,-3.5504,-3.5504,-3.5504,-3.5504,-3.5504,-3.5504,-3.5504,-3.5504,-3.5489,-3.507,-3.4472,-3.4457,-3.4038,-3.3469,-3.3469,-3.3455,-3.344,-3.344,-3.344,-3.344,-3.344,-3.344,-3.344,-3.344,-3.344,-3.344,-3.3469,-3.3484,-3.3649,-3.4292,-3.4472,-3.4666,-3.5325,-3.5489,-3.5504,-3.5504,-3.5504,-3.5504,-3.5504,-3.5504,-3.5504,-3.5504,-3.5504,-3.5504,-3.5504,-3.5504,-3.5504,-3.5504,-3.5504,-3.5504,-3.5504,-3.5504,-3.5504,-3.5504,-3.5504,-3.5504,-3.5504,-3.5504,-3.5504,-3.5504,-3.5504,-3.5504,-3.5504,-3.5504,-3.5504,-3.5504,-3.5489,-3.51,-1.6358,0.0,0.0,0.0,0.0,0.0,0.0,0.0,0.0,0.0,0.0,0.0,0.0,0.0,0.0,0.0,0.0,0.0,0.0,0.0,0.0,0.0,0.0,0.0,0.0,0.0,0.0,0.0,-3.3724,-3.3469,-3.54,-3.5504,-3.5504,-3.5504,-3.5504,-3.5504,-3.5504,-3.5504,-3.5504,-3.5504,-3.5504,-3.5504,-3.5504,-3.5504,-3.5504,-3.5504,-3.5504,-3.5504,-3.5504,-3.5504,-3.5504,-3.5459,-3.4966,-3.4637,-3.4412,-3.3948,-3.335,-3.2781,-3.2781,-3.2482,-3.2078,-3.2078,-3.2078,-3.2078,-3.2078,-3.2078,-3.2078,-3.2078,-3.2078,-3.2183,-3.2662,-3.314,-3.3544,-3.3724,-3.4128,-3.4532,-3.4726,-3.516,-3.5504,-3.5504,-3.5504,-3.5504,-3.5504,-3.5504,-3.5504,-3.5504,-3.5504,-3.5504,-3.5504,-3.5504,-3.5504,-3.5504,-3.5504,-3.5504,-3.5504,-3.5504,-3.5504,-3.5504,-3.5504,-3.5504,-3.5504,-3.5504,-3.5504,-3.5504,-3.5504,-3.5504,-3.5504,-3.5504,-3.5504,-3.5489,-3.4996,-3.4397,0.0,0.0,0.0,0.0,0.0,0.0,-1.8066,-2.1454,0.0,0.0,0.0,0.0,0.0,0.0,0.0,0.0,0.0,0.0,0.0,0.0,0.0,0.0,0.0,0.0,0.0,-3.5504,-3.5504,-3.5504,-3.4068,-3.3873,-3.5429,-3.5504,-3.5504,-3.5504,-3.5504,-3.5504,-3.5504,-3.5504,-3.5504,-3.5504,-3.5504,-3.5504,-3.5504,-3.5504,-3.5504,-3.5489,-3.519,-3.507,-3.5055,-3.4771,-3.4831,-3.5011,-3.4322,-3.3903,-3.3604,-3.323,-3.2677,-3.2108,-3.2108,-3.1854,-3.1482,-3.1482,-3.1482,-3.1482,-3.1482,-3.1482,-3.1482,-3.1482,-3.1482,-3.1556,-3.2003,-3.2392,-3.2751,-3.3021,-3.338,-3.3814,-3.4352,-3.4801,-3.516,-3.5444,-3.5504,-3.5504,-3.5504,-3.5504,-3.5504,-3.5504,-3.5504,-3.5504,-3.5504,-3.5504,-3.5504,-3.5504,-3.5504,-3.5504,-3.5504,-3.5504,-3.5504,-3.5504,-3.5504,-3.5504,-3.5504,-3.5504,-3.5504,-3.5504,-3.5504,-3.537,-3.507,-3.537,-3.5355,-3.5055,-3.4098,-3.3455,0.0,0.0,0.0,0.0,0.0,0.0,-1.7827,-2.1956,-2.5857,0.0,0.0,0.0,0.0,0.0,0.0,0.0,0.0,0.0,0.0,0.0,0.0,0.0,0.0,0.0,-3.5359,-3.5359,-3.5359,-3.5504,-3.5504,-3.5504,-3.5504,-3.5504,-3.5504,-3.5504,-3.5504,-3.5504,-3.5504,-3.5504,-3.5504,-3.5504,-3.5504,-3.5504,-3.5504,-3.5429,-3.5385,-3.5355,-3.4666,-3.4367,-3.4322,-3.3664,-3.3769,-3.4307,-3.3649,-3.3021,-3.2497,-3.2437,-3.2033,-3.1482,-3.1482,-3.1482,-3.1482,-3.1482,-3.1482,-3.1482,-3.1482,-3.1482,-3.1482,-3.1482,-3.1482,-3.1482,-3.1482,-3.1482,-3.1616,-3.2273,-3.2467,-3.2841,-3.4008,-3.4367,-3.4666,-3.5265,-3.5444,-3.5504,-3.5504,-3.5504,-3.5504,-3.5504,-3.5504,-3.5504,-3.5504,-3.5504,-3.5504,-3.5504,-3.5504,-3.5504,-3.5504,-3.5504,-3.5504,-3.5504,-3.5504,-3.5504,-3.5504,-3.5504,-3.5504,-3.5504,-3.5429,-3.51,-3.4472,-3.51,-3.4996,-3.4233,-3.3066,-3.2482,0.0,0.0,0.0,0.0,0.0,0.0,-1.6795,-1.8011,-1.9772,0.0,0.0,0.0,0.0,0.0,0.0,0.0,0.0,0.0,0.0,0.0,0.0,0.0,0.0,0.0,-3.4312,-3.4312,-3.461,-3.5439,-3.5504,-3.5504,-3.5504,-3.5504,-3.5504,-3.5504,-3.5504,-3.5504,-3.5504,-3.5504,-3.5504,-3.5504,-3.5504,-3.5504,-3.5489,-3.4936,-3.4681,-3.4637,-3.3978,-3.3694,-3.3634,-3.2976,-3.3095,-3.3619,-3.2961,-3.2632,-3.2452,-3.1855,-3.1586,-3.1482,-3.1482,-3.1482,-3.1482,-3.1482,-3.1482,-3.1482,-3.1482,-3.1482,-3.1482,-3.1482,-3.1482,-3.1482,-3.1482,-3.1482,-3.1511,-3.1631,-3.2138,-3.2587,-3.2841,-3.3724,-3.4517,-3.4651,-3.513,-3.5504,-3.5504,-3.5504,-3.5504,-3.5504,-3.5504,-3.5504,-3.5504,-3.5504,-3.5504,-3.5504,-3.5504,-3.5504,-3.5504,-3.5504,-3.5504,-3.5504,-3.5504,-3.5504,-3.5504,-3.5504,-3.5504,-3.5504,-3.4966,-3.4607,-3.4472,-3.4607,-3.4068,-3.2886,-3.2632,-3.2228,0.0,0.0,0.0,-1.5555,0.0,0.0,0.0,-1.7961,-1.9691,0.0,0.0,0.0,0.0,0.0,0.0,0.0,0.0,0.0,0.0,0.0,0.0,0.0,0.0,0.0,-3.4758,-3.4758,-3.4986,-3.5439,-3.5504,-3.5504,-3.5504,-3.5504,-3.5504,-3.5504,-3.5504,-3.5504,-3.5504,-3.5504,-3.5504,-3.5504,-3.516,-3.4996,-3.4966,-3.4292,-3.3978,-3.3948,-3.329,-3.3006,-3.2885,-3.184,-3.1571,-3.1896,-3.1961,-3.2018,-3.1988,-3.1601,-3.1482,-3.1482,-3.1482,-3.1482,-3.1482,-3.1482,-3.1482,-3.1409,-3.1029,-3.0896,-3.097,-3.1409,-3.1482,-3.1482,-3.1482,-3.1482,-3.1482,-3.1482,-3.1735,-3.2108,-3.2437,-3.3036,-3.3589,-3.3918,-3.4532,-3.51,-3.5444,-3.5504,-3.5504,-3.5504,-3.5504,-3.5504,-3.5504,-3.5504,-3.5504,-3.5504,-3.5504,-3.5504,-3.5504,-3.5504,-3.5504,-3.5504,-3.5504,-3.5504,-3.5504,-3.5504,-3.534,-3.4996,-3.4651,-3.4158,-3.3499,-3.3499,-3.3155,-3.2497,-3.2183,-3.1795,0.0,0.0,0.0,0.0,0.0,-1.6384,0.0,0.0,0.0,0.0,0.0,0.0,0.0,0.0,0.0,0.0,0.0,0.0,0.0,0.0,0.0,0.0,0.0,0.0,0.0,-3.4316,-3.4951,-3.5474,-3.5504,-3.5504,-3.5504,-3.5504,-3.5504,-3.5504,-3.5504,-3.5444,-3.531,-3.531,-3.5235,-3.5115,-3.4562,-3.4215,-3.4059,-3.3543,-3.3106,-3.28,-3.2287,-3.2005,-3.1766,-3.0545,-3.0072,-3.0133,-3.0777,-3.1087,-3.1219,-3.1087,-3.1219,-3.1467,-3.1351,-3.1278,-3.1278,-3.1278,-3.1161,-3.0896,-3.045,-3.0329,-3.0464,-3.1278,-3.1482,-3.1467,-3.1278,-3.1278,-3.1278,-3.1278,-3.1278,-3.1485,-3.2154,-3.2422,-3.2677,-3.32,-3.3844,-3.4502,-3.519,-3.5415,-3.5504,-3.5504,-3.5504,-3.5504,-3.5504,-3.5504,-3.5504,-3.5504,-3.5504,-3.5504,-3.5504,-3.5504,-3.5504,-3.5504,-3.5504,-3.5444,-3.531,-3.519,-3.4861,-3.4307,-3.4158,-3.3574,-3.2512,-3.2392,-3.2332,-3.2317,-3.1779,-3.1482,0.0,0.0,0.0,0.0,-1.5379,0.0,0.0,0.0,-1.7061,-1.7061,0.0,0.0,0.0,0.0,0.0,0.0,0.0,0.0,0.0,0.0,0.0,0.0,0.0,0.0,0.0,-3.0129,-3.2961,-3.5325,-3.5504,-3.5504,-3.5504,-3.5504,-3.5504,-3.5504,-3.5504,-3.5205,-3.4607,-3.4592,-3.4307,-3.3724,-3.3649,-3.3203,-3.2434,-3.2598,-3.1769,-3.0423,-3.052,-3.0111,-2.9352,-2.9219,-2.9129,-2.9192,-2.9254,-2.9766,-3.0329,-2.9566,-3.0208,-3.1409,-3.0703,-3.045,-3.045,-3.045,-2.9889,-2.938,-3.0072,-3.0329,-3.0464,-3.1278,-3.1482,-3.1351,-3.0644,-3.045,-3.045,-3.045,-3.045,-3.0673,-3.144,-3.2093,-3.2542,-3.2617,-3.3155,-3.3814,-3.4487,-3.51,-3.5504,-3.5504,-3.5504,-3.5504,-3.5504,-3.5504,-3.5504,-3.5504,-3.5504,-3.5504,-3.5504,-3.5504,-3.5504,-3.5504,-3.5504,-3.5235,-3.4622,-3.4038,-3.3679,-3.3604,-3.3036,-3.2662,-3.2512,-3.1928,-3.1586,-3.1586,-3.1511,-3.1482,0.0,0.0,0.0,0.0,0.0,0.0,-1.7451,0.0,-1.5467,0.0,0.0,0.0,0.0,0.0,0.0,0.0,-1.4341,0.0,0.0,0.0,0.0,0.0,0.0,0.0,0.0,0.0,0.0,0.0,-3.2386,-3.2535,-3.2165,-3.3928,-3.4741,-3.4352,-3.4337,-3.3984,-3.3152,-3.3152,-3.302,-3.2742,-3.2346,-3.197,-3.1613,-3.1329,-3.0535,-2.9425,-2.9491,-2.9317,-2.8939,-2.8427,-2.8247,-2.8182,-2.7736,-2.8363,-2.9504,-2.9129,-2.9442,-3.0011,-2.9628,-2.9566,-2.9566,-2.9566,-2.8939,-2.8427,-2.9254,-2.9192,-2.9066,-3.0389,-3.045,-3.0072,-3.0269,-2.995,-2.9566,-2.9566,-2.995,-3.0389,-3.0718,-3.1368,-3.1943,-3.1943,-3.2482,-3.3021,-3.329,-3.3903,-3.4337,-3.4337,-3.4337,-3.4337,-3.4337,-3.4337,-3.4337,-3.4337,-3.4337,-3.4337,-3.4337,-3.4337,-3.4337,-3.4337,-3.4337,-3.4203,-3.3918,-3.3649,-3.332,-3.2931,-3.2647,-3.2332,-3.1943,-3.1616,-3.1482,-3.1482,-3.1482,-3.1482,-1.6986,0.0,0.0,0.0,0.0,0.0,0.0,0.0,0.0,0.0,0.0,0.0,0.0,0.0,0.0,0.0,0.0,-1.4774,0.0,0.0,0.0,0.0,0.0,0.0,0.0,0.0,0.0,-2.7802,-2.9142,-2.9696,-2.9175,-3.2176,-3.3572,-3.2834,-3.3022,-3.2669,-3.1625,-3.1625,-3.1475,-3.1304,-3.082,-3.0452,-3.0249,-3.0012,-2.938,-2.8298,-2.8556,-2.8492,-2.8233,-2.7604,-2.7351,-2.7284,-2.6714,-2.7229,-2.8298,-2.8298,-2.862,-2.9002,-2.8748,-2.862,-2.862,-2.8363,-2.7855,-2.755,-2.8363,-2.8182,-2.7986,-2.9504,-2.9504,-2.9066,-2.9504,-2.9129,-2.862,-2.862,-2.9129,-2.969,-3.0208,-3.0584,-3.0896,-3.1087,-3.1531,-3.1916,-3.1916,-3.281,-3.3499,-3.3499,-3.3499,-3.3499,-3.3499,-3.3499,-3.3499,-3.3499,-3.3499,-3.3499,-3.3499,-3.3499,-3.3499,-3.3499,-3.332,-3.323,-3.323,-3.3051,-3.2736,-3.2258,-3.2243,-3.2018,-3.1482,-3.1482,-3.1482,-3.1482,-3.1482,-3.1482,0.0,0.0,0.0,-1.7777,0.0,0.0,0.0,0.0,-1.3248,0.0,0.0,0.0,0.0,0.0,0.0,0.0,0.0,0.0,0.0,0.0,0.0,0.0,0.0,0.0,0.0,0.0,0.0,-2.4483,-2.6537,-2.7778,-2.7764,-3.0616,-3.1897,-3.1146,-3.1803,-3.1518,-3.0058,-3.0058,-2.9767,-2.9121,-2.9093,-2.8648,-2.7815,-2.8698,-2.8117,-2.6589,-2.7417,-2.7284,-2.6589,-2.6521,-2.6521,-2.6521,-2.6533,-2.6521,-2.6589,-2.6589,-2.7604,-2.8876,-2.8051,-2.7736,-2.7604,-2.685,-2.6589,-2.6714,-2.7484,-2.7736,-2.7855,-2.8812,-2.9002,-2.8812,-2.7986,-2.7736,-2.7736,-2.7736,-2.7736,-2.8247,-2.995,-2.9628,-2.9317,-3.0147,-3.0358,-3.0358,-3.0358,-3.2119,-3.3499,-3.3499,-3.3499,-3.3499,-3.3499,-3.3499,-3.3499,-3.3499,-3.3499,-3.3499,-3.3499,-3.3499,-3.3499,-3.3499,-3.2901,-3.2542,-3.2542,-3.1943,-3.1526,-3.1511,-3.1511,-3.1497,-3.1482,-3.1482,-3.1482,-3.1482,-3.1482,-3.1482,0.0,0.0,-2.187,-2.133,0.0,0.0,0.0,0.0,0.0,0.0,0.0,0.0,0.0,0.0,0.0,0.0,0.0,0.0,0.0,0.0,0.0,0.0,0.0,0.0,0.0,0.0,0.0,-2.0149,-2.1532,-2.2145,-2.1698,-2.6062,-2.8245,-2.753,-2.9156,-2.9578,-2.8477,-2.8477,-2.8369,-2.8117,-2.8117,-2.7986,-2.7736,-2.7986,-2.7537,-2.6521,-2.6782,-2.6782,-2.6533,-2.6533,-2.6533,-2.6533,-2.6533,-2.6533,-2.6533,-2.6533,-2.685,-2.7284,-2.704,-2.6905,-2.685,-2.6589,-2.6533,-2.6521,-2.685,-2.6905,-2.7095,-2.792,-2.7736,-2.7417,-2.767,-2.7284,-2.6905,-2.6905,-2.7284,-2.7855,-2.8427,-2.8812,-2.9066,-2.938,-2.9889,-3.0329,-3.0329,-3.1323,-3.2198,-3.2198,-3.2198,-3.2198,-3.2198,-3.2198,-3.2198,-3.2198,-3.2198,-3.2198,-3.2198,-3.2198,-3.2198,-3.2198,-3.1988,-3.1869,-3.1869,-3.1601,-3.1482,-3.1482,-3.1482,-3.1482,-3.1482,-3.1482,-3.1482,-3.1482,-3.1482,-3.1482,-2.3929,-2.4318,0.0,-2.3265,-2.16,0.0,-1.9158,0.0,0.0,0.0,0.0,0.0,0.0,0.0,0.0,0.0,0.0,0.0,0.0,-1.4287,0.0,0.0,0.0,0.0,0.0,0.0,-1.5957,-1.6409,-1.7713,-1.8292,0.0,0.0,-2.5558,-2.4781,-2.7195,-2.8117,-2.7297,-2.7297,-2.7297,-2.7297,-2.7297,-2.7297,-2.7297,-2.7297,-2.6973,-2.6533,-2.6533,-2.6533,-2.6533,-2.6533,-2.6533,-2.6533,-2.6533,-2.6533,-2.6533,-2.6533,-2.6533,-2.6533,-2.6533,-2.6533,-2.6533,-2.6533,-2.6533,-2.6533,-2.6533,-2.6533,-2.6627,-2.734,-2.7058,-2.664,-2.734,-2.7058,-2.6533,-2.6533,-2.6905,-2.7351,-2.767,-2.792,-2.8182,-2.8492,-2.9254,-2.9766,-2.9442,-3.0329,-3.1161,-3.1467,-3.1482,-3.1482,-3.1482,-3.1482,-3.1482,-3.1482,-3.1482,-3.1482,-3.1482,-3.1482,-3.1482,-3.1482,-3.1482,-3.1482,-3.1482,-3.1482,-3.1482,-3.1482,-3.1482,-3.1482,-3.1482,-3.1482,-3.1482,-3.1482,-3.1482,-3.1482]}]]